GFSNGP_sfc_thetae_000.txt.gz
Theta_e
308 309 309 307 306 306 305 307 306 309 310 315 318 319 321 323 326 331 336 338 341 343 350 355 355 357 356 355 356 357 358 357 359 362 359 355 350 343 341 341 343 336 337 336
308 310 309 306 308 307 306 307 308 309 310 318 320 321 321 322 324 331 336 338 341 345 348 351 352 353 355 356 356 358 359 358 361 362 356 348 348 346 347 345 342 338 337 337
305 310 308 304 308 308 307 309 309 306 311 316 316 319 322 323 328 331 336 338 340 344 347 351 352 356 354 356 358 358 358 359 361 358 352 347 347 346 345 343 343 341 340 340
306 309 299 308 315 313 309 309 311 313 315 317 319 324 328 330 328 332 337 339 341 342 346 350 351 351 353 354 356 357 358 358 358 355 349 349 347 346 345 342 339 341 341 340
303 303 307 309 314 311 309 308 312 314 317 318 321 324 328 330 332 335 339 342 343 344 347 350 348 350 351 351 353 354 355 356 353 352 347 345 345 344 345 343 341 342 343 342
307 301 299 312 317 321 320 308 315 316 317 318 322 316 318 331 330 332 338 340 342 342 345 345 346 348 349 349 351 352 354 355 351 350 348 345 346 346 345 345 342 339 340 342
305 304 307 317 318 321 307 309 317 322 323 324 323 326 331 333 334 337 340 341 343 343 342 345 347 348 348 349 350 354 356 354 350 351 351 350 349 346 345 343 341 343 341 343
307 304 301 318 318 313 321 326 326 327 328 328 329 332 334 335 337 339 339 339 340 342 345 348 350 350 351 351 356 357 356 350 349 350 348 349 347 343 342 342 342 340 343 342
309 308 317 319 318 323 327 326 327 328 329 330 329 330 332 333 335 336 336 337 339 343 347 350 353 353 352 358 358 356 350 347 348 348 347 347 345 340 338 340 338 339 339 337
313 314 316 317 320 323 324 324 327 328 328 329 327 329 330 332 335 337 340 340 341 342 345 349 352 353 356 354 355 354 349 347 345 347 345 344 343 341 342 340 337 341 338 336
313 315 316 317 317 319 320 323 325 327 327 327 331 332 335 335 338 339 341 342 342 343 346 348 351 351 352 352 351 348 346 344 344 343 342 344 336 326 341 331 325 335 334 331
309 315 314 309 313 315 316 318 321 322 322 323 327 328 331 333 338 339 342 344 344 345 347 348 349 350 352 350 349 346 341 341 341 341 343 341 336 331 301 302 301 300 299 315
315 315 310 310 311 313 313 314 316 317 320 320 322 322 324 326 329 326 335 337 343 343 346 347 348 348 351 352 349 346 344 344 341 336 338 338 337 333 328 310 297 296 296 297
314 312 307 310 308 312 313 314 314 316 317 317 318 319 320 321 323 326 328 333 336 342 343 345 345 346 348 348 347 345 343 323 338 337 336 335 334 333 333 330 327 322 301 304
309 311 310 311 312 313 314 314 312 312 314 314 318 319 319 319 319 321 325 328 331 335 339 343 343 344 345 343 342 339 335 334 335 333 332 329 332 331 331 330 328 327 314 305
309 309 310 310 312 310 311 313 314 314 316 316 318 319 320 322 322 323 325 328 327 328 336 338 343 343 342 339 335 333 333 323 326 332 332 332 332 330 330 328 328 327 323 322
305 303 306 308 310 310 311 313 313 314 316 316 318 320 323 324 325 326 328 330 335 335 338 339 339 342 340 336 335 332 332 332 326 331 330 329 328 327 326 326 325 324 324 322
313 312 312 312 311 312 312 314 316 317 317 317 318 319 320 324 326 329 330 332 334 335 336 338 340 340 338 337 334 333 331 329 327 323 324 326 327 330 328 326 324 324 323 317
313 311 312 312 314 313 313 313 315 317 318 319 318 319 323 326 328 329 331 331 330 329 330 337 326 333 337 333 331 330 327 325 326 329 328 321 327 327 326 325 324 323 323 322
311 311 312 313 314 314 313 315 315 315 318 320 320 320 322 324 327 327 330 328 329 330 333 332 334 333 331 328 323 326 328 328 327 326 326 323 323 323 324 315 322 321 321 320
311 311 311 312 314 316 317 317 316 317 320 321 321 321 322 324 325 325 325 322 327 328 329 324 330 329 328 326 326 326 326 325 325 325 323 322 322 322 321 320 319 320 319 318
312 312 313 313 313 315 318 319 319 320 321 321 321 321 320 320 323 324 326 324 327 313 326 326 325 320 323 319 324 323 322 321 322 321 320 319 318 318 318 317 316 316 317 317
314 315 314 315 315 315 317 318 320 321 321 322 321 320 318 317 318 318 319 324 327 318 325 323 313 313 314 320 320 318 317 318 318 318 316 315 314 314 314 314 314 314 313 313
316 316 317 317 316 316 315 318 318 319 320 321 320 320 317 312 317 319 322 315 313 315 321 319 315 311 307 319 318 318 317 317 315 315 315 300 310 312 312 313 313 313 313 310
318 317 317 317 313 313 316 318 317 314 316 319 319 319 318 318 316 316 319 320 311 316 324 311 311 310 317 318 318 317 317 316 315 315 314 314 313 311 311 311 313 313 313 312
312 312 314 315 314 313 313 313 312 313 313 312 314 315 316 317 319 317 319 314 319 316 318 320 322 320 321 320 319 318 317 317 315 315 312 313 313 312 311 311 310 310 310 310
309 304 310 310 311 311 311 312 311 311 312 312 311 314 315 315 315 313 310 316 316 316 317 318 318 316 318 317 317 317 317 317 311 315 315 314 314 313 312 311 311 311 311 311

GFSNGP_sfc_thetae_003.txt.gz
Theta_e
310 311 311 308 306 307 306 308 306 310 311 316 320 321 323 324 325 326 328 335 340 342 350 353 351 354 355 353 356 355 361 359 365 370 368 367 367 366 362 358 354 350 348 346
307 310 309 307 309 308 308 308 308 310 310 319 321 324 323 323 324 324 326 329 340 344 347 355 355 358 358 358 359 361 364 363 368 371 368 366 365 362 356 356 352 349 343 342
306 311 310 305 308 309 310 311 309 306 311 316 318 321 324 324 324 325 329 331 336 343 347 352 353 360 359 362 362 364 367 368 372 372 366 360 360 357 354 352 352 348 342 343
306 310 299 310 317 315 312 313 313 313 314 316 320 324 326 325 325 327 331 332 335 341 347 354 353 353 358 359 365 367 368 368 371 369 361 355 353 352 352 353 351 348 344 346
304 305 309 311 316 315 315 314 317 315 315 315 319 320 323 326 326 329 330 333 337 345 348 360 357 362 362 359 362 364 362 367 369 365 358 353 349 350 353 351 353 346 343 344
308 302 301 310 319 322 320 309 318 318 317 315 317 314 318 326 330 334 335 334 341 346 350 354 359 356 359 355 358 360 362 365 368 363 357 351 350 350 352 354 350 343 342 343
305 304 307 318 320 322 307 311 327 327 326 323 315 321 333 336 334 336 336 344 349 349 353 357 359 354 356 355 354 357 359 360 361 358 354 351 352 353 351 350 346 341 340 345
305 303 301 321 319 313 322 327 328 329 329 330 322 330 334 335 337 338 339 343 345 348 351 353 357 356 357 358 362 364 362 360 356 353 351 351 353 349 347 346 345 344 345 345
308 308 322 325 324 326 327 327 329 329 330 331 331 332 335 338 340 341 342 343 344 343 350 352 358 359 359 366 366 363 362 355 352 353 352 353 352 349 345 346 342 341 341 338
314 318 320 322 325 326 326 326 328 332 332 333 333 334 335 335 335 335 338 341 343 345 347 351 357 356 360 361 362 360 353 350 350 349 349 349 349 344 341 339 339 340 339 340
315 319 319 320 322 323 324 327 326 329 330 332 332 332 334 337 339 338 339 341 343 345 347 349 354 356 356 358 359 352 348 347 350 349 348 347 341 335 344 345 333 339 339 339
311 320 318 316 319 320 319 319 321 323 324 328 331 331 335 337 339 340 340 342 344 345 348 350 352 353 354 355 355 352 348 348 347 346 347 343 335 328 302 305 302 302 300 317
315 320 315 315 316 316 315 314 317 318 320 320 323 324 325 327 331 327 339 340 341 343 346 349 351 352 352 355 355 351 348 348 346 341 343 342 341 339 334 312 299 297 297 300
319 318 315 315 310 313 315 315 315 317 319 320 320 322 322 322 324 327 331 335 340 341 345 347 348 349 350 352 353 351 348 328 343 343 339 339 338 336 333 331 328 325 302 305
313 317 316 316 315 313 314 314 312 312 315 319 321 322 323 322 321 323 326 328 330 334 340 342 345 345 349 348 348 347 343 339 340 338 337 333 335 333 332 332 330 327 317 309
312 314 313 311 310 311 312 312 312 313 315 318 320 322 324 326 326 325 325 327 327 328 334 339 343 345 346 346 344 340 338 328 332 335 333 332 332 330 329 329 327 326 326 323
305 305 309 309 309 310 310 311 311 314 316 316 318 322 324 325 326 329 329 329 330 331 334 337 342 347 345 341 338 334 333 333 327 334 331 331 330 328 327 326 325 325 325 322
309 310 312 311 312 312 311 313 315 317 316 317 319 321 323 326 326 327 328 329 334 332 335 339 343 343 342 340 338 334 332 332 332 330 329 327 327 328 328 326 324 324 321 317
312 313 314 315 315 315 314 314 316 319 318 319 320 321 323 325 325 327 330 330 330 330 334 341 329 336 340 337 334 332 330 329 328 327 327 322 326 327 326 325 324 325 323 324
311 312 313 313 315 315 316 317 318 318 319 320 321 322 323 322 326 328 330 328 331 333 336 336 336 337 337 333 328 329 328 328 326 327 327 326 325 323 324 316 322 322 322 323
312 312 312 313 315 317 317 318 317 318 321 320 322 322 323 325 323 325 326 326 331 332 332 327 333 332 332 329 329 329 329 326 325 325 324 324 322 322 322 322 320 320 320 321
313 313 313 314 315 315 318 318 320 320 320 321 321 321 323 321 324 325 327 327 328 317 325 328 325 320 326 321 327 326 325 324 324 325 322 322 321 320 320 320 319 319 318 318
314 314 314 314 315 317 317 317 319 321 320 320 321 319 318 317 319 321 321 325 325 317 320 318 315 316 314 322 322 322 323 322 321 320 319 318 317 317 316 316 316 316 315 314
316 316 317 317 317 316 316 316 317 318 319 322 318 319 317 313 318 318 321 316 314 317 319 315 314 312 307 320 320 320 320 319 317 316 316 306 313 312 312 313 314 315 315 311
317 318 317 317 317 316 317 317 319 317 318 320 321 321 320 320 318 316 317 320 313 314 318 311 311 311 316 318 318 318 318 317 317 316 316 315 314 314 313 312 312 314 314 314
316 313 314 316 314 313 313 314 312 313 313 313 314 315 316 317 316 317 321 315 318 316 317 321 322 320 320 318 318 318 318 318 317 316 314 314 314 314 314 313 313 312 312 312
311 305 310 310 311 311 311 311 311 310 311 312 311 313 314 314 315 314 311 316 315 316 316 317 318 317 317 318 317 317 317 317 311 316 315 315 315 315 314 314 314 313 313 312

GFSNGP_sfc_thetae_006.txt.gz
Theta_e
308 309 310 309 308 308 307 308 304 308 309 317 320 323 323 327 330 331 336 339 343 345 347 346 346 347 349 350 352 354 358 361 361 365 364 364 364 364 364 364 363 362 355 352
306 310 309 308 310 309 308 309 309 309 309 318 322 323 326 326 328 328 330 332 341 344 351 353 348 348 348 348 349 353 355 356 361 364 365 364 363 364 364 365 362 359 351 348
304 308 308 304 309 310 310 310 309 306 312 318 317 320 325 329 328 329 330 332 339 346 347 351 352 350 348 348 351 351 355 357 359 363 365 364 364 364 364 362 359 354 349 344
305 308 297 309 314 313 311 312 312 312 315 317 318 321 323 324 325 326 331 331 333 330 348 353 354 351 352 352 354 353 361 359 361 365 364 364 363 363 363 358 354 353 348 342
304 304 307 309 313 313 311 311 316 315 318 317 319 320 320 323 325 327 327 337 334 332 339 354 354 355 357 354 353 361 358 363 364 369 366 364 362 360 358 353 352 350 347 342
306 300 300 311 318 322 319 308 323 324 323 322 321 312 315 325 327 326 326 330 341 342 344 355 357 356 356 357 356 354 361 364 369 369 365 359 357 354 351 353 352 352 345 345
304 302 306 316 319 320 307 311 325 326 326 326 322 326 333 338 342 341 331 336 347 355 353 357 359 358 356 357 358 360 367 367 370 368 363 357 352 351 351 352 354 348 341 341
306 304 301 320 318 312 321 326 325 326 327 327 331 332 332 334 338 341 341 340 348 360 361 362 362 361 361 361 366 368 366 367 367 361 353 351 350 351 351 349 345 343 343 341
305 306 319 325 326 327 327 326 328 331 329 328 328 330 334 336 338 341 341 349 349 355 360 363 365 361 359 363 364 363 363 363 360 355 351 351 352 346 344 348 344 342 341 344
308 314 320 323 325 326 328 329 330 331 332 334 333 333 334 337 340 344 347 349 350 351 352 356 359 361 363 363 364 362 360 356 353 351 352 354 351 349 346 344 343 341 344 342
310 322 322 323 325 326 326 328 327 327 326 327 332 332 336 339 342 344 346 348 352 353 355 357 362 360 362 364 363 356 352 350 347 347 348 347 331 330 343 324 325 346 348 343
311 321 320 320 323 322 321 322 323 323 323 326 327 328 330 334 336 337 339 342 344 351 353 353 357 358 360 361 357 352 348 347 347 345 345 338 330 323 301 303 300 301 303 322
308 316 313 316 316 318 317 317 318 319 321 321 324 329 326 328 329 328 337 344 348 350 352 353 353 353 357 358 354 352 348 348 343 341 343 340 337 333 323 309 300 298 298 300
314 314 311 314 313 316 316 317 318 319 320 321 321 323 321 323 328 330 334 341 345 347 348 349 350 350 353 353 352 350 350 329 346 344 345 344 343 340 337 328 324 319 300 304
315 315 313 316 316 315 316 317 316 314 316 319 322 323 324 324 323 328 331 332 338 342 345 348 349 351 352 353 352 353 346 345 343 343 345 340 340 336 337 331 331 320 313 306
313 313 314 313 312 313 314 313 314 315 316 315 317 323 325 326 328 330 332 332 334 337 344 342 343 347 349 347 348 345 345 333 336 335 335 337 335 334 332 331 324 322 321 317
309 308 309 311 312 311 311 312 312 310 312 315 316 321 324 326 328 325 327 331 335 336 339 343 344 348 348 346 346 342 337 337 329 333 334 333 332 330 330 329 329 328 324 320
312 314 312 310 308 308 310 311 312 314 311 315 319 322 323 325 327 328 331 335 335 334 335 342 345 346 340 343 343 337 333 334 335 332 330 332 332 332 330 327 325 326 325 315
313 313 314 314 315 314 313 314 315 318 319 319 322 322 323 326 326 330 332 332 330 331 334 340 331 338 339 334 333 331 328 330 331 325 326 323 327 327 326 326 325 325 322 318
312 313 313 315 315 315 315 318 319 318 318 320 321 321 322 323 325 327 329 328 330 334 338 335 339 338 339 335 329 333 331 326 325 328 321 327 323 325 326 316 322 324 324 324
312 313 314 315 314 316 317 318 319 317 322 322 323 323 324 324 328 327 326 325 328 327 329 328 335 335 338 332 329 331 323 327 325 324 325 321 323 322 322 322 321 323 322 323
313 313 313 315 316 316 318 318 318 319 320 320 322 321 323 321 324 325 327 325 324 315 324 325 321 318 323 320 327 324 328 326 321 323 322 320 321 321 320 318 318 322 322 322
315 316 317 316 315 317 317 319 318 320 321 318 319 321 320 318 321 319 317 322 318 316 317 317 316 315 312 321 322 324 323 322 321 321 319 319 319 318 317 317 317 319 319 319
317 315 312 319 318 319 318 320 316 320 322 321 321 321 319 314 316 320 322 315 315 317 319 316 313 313 309 317 319 319 318 318 317 316 316 308 314 314 313 314 313 315 317 313
312 316 316 317 312 310 313 314 313 315 317 317 317 318 322 320 318 317 319 318 311 315 319 310 312 312 316 316 317 317 318 318 317 317 316 316 315 315 315 314 313 314 314 315
314 310 312 317 312 310 311 311 311 311 311 313 313 313 313 316 315 316 319 316 317 315 317 320 320 317 318 318 316 316 317 317 317 317 314 317 315 314 313 315 314 313 314 313
311 305 310 309 308 308 308 308 308 307 309 309 309 311 313 314 313 313 310 314 314 314 314 316 314 315 315 316 314 314 318 317 310 315 317 316 316 315 316 316 317 316 315 314

GFSNGP_sfc_thetae_009.txt.gz
Theta_e
303 305 305 303 304 304 301 300 296 298 299 303 307 316 317 319 321 322 324 329 329 334 335 339 341 343 345 348 351 357 358 358 357 359 359 360 359 359 355 355 354 352 347 347
300 305 305 303 305 306 304 304 303 303 302 306 309 310 320 319 318 317 325 332 331 333 334 335 338 341 344 346 349 353 355 356 357 357 358 358 358 358 357 355 354 353 349 347
295 302 302 298 303 305 306 306 305 300 304 306 307 309 313 318 320 316 319 328 331 331 338 337 339 341 342 346 349 350 352 355 355 355 356 356 357 356 356 355 356 354 349 346
295 298 292 302 309 309 308 309 308 306 307 309 309 312 315 315 315 315 320 323 328 335 335 343 341 342 343 345 346 348 348 352 354 355 355 357 356 355 357 357 355 351 347 343
293 294 298 305 308 306 305 304 311 315 318 316 315 310 309 315 318 315 320 319 321 327 336 342 344 343 342 342 344 344 345 347 352 353 355 357 356 355 357 356 351 349 345 339
294 292 292 300 313 318 314 303 320 321 319 319 318 307 307 322 326 320 320 319 318 328 326 341 342 344 342 341 342 341 343 347 351 353 355 357 356 355 352 350 347 347 343 338
298 294 300 311 317 318 302 306 319 321 320 319 315 318 322 325 327 329 329 326 321 327 332 341 344 345 342 342 341 345 345 354 356 359 358 356 351 348 346 345 347 346 343 338
299 297 295 318 316 310 315 320 324 325 325 320 320 322 323 326 324 328 335 327 347 338 342 347 346 348 346 343 346 356 359 362 360 355 353 349 345 346 345 345 342 338 337 336
298 301 315 319 315 320 322 324 325 326 330 329 327 330 333 329 330 332 337 343 347 350 351 353 352 352 352 355 358 358 360 357 351 349 348 345 343 343 343 339 337 337 335 333
306 307 313 316 319 327 325 323 323 326 327 325 323 325 325 328 335 338 340 342 346 349 347 349 353 355 356 356 358 358 354 349 346 345 344 345 343 341 340 339 338 334 334 334
307 313 317 319 322 323 323 323 321 322 323 322 322 321 322 322 324 330 339 344 347 348 351 350 353 354 354 356 356 349 347 345 344 345 344 326 314 317 327 312 324 335 336 334
303 310 311 314 316 319 319 318 318 318 320 322 320 318 320 319 321 324 325 332 345 347 349 350 352 351 351 350 348 345 342 342 343 342 329 323 319 312 301 301 300 301 308 321
310 312 312 313 313 316 314 315 317 317 318 317 318 319 320 319 320 321 323 322 337 343 346 346 349 348 349 348 346 343 342 342 341 335 332 328 324 321 312 305 300 298 298 307
315 314 310 311 309 313 313 314 314 316 318 319 317 317 316 317 320 321 323 324 335 342 343 340 341 346 347 347 345 344 344 329 341 338 335 333 330 325 320 317 315 310 299 300
313 314 313 314 313 313 315 315 313 313 313 313 320 322 321 319 318 322 326 328 332 338 342 343 343 343 346 346 345 342 342 341 341 341 339 333 333 332 325 322 318 310 303 301
313 313 311 310 311 313 312 312 311 311 313 314 315 321 323 324 323 324 325 327 329 329 331 337 340 343 345 345 343 343 340 333 335 338 334 335 333 333 328 326 315 311 311 307
308 307 309 309 308 309 311 311 309 311 314 314 317 319 318 317 322 324 325 328 328 331 332 333 333 338 339 339 336 335 333 329 329 330 331 331 328 325 328 324 318 316 316 310
311 310 310 310 309 310 310 313 314 313 313 316 319 319 318 319 317 321 325 326 327 328 331 329 330 334 329 330 327 331 331 327 327 326 328 326 323 322 321 323 321 320 318 309
313 313 313 310 308 309 311 314 315 317 317 317 320 317 319 320 321 322 323 322 323 322 326 331 331 333 329 328 327 327 326 326 325 324 324 320 321 320 318 319 320 318 313 309
312 313 313 314 315 314 314 316 317 316 319 318 318 317 317 318 321 321 322 321 321 323 325 327 330 329 325 326 327 326 326 325 323 322 322 319 318 318 317 315 319 317 314 313
312 313 313 314 315 316 317 317 317 315 317 319 315 316 317 319 320 320 318 316 319 319 324 321 319 324 325 325 326 325 324 324 324 321 321 319 318 316 316 318 318 320 318 317
312 312 313 314 314 313 315 316 316 316 314 315 317 316 317 317 318 318 318 314 315 315 317 312 312 316 317 321 321 320 321 321 319 319 319 319 317 316 314 316 314 314 318 319
311 313 313 312 314 314 315 315 314 316 316 317 314 314 313 315 316 313 311 314 315 312 312 309 312 312 314 317 316 320 320 320 318 317 316 316 314 312 309 310 311 312 313 313
310 311 311 310 311 311 309 310 311 313 313 312 310 312 312 312 314 316 314 312 311 314 312 311 311 312 312 314 312 312 317 316 311 312 310 307 308 307 305 304 304 306 308 307
311 310 309 307 307 308 309 311 309 309 312 310 311 311 313 314 312 313 316 314 312 311 314 310 311 311 311 313 314 312 313 312 309 312 311 311 308 307 306 306 305 305 305 305
308 306 305 304 303 304 305 305 304 306 306 305 306 309 310 310 309 310 310 311 312 311 314 315 314 313 312 312 312 312 312 313 313 314 310 310 310 309 308 306 307 304 305 304
304 302 302 302 302 302 303 302 301 303 304 305 305 308 307 307 305 305 304 304 306 307 309 309 310 309 311 311 310 310 310 311 306 311 312 312 311 312 312 311 310 311 309 308

GFSNGP_sfc_thetae_012.txt.gz
Theta_e
296 300 302 301 300 301 297 298 295 298 294 298 300 302 307 311 317 317 322 324 325 329 332 336 339 341 344 348 351 354 354 355 355 356 357 357 355 354 352 354 349 347 344 345
293 300 302 300 302 303 302 301 300 297 296 301 304 305 308 313 317 317 318 324 327 330 333 336 339 340 342 346 352 354 354 354 356 357 356 356 357 356 353 352 352 347 344 343
287 297 300 296 302 302 302 302 302 296 299 302 303 305 306 309 311 315 318 325 328 331 334 336 339 341 341 345 351 353 354 356 356 355 355 355 356 356 355 352 350 349 345 344
288 291 289 298 307 306 302 304 304 303 303 305 306 308 307 312 312 314 316 319 329 332 333 337 340 342 343 344 347 351 352 354 356 355 354 355 355 355 354 355 351 350 347 346
287 288 294 301 304 303 299 299 310 305 309 306 307 306 306 313 311 313 315 318 319 328 333 333 337 341 342 343 345 347 349 352 354 355 353 354 353 354 354 354 353 352 349 345
292 289 288 296 308 313 309 304 317 316 314 314 310 302 305 317 323 315 313 315 318 319 328 339 336 340 340 341 343 344 346 349 353 354 353 352 353 353 355 355 354 349 346 344
293 294 295 309 313 314 300 300 316 317 315 314 313 311 316 320 324 324 324 320 317 314 319 331 341 338 337 339 341 345 347 348 350 353 352 353 354 355 355 352 350 347 342 337
295 294 293 307 312 304 308 320 323 325 323 324 325 327 326 325 323 325 323 325 336 318 319 325 335 339 337 337 342 344 345 345 345 350 351 355 353 352 351 347 345 343 339 336
296 298 304 307 312 322 321 319 321 322 323 324 324 324 326 328 333 336 337 338 343 341 335 342 335 341 337 339 340 340 341 345 348 351 354 353 350 348 344 343 341 337 336 332
301 305 308 317 321 321 319 320 322 322 321 322 320 321 321 322 324 326 327 328 329 334 342 344 345 342 340 340 343 345 350 353 352 349 347 347 345 345 341 339 336 335 333 333
301 306 309 314 318 319 318 320 320 320 321 320 319 318 319 319 320 322 324 324 324 322 321 321 346 351 353 353 355 353 350 349 347 344 344 332 319 331 337 331 334 334 333 333
302 307 308 308 317 319 316 315 316 316 317 318 320 318 318 317 318 321 322 323 320 319 318 321 322 334 353 354 352 348 344 344 342 331 327 324 321 314 303 302 303 309 314 326
308 310 309 313 313 315 313 314 316 315 315 314 317 318 317 315 317 319 324 324 326 326 322 322 329 325 343 347 347 346 344 341 334 330 330 329 326 320 312 305 300 299 302 306
313 312 309 311 310 314 314 315 315 316 320 320 318 316 315 317 320 321 323 325 332 332 333 336 334 334 340 341 341 341 339 324 334 332 328 328 327 323 319 319 317 311 299 300
312 313 311 313 313 312 313 313 312 313 315 316 317 319 319 317 318 323 327 329 330 332 334 338 338 339 342 341 341 339 339 337 334 332 330 327 325 323 320 318 317 308 304 302
311 311 312 311 311 310 311 310 310 311 313 314 313 312 316 321 322 324 325 327 327 327 328 331 333 335 339 341 339 338 336 330 335 334 331 330 328 324 322 318 313 310 312 309
307 306 306 307 308 310 310 311 311 310 312 313 313 315 314 312 313 317 320 323 321 324 327 328 326 329 330 329 331 329 329 330 329 334 333 333 332 328 326 319 316 314 314 308
310 309 310 310 309 310 311 313 313 314 312 314 315 315 315 317 315 313 314 318 317 316 321 327 327 328 327 327 328 330 327 328 329 328 329 329 328 328 328 322 319 315 312 305
312 312 312 310 309 311 312 313 314 315 315 318 316 316 316 316 317 318 320 318 317 316 319 324 326 324 323 327 327 328 326 325 324 323 324 321 321 322 325 323 319 317 313 308
312 313 313 313 314 312 313 314 316 314 316 316 314 315 314 314 317 318 317 316 317 319 322 323 324 324 322 324 325 325 324 323 323 321 320 321 320 319 319 315 320 317 314 311
312 313 313 313 313 315 316 314 313 312 314 312 315 315 312 313 315 314 311 312 314 313 313 315 318 317 320 323 322 323 322 321 321 320 319 318 317 318 317 315 315 315 313 312
311 311 313 312 312 312 313 313 314 313 312 309 309 315 312 310 309 308 309 309 309 310 308 307 309 315 316 320 318 320 320 320 320 320 319 318 316 315 313 314 317 317 316 314
309 309 307 308 308 308 309 310 310 308 308 309 309 306 308 312 309 305 304 310 309 309 308 308 311 312 313 313 315 318 319 319 317 316 315 314 312 309 309 310 312 312 313 315
306 302 302 303 305 307 304 305 308 308 307 308 308 307 307 309 309 312 309 308 309 309 308 311 312 311 311 313 313 311 311 311 311 313 313 307 310 307 306 307 307 308 308 310
303 299 300 300 299 300 300 303 303 303 302 306 307 306 305 306 303 303 304 305 306 310 310 310 310 310 311 311 312 312 311 310 308 308 307 305 304 303 302 302 303 304 304 305
298 297 297 297 297 298 298 298 299 300 301 302 302 303 303 303 302 302 302 302 302 305 308 308 308 308 307 308 308 309 309 309 310 310 308 307 308 310 308 306 306 302 302 302
297 297 296 297 298 298 298 299 298 297 298 298 297 298 300 300 300 299 300 300 300 301 300 300 301 303 303 305 304 306 306 305 303 307 305 305 305 304 303 303 303 304 303 301

GFSNGP_sfc_thetae_015.txt.gz
Theta_e
291 294 296 296 296 299 295 297 294 297 293 297 300 302 303 305 307 315 317 320 323 324 327 330 333 337 340 342 346 347 347 348 349 350 352 352 350 349 349 349 348 346 344 345
289 295 297 296 298 300 299 299 298 298 293 300 303 302 301 304 306 309 315 317 319 326 327 329 332 336 339 342 345 348 348 348 350 351 352 352 352 350 349 348 348 345 344 343
283 292 292 291 297 299 300 300 300 296 298 300 300 301 301 303 306 309 311 314 319 322 324 329 333 337 338 342 345 348 348 349 350 351 352 352 353 352 349 348 349 345 343 343
284 287 285 296 302 304 301 301 300 299 301 302 304 306 305 305 305 308 311 315 320 324 326 330 335 338 339 342 345 347 348 349 351 352 351 352 353 352 351 350 350 345 344 342
283 284 291 298 302 301 299 298 304 301 303 303 303 303 303 307 308 310 312 314 320 327 328 331 335 338 339 340 343 346 347 348 351 352 352 352 352 353 354 352 349 348 346 344
286 284 285 294 305 311 307 297 314 309 304 303 303 298 305 312 316 312 311 311 317 325 328 328 333 338 338 338 341 345 348 349 352 353 353 352 353 353 355 355 352 350 348 347
288 286 292 303 313 312 296 297 315 315 313 307 302 304 308 316 319 323 316 318 315 313 323 329 331 335 337 338 339 344 348 351 351 353 354 353 353 354 354 354 353 352 350 349
290 289 288 312 312 306 311 316 321 320 320 321 322 325 327 330 331 331 331 334 340 337 331 324 323 330 335 337 341 342 345 346 349 351 353 353 352 353 354 353 352 350 349 340
295 296 303 309 312 319 318 317 320 320 323 324 323 322 323 324 325 324 323 322 323 323 326 326 340 333 329 334 339 342 342 343 344 349 352 352 351 352 352 352 350 346 340 336
299 303 308 312 315 317 318 317 318 319 319 320 319 320 320 321 321 321 321 321 320 319 317 316 322 330 333 339 335 335 339 341 343 347 349 351 353 354 352 349 347 342 338 335
300 305 309 313 314 316 316 317 317 319 319 318 318 316 315 316 317 319 319 319 319 318 317 317 320 323 323 322 327 334 336 338 341 346 349 345 327 342 349 340 339 338 337 335
296 306 307 309 313 315 314 314 313 316 316 318 317 315 316 316 317 318 320 320 320 320 318 317 321 330 328 326 327 335 342 347 347 347 330 325 323 318 307 312 315 313 314 327
307 309 310 312 313 314 313 314 318 317 316 315 315 317 317 316 317 319 323 325 325 325 327 325 327 331 329 327 327 323 341 346 338 330 331 333 336 332 323 315 304 300 305 309
312 310 308 312 310 313 315 316 316 316 317 318 317 318 319 321 322 322 323 325 328 329 331 333 335 326 324 326 329 326 321 318 334 334 335 335 334 331 326 327 327 319 302 302
312 311 311 312 312 312 313 315 313 312 313 313 318 320 320 318 318 319 322 326 327 328 328 329 330 332 327 332 335 333 326 330 332 332 331 326 325 323 323 326 321 310 307 303
311 310 311 310 310 310 310 311 311 312 314 314 313 312 312 316 316 316 317 318 323 324 325 324 323 326 333 336 336 333 331 324 328 328 325 324 323 321 320 320 316 315 316 310
307 306 307 307 308 308 309 310 311 312 314 314 314 315 315 312 311 311 313 314 315 322 326 324 324 326 327 331 331 334 334 332 326 330 327 325 324 323 320 317 316 317 316 310
310 309 310 309 308 307 309 310 313 314 314 315 316 314 315 315 312 313 315 316 315 316 321 323 323 324 326 325 327 327 328 329 330 329 329 328 326 325 321 320 319 317 312 304
312 311 311 311 310 310 310 311 313 314 317 316 315 315 315 315 314 313 314 314 315 316 318 321 323 322 323 326 325 324 324 322 322 324 324 320 324 326 324 321 318 315 311 307
313 313 312 313 313 313 314 315 315 314 314 316 313 313 313 313 313 311 311 307 307 308 312 314 317 319 320 323 324 322 321 321 320 320 323 323 322 321 323 316 319 316 314 311
312 312 312 312 312 313 312 312 310 308 312 315 311 309 307 307 309 308 306 304 306 306 310 312 312 313 318 321 322 322 321 321 319 317 318 319 319 320 320 319 320 317 314 312
307 308 309 309 308 307 308 308 307 308 307 308 311 309 308 306 305 305 305 305 309 308 310 310 311 314 315 321 320 319 319 320 319 318 315 315 315 314 316 316 316 315 315 313
300 301 301 303 304 304 305 304 304 305 305 304 303 304 304 302 302 302 301 306 308 308 310 310 311 312 313 312 313 312 314 316 316 317 318 317 316 316 316 316 315 317 316 315
298 298 298 300 300 300 300 301 304 305 304 302 301 301 299 299 299 301 305 307 307 307 307 308 309 310 311 312 311 311 310 307 306 307 309 305 310 311 312 312 311 312 314 313
297 296 296 297 296 296 297 300 302 301 299 299 299 299 299 300 298 300 300 300 301 301 301 303 306 306 307 308 308 308 309 308 306 306 306 306 305 303 303 302 300 302 306 309
294 294 295 296 296 296 297 298 296 297 297 295 296 297 297 298 298 298 298 299 298 298 297 297 298 297 298 299 302 305 305 308 307 306 305 305 304 303 302 302 301 300 299 299
293 294 294 294 296 296 296 295 294 293 294 294 292 293 293 294 295 296 296 296 296 296 295 295 295 296 296 296 296 297 300 302 299 303 305 304 304 302 302 300 300 299 299 298

GFSNGP_sfc_thetae_018.txt.gz
Theta_e
289 292 293 293 294 295 292 295 292 296 296 298 300 300 303 306 306 309 312 315 320 322 324 327 331 334 336 337 341 344 344 344 344 347 348 348 350 350 350 349 349 348 348 348
287 293 293 292 295 296 296 296 295 297 294 299 303 303 303 305 306 306 310 315 320 323 325 327 331 333 336 338 341 343 344 344 346 347 348 348 348 349 350 349 350 348 347 347
282 290 290 288 294 296 297 297 297 294 299 301 300 301 302 305 305 306 307 313 318 321 324 327 330 334 335 338 342 343 343 345 347 348 348 349 350 349 348 348 349 347 347 347
283 286 282 291 298 302 298 300 300 301 301 302 304 307 306 306 307 306 307 310 314 318 323 324 329 332 336 339 341 343 343 345 347 348 348 350 350 349 349 349 348 347 347 347
282 282 289 293 301 303 301 299 302 301 302 302 304 304 305 306 305 307 308 310 313 318 321 325 327 332 336 338 341 343 344 345 347 349 349 350 350 350 351 349 348 348 348 346
283 282 282 293 305 311 308 296 312 308 303 303 302 297 302 308 312 309 312 312 315 321 327 326 330 334 336 337 340 341 345 347 349 350 350 349 351 351 352 352 350 351 348 347
284 284 288 299 309 315 296 299 315 317 317 303 301 305 311 326 330 332 335 334 318 320 320 323 332 335 335 337 338 343 346 349 350 351 351 351 352 353 353 353 352 350 348 348
285 284 283 305 310 306 310 316 317 319 319 312 315 324 328 327 326 326 328 334 336 334 335 338 334 335 335 336 341 345 347 349 349 351 352 352 352 353 353 353 352 349 348 348
290 290 298 308 307 315 317 315 316 316 318 322 323 324 326 323 322 322 321 321 322 320 323 328 337 336 334 336 340 341 343 345 349 351 352 354 353 352 352 353 351 348 346 347
293 297 302 309 314 314 315 315 316 318 319 319 319 321 319 319 319 319 320 319 320 318 318 320 324 327 328 331 340 341 337 340 344 348 349 353 354 353 352 352 350 348 347 343
292 298 305 311 313 312 315 316 316 318 317 316 316 315 316 317 318 319 320 320 321 319 318 320 324 329 331 331 329 335 341 337 340 344 344 351 352 351 352 354 349 350 348 341
290 299 302 305 311 314 313 315 315 316 316 317 317 317 320 320 321 323 324 326 328 329 329 328 328 329 328 328 328 328 335 341 338 342 345 349 331 324 307 317 310 312 315 328
301 307 309 311 313 315 314 317 319 318 318 317 318 320 322 321 322 322 325 326 327 327 330 332 332 329 325 327 329 328 326 340 343 339 339 331 335 332 323 315 305 307 310 313
307 308 308 311 310 314 316 316 317 319 320 319 319 320 320 320 321 324 324 326 327 327 328 331 332 331 331 329 332 330 327 317 336 337 335 337 335 334 331 330 327 324 309 309
305 309 311 313 314 313 315 316 314 313 314 315 316 316 316 316 315 317 320 325 327 325 324 325 328 329 333 336 335 329 327 332 332 331 331 335 335 333 331 329 327 324 313 306
309 310 311 311 312 313 313 313 313 313 314 314 311 312 312 313 313 314 316 321 324 323 324 323 324 326 330 334 334 330 328 322 325 327 326 323 325 326 327 323 319 318 321 312
307 306 309 309 310 311 311 312 313 314 314 314 314 317 317 317 317 316 317 317 317 320 322 322 322 326 327 330 332 334 331 330 324 328 326 324 323 323 324 323 322 324 321 314
310 309 309 309 310 311 311 312 313 314 314 316 318 316 314 312 311 311 313 316 317 316 317 320 323 325 326 327 327 330 329 330 330 328 327 325 324 323 322 322 323 320 314 308
312 311 311 311 310 312 314 314 314 315 316 316 314 312 312 311 309 308 308 308 308 309 310 314 320 323 325 327 327 326 326 326 326 326 327 321 324 323 322 322 320 317 313 312
311 313 313 312 311 311 310 313 315 314 313 311 310 309 307 308 308 307 308 306 306 307 310 313 316 321 323 324 324 325 325 324 324 323 323 325 326 325 322 313 318 317 314 313
307 308 307 306 306 307 308 311 310 310 311 309 307 305 304 305 307 307 307 306 309 311 312 313 314 317 321 322 323 322 321 321 320 319 319 319 321 323 323 323 320 318 316 314
302 302 303 304 303 303 304 305 304 303 303 302 301 301 301 301 305 307 306 305 308 308 310 311 312 314 314 314 313 314 316 319 317 317 315 315 316 317 317 318 317 317 316 315
300 301 300 301 302 302 303 302 301 300 299 298 299 301 300 301 302 301 299 303 304 304 305 306 308 310 311 312 311 310 310 310 310 313 315 317 319 319 319 317 317 317 315 314
296 297 298 301 300 300 298 299 299 299 300 299 298 299 298 298 297 299 299 300 300 300 300 301 302 304 306 307 309 309 307 307 308 307 307 303 306 306 305 306 311 312 317 314
295 296 296 296 296 296 297 297 297 297 296 295 296 297 297 297 296 297 298 297 298 297 297 300 301 301 300 301 304 305 307 307 306 307 306 305 304 303 303 302 301 300 302 302
291 293 295 296 295 296 296 296 294 294 294 292 292 294 294 295 295 295 295 296 295 295 294 295 297 298 299 300 301 302 303 303 305 305 304 304 304 302 302 301 300 300 299 300
290 291 291 293 293 295 294 293 292 291 292 291 290 292 292 292 292 292 293 292 292 292 292 293 293 295 297 298 298 299 299 299 297 301 304 304 303 303 302 301 300 299 298 298

GFSNGP_sfc_thetae_021.txt.gz
Theta_e
296 296 297 297 297 299 299 302 300 302 302 306 310 312 315 317 320 320 320 323 327 330 338 341 342 344 345 346 349 351 352 351 353 357 358 359 359 359 360 361 360 361 361 361
292 296 296 295 298 299 299 300 300 301 301 309 311 314 315 316 318 320 321 321 325 330 336 338 341 343 344 346 348 351 352 351 354 356 358 358 359 360 360 360 360 360 360 360
289 294 295 292 297 299 300 302 302 298 304 309 309 311 313 316 319 321 323 325 327 328 334 339 340 344 344 346 350 350 348 353 355 356 356 357 358 359 358 358 359 359 359 359
289 292 285 298 304 305 304 305 305 305 307 309 312 316 318 320 319 321 322 323 327 324 331 341 339 339 346 346 349 350 351 353 355 355 355 357 357 357 358 359 358 358 358 359
286 288 293 296 300 306 306 304 313 313 310 310 312 314 317 319 319 321 323 326 325 325 327 339 341 345 347 347 349 350 350 352 354 355 355 357 356 356 357 358 358 358 359 359
288 284 284 297 304 312 314 300 318 320 321 319 311 306 312 323 320 319 320 322 323 327 330 334 338 339 345 344 347 349 351 353 356 358 357 357 357 359 359 359 357 357 358 359
287 286 291 300 307 318 301 303 320 321 322 323 321 314 322 327 326 334 334 326 326 333 338 340 342 341 345 346 347 350 352 355 357 358 358 359 360 360 359 359 357 358 357 358
287 285 283 301 305 301 314 320 322 323 322 321 326 329 323 333 337 341 341 338 337 341 344 345 344 346 346 348 351 353 355 356 359 360 358 358 360 361 360 358 356 356 355 355
291 290 300 304 307 316 321 320 322 322 323 323 326 329 331 335 336 337 336 337 344 343 341 343 347 350 347 350 351 353 354 357 358 360 361 361 360 359 357 358 353 352 350 349
294 296 299 303 309 314 319 320 322 324 322 324 327 329 332 331 330 329 329 329 330 333 334 336 340 342 343 344 352 353 353 355 358 357 359 361 359 358 357 355 352 352 351 349
295 299 302 303 306 313 318 321 323 321 322 323 326 325 327 326 327 328 329 330 332 335 336 336 338 338 338 339 340 341 347 351 351 353 355 358 360 360 359 361 354 354 355 353
292 301 302 303 311 316 317 320 321 320 323 324 326 323 325 324 326 328 329 334 336 338 338 337 335 336 337 339 339 338 339 339 340 344 348 352 355 356 312 310 316 317 318 338
300 304 305 308 311 314 317 322 321 323 326 325 325 325 324 324 327 324 329 329 329 331 333 337 339 340 341 342 342 340 339 338 340 339 345 344 351 351 344 327 304 308 309 311
304 303 300 306 307 316 320 322 319 323 323 324 325 327 328 327 329 330 331 333 335 335 336 339 337 332 336 342 339 340 337 319 339 330 329 334 338 342 344 332 334 320 307 313
301 303 303 309 312 314 318 321 317 318 318 317 319 320 323 323 324 325 330 332 332 331 331 333 334 333 337 341 338 337 336 337 336 331 328 324 324 323 323 331 335 324 316 311
304 307 307 308 312 313 315 316 314 316 318 318 318 320 322 323 321 322 325 328 328 327 329 331 331 334 337 336 339 336 337 322 328 338 334 333 332 330 321 322 323 324 324 317
300 301 306 308 311 313 314 316 317 318 320 320 320 321 321 318 317 316 319 323 323 322 326 329 331 335 336 337 336 335 333 334 325 335 333 333 331 331 327 324 323 324 325 317
310 311 308 307 312 313 314 316 318 319 318 318 317 314 312 310 310 311 316 318 321 322 321 326 329 335 335 334 336 334 332 332 331 330 330 328 330 329 327 326 325 322 316 311
312 311 310 312 315 316 316 315 316 316 315 313 311 309 310 312 313 315 315 315 316 317 319 325 325 330 331 328 331 333 334 332 329 328 330 322 327 326 325 323 319 318 318 320
305 308 310 310 311 311 310 311 311 311 312 312 311 309 309 309 313 314 314 311 313 315 319 320 324 324 327 327 326 328 328 330 330 331 330 329 330 328 325 316 321 322 324 326
303 304 304 304 304 303 303 306 304 303 305 308 309 310 310 309 309 310 311 308 309 313 315 315 316 318 319 322 321 320 321 319 323 323 323 323 327 327 326 325 324 324 321 322
302 302 302 302 302 300 301 302 303 303 306 306 307 307 307 307 308 305 304 305 306 306 309 310 312 313 316 317 318 317 316 314 312 313 318 320 320 320 319 318 317 317 319 321
300 301 301 301 300 299 300 301 302 301 300 301 303 302 301 301 302 302 300 302 304 303 307 306 306 308 310 315 314 313 314 311 310 309 308 308 309 311 312 309 312 317 316 316
301 301 302 302 302 300 298 299 299 299 300 300 300 300 302 300 300 301 301 300 300 302 302 304 306 306 307 307 309 312 311 313 313 312 311 304 308 309 311 310 306 303 305 304
300 300 301 301 300 299 299 299 299 299 298 299 299 299 300 300 299 299 299 299 298 300 300 301 303 305 306 305 306 305 305 308 309 311 311 310 309 308 308 306 304 306 304 303
298 298 298 298 298 300 299 299 296 297 297 295 296 296 297 297 297 297 297 297 297 297 298 298 299 301 302 302 303 303 303 302 305 305 305 306 306 305 305 306 306 306 305 305
296 295 299 298 297 296 296 296 295 294 295 295 293 295 295 295 295 295 295 294 294 294 295 296 296 296 298 299 299 300 301 301 297 301 302 303 304 303 304 303 302 302 305 306

GFSNGP_sfc_thetae_024.txt.gz
Theta_e
306 303 303 306 305 307 306 307 304 307 307 311 314 315 317 319 321 321 323 325 329 334 339 344 346 352 356 353 354 354 358 355 361 366 368 368 368 369 370 371 370 371 370 371
300 302 301 301 304 305 307 308 308 308 308 315 317 317 317 318 319 320 321 322 324 328 336 339 344 347 349 355 353 356 360 359 363 366 368 368 369 369 370 370 370 370 369 369
297 301 301 297 302 304 305 307 307 304 310 315 314 315 316 317 318 319 322 324 326 329 332 337 338 345 347 352 354 357 359 362 364 366 367 368 369 370 368 369 370 369 369 369
296 299 291 303 310 308 306 307 309 310 311 314 315 317 319 320 320 321 322 324 327 327 329 332 336 336 347 350 358 358 361 362 365 364 365 366 368 367 368 368 367 367 368 369
292 293 299 301 303 304 305 306 311 311 313 314 316 317 317 320 322 324 326 327 328 329 330 338 335 339 343 349 352 355 360 361 363 363 363 364 366 366 368 367 367 367 368 369
294 289 290 301 306 312 310 303 313 317 318 320 324 314 315 322 322 324 326 327 328 329 331 332 337 339 343 346 349 352 358 358 364 365 365 364 366 367 369 368 366 362 365 368
291 290 296 304 309 316 300 309 321 322 323 325 324 326 332 336 333 332 332 332 334 333 332 337 342 342 343 347 348 354 356 356 361 366 366 367 369 369 367 366 364 366 365 367
291 289 288 304 304 302 313 320 320 322 325 326 329 332 334 336 337 334 334 337 341 335 336 344 349 349 347 355 355 358 359 357 363 366 362 360 369 369 367 366 365 365 364 363
294 294 303 305 306 310 311 313 319 319 321 325 327 330 335 337 337 337 340 343 345 341 346 349 353 354 353 356 357 357 358 359 360 362 362 366 367 365 360 365 358 359 357 357
295 298 301 304 307 309 311 312 315 320 321 325 325 330 334 338 338 340 340 342 345 346 344 348 355 358 359 359 359 359 359 360 361 361 360 362 359 360 359 357 357 356 356 357
297 300 302 304 306 309 310 315 318 320 323 326 327 327 336 337 337 339 338 340 342 343 343 344 346 346 346 348 350 356 358 358 360 359 360 360 363 359 358 364 354 358 357 357
294 301 301 303 308 311 312 313 317 319 322 328 326 328 330 330 333 336 338 340 341 342 342 342 343 345 348 350 350 347 346 343 345 347 349 353 355 358 314 319 311 307 308 333
301 306 306 308 309 311 311 313 315 320 326 325 327 328 329 330 333 328 335 335 336 337 341 345 340 337 341 349 348 347 346 348 347 341 349 347 347 349 348 337 310 309 305 305
304 304 303 306 306 310 313 316 318 323 325 324 329 329 329 331 333 335 337 339 341 342 342 343 338 336 342 346 347 346 344 323 342 342 344 347 348 346 345 344 344 347 322 309
301 302 303 306 308 308 313 319 319 319 318 318 329 330 329 330 331 332 335 336 337 337 337 338 339 340 340 346 345 343 342 341 340 337 335 331 338 337 336 336 334 335 324 314
301 301 303 306 308 309 312 315 309 316 318 320 322 326 329 330 330 330 330 332 330 330 333 335 338 339 343 341 343 341 340 325 328 339 339 339 338 337 333 334 333 330 324 319
299 298 302 307 310 311 311 310 313 316 319 321 321 320 320 320 324 325 327 329 330 331 333 331 335 338 339 342 340 338 338 335 326 334 333 334 336 335 335 332 329 332 331 320
305 306 309 312 311 311 312 317 318 317 318 318 316 318 320 321 321 319 323 326 327 326 328 331 334 336 336 339 339 339 336 332 332 332 333 332 331 331 333 332 333 332 332 323
309 308 311 311 310 311 310 310 312 313 314 315 314 315 316 317 318 319 322 322 322 321 321 327 325 329 330 329 333 335 335 336 332 333 334 326 329 328 326 324 322 321 324 320
305 306 304 303 304 305 305 307 309 309 312 311 311 311 313 317 318 317 316 315 316 317 319 321 327 326 328 326 325 329 330 330 329 330 329 331 332 330 329 320 323 323 323 323
302 303 302 302 302 304 305 309 309 307 310 311 309 306 304 306 310 314 312 308 312 316 315 317 319 322 322 324 325 324 323 324 325 325 325 325 325 324 324 324 324 323 324 324
302 302 302 302 301 300 301 302 303 307 307 306 306 306 308 309 309 306 308 308 309 308 312 312 314 313 318 319 321 320 320 318 317 316 313 315 316 313 315 315 316 314 315 317
304 304 305 306 303 302 302 302 301 302 302 302 306 304 304 304 304 301 300 305 306 305 310 308 307 310 311 316 318 318 319 317 316 313 312 312 311 312 310 307 309 308 307 307
305 305 303 304 305 305 303 304 304 303 303 304 303 303 303 302 301 303 303 302 302 305 303 305 307 307 308 312 311 313 313 315 316 316 316 307 314 313 312 313 311 306 305 303
305 306 306 305 304 303 303 303 302 302 301 301 302 302 302 301 299 299 301 302 300 302 303 302 304 305 307 308 309 308 308 309 308 312 313 313 313 312 313 313 312 312 312 309
302 303 303 303 303 303 303 302 300 300 300 299 299 300 300 300 300 299 299 298 300 300 301 301 300 303 304 304 305 306 307 306 307 307 307 308 308 307 307 307 309 310 311 312
299 297 302 301 301 301 300 300 299 298 298 298 297 298 298 298 298 297 296 298 297 298 298 298 299 298 300 301 302 303 303 304 299 305 306 306 306 306 306 306 304 302 301 302

GFSNGP_sfc_thetae_027.txt.gz
Theta_e
309 311 311 308 307 308 307 309 305 309 310 314 316 318 320 322 324 324 327 329 331 333 338 343 350 357 359 355 359 359 361 361 363 369 372 373 372 373 373 373 373 374 373 373
306 309 307 306 310 309 309 309 310 310 311 318 320 320 320 320 321 321 322 325 328 331 334 340 343 351 356 360 358 359 363 361 365 369 371 372 374 373 374 373 373 373 373 371
301 307 306 301 307 309 310 312 311 307 313 318 317 317 318 320 321 321 322 324 326 328 329 336 340 345 348 358 360 360 362 365 365 369 370 372 374 374 372 372 374 373 372 372
300 304 295 307 313 312 310 312 314 314 316 317 318 320 321 322 322 323 324 325 327 327 329 333 333 334 346 347 362 363 364 363 367 367 370 372 372 372 373 373 371 372 372 373
297 299 303 306 310 309 308 308 314 313 315 316 317 318 319 322 323 324 325 327 328 329 330 338 334 336 339 346 356 362 362 365 365 368 369 370 370 371 372 372 371 370 372 372
298 295 296 306 310 312 313 304 315 315 315 316 318 313 319 333 335 333 329 331 331 330 331 332 337 335 336 338 348 359 362 365 368 370 369 370 371 372 373 373 371 369 370 372
294 294 300 309 313 314 302 311 323 318 319 321 320 326 334 337 337 339 339 339 338 340 339 338 340 338 346 346 347 356 359 364 369 371 371 372 372 373 373 372 369 370 370 371
294 293 292 309 308 305 311 316 318 321 321 321 326 329 331 334 338 340 340 339 336 338 342 342 341 345 353 356 360 366 366 365 369 371 366 365 373 373 373 372 370 368 369 367
296 297 307 309 308 311 312 312 315 317 320 321 321 325 329 332 339 341 341 343 344 344 345 347 354 355 354 367 365 367 368 370 371 372 370 371 371 372 366 369 362 362 360 361
298 301 303 306 309 310 310 311 313 315 317 321 321 326 328 333 340 341 342 343 344 346 347 351 359 359 360 363 362 361 363 367 367 366 366 368 362 363 361 359 359 359 357 359
298 301 303 305 307 308 309 311 312 316 320 320 322 325 330 333 341 342 342 342 346 348 348 349 352 352 353 355 361 360 362 362 363 361 362 365 366 360 360 365 354 358 358 358
295 303 303 305 308 309 308 310 314 316 316 319 322 326 332 333 338 341 341 344 346 347 347 347 349 349 352 354 354 353 357 357 356 357 359 359 359 361 332 329 320 312 307 326
301 305 305 308 309 310 309 312 313 314 315 315 321 329 333 333 336 332 336 338 341 344 343 343 340 343 350 352 352 351 351 351 347 339 345 347 349 350 349 338 314 313 307 304
305 304 304 306 306 311 311 311 312 313 314 315 322 330 330 330 333 335 337 343 345 342 343 343 341 344 349 350 352 351 347 323 346 345 347 347 347 347 346 342 340 341 317 312
305 306 305 308 308 310 311 312 312 314 317 321 326 327 329 328 332 335 339 340 339 338 339 340 340 343 347 346 347 344 343 343 343 341 338 335 343 344 342 340 338 336 336 321
304 304 304 306 307 308 309 311 310 312 319 319 324 324 329 330 330 330 332 335 334 332 336 337 339 342 344 345 345 343 340 329 331 341 340 341 341 340 338 336 335 335 332 330
298 298 299 300 305 307 308 312 311 318 316 319 320 322 326 325 325 327 328 332 334 333 334 337 339 343 344 343 341 339 338 338 328 339 337 337 337 337 337 336 335 333 332 324
302 303 304 305 307 309 312 316 317 315 316 320 319 320 320 319 320 322 324 327 329 329 330 333 336 338 338 340 339 340 338 336 335 333 333 334 333 333 332 331 331 330 330 329
307 306 308 310 313 313 311 312 310 309 310 315 315 314 315 316 316 315 316 316 319 322 325 331 326 330 331 329 332 334 335 332 332 331 333 328 332 331 329 327 326 326 326 328
303 303 303 305 307 307 307 308 309 308 307 305 306 307 307 311 312 312 311 311 317 317 321 323 328 329 328 328 326 330 330 328 327 327 326 327 326 326 326 318 323 323 323 324
303 302 302 302 302 304 306 306 306 304 304 305 306 303 303 303 305 307 307 306 310 312 315 317 319 323 324 325 324 324 325 324 324 325 323 321 322 321 321 320 319 315 314 314
307 305 303 302 301 301 304 305 306 308 307 305 304 303 303 304 305 304 306 305 306 307 311 311 312 312 319 321 322 322 321 320 320 320 318 317 316 316 315 314 314 311 311 310
305 306 306 304 304 304 304 305 304 303 304 306 306 306 304 303 304 303 301 305 305 303 307 308 307 309 312 317 318 319 319 320 318 317 315 313 313 314 311 310 310 308 309 307
305 307 306 307 306 304 304 304 304 305 305 304 303 304 303 301 301 303 303 302 301 303 301 303 304 307 308 311 312 312 312 314 314 315 316 308 316 316 316 315 314 314 314 311
304 305 306 305 304 303 305 305 303 304 304 303 303 304 303 303 300 300 301 302 300 302 303 302 303 305 305 307 308 309 309 309 309 312 312 311 311 310 310 310 310 310 312 312
301 302 303 304 303 303 304 304 301 302 302 300 301 302 302 302 301 301 301 300 300 299 299 300 299 302 301 302 304 305 306 305 307 308 308 309 309 309 308 307 306 306 306 306
301 298 302 302 302 302 301 301 300 299 299 301 300 301 300 300 299 299 298 300 300 300 300 299 299 298 300 301 301 302 302 303 298 303 306 306 307 307 307 308 308 307 306 304

GFSNGP_sfc_thetae_030.txt.gz
Theta_e
307 310 311 308 307 308 307 309 305 308 309 314 318 320 323 325 329 330 333 336 340 341 343 347 350 353 355 355 355 357 356 361 362 364 366 366 365 366 367 365 366 365 366 366
305 309 309 307 308 308 308 308 309 310 310 317 322 324 324 325 325 326 328 331 336 341 345 349 355 355 355 356 358 358 357 357 361 363 364 367 366 366 367 366 366 367 366 365
300 307 307 304 309 309 309 311 310 308 314 319 319 321 322 323 323 324 323 325 331 337 342 346 348 360 356 357 359 361 360 361 361 363 363 365 367 367 365 366 367 366 366 367
299 304 295 308 314 313 311 311 313 314 317 321 322 324 324 324 323 324 325 330 336 328 335 342 338 341 352 359 362 360 363 363 366 365 363 365 365 366 367 367 367 366 366 367
297 298 304 308 311 311 309 310 315 315 317 318 319 320 321 323 323 325 330 332 333 330 333 345 340 343 346 347 359 359 358 361 362 367 365 365 365 366 367 367 367 367 367 367
298 295 295 306 312 315 315 305 321 317 315 316 317 310 323 335 336 336 338 341 343 342 342 341 355 345 350 347 354 356 358 359 365 363 365 364 366 367 369 369 367 368 367 368
295 295 302 308 312 315 303 307 320 322 320 319 320 327 331 332 335 338 341 343 345 346 344 355 355 350 356 357 351 357 360 363 365 368 365 366 368 369 369 369 368 367 367 368
295 294 292 308 310 306 313 315 316 318 320 321 322 325 328 329 332 337 341 342 341 345 347 352 357 357 355 361 369 370 369 364 367 370 365 366 369 370 369 368 366 365 366 365
297 298 312 310 309 311 312 312 312 314 315 317 320 322 326 330 333 341 345 346 345 347 353 361 363 367 365 372 375 374 377 371 369 372 369 368 369 367 366 367 365 364 363 362
298 302 304 306 308 310 311 310 312 312 313 319 319 321 323 329 332 339 345 345 343 347 352 360 366 367 370 373 376 374 377 376 374 372 368 369 367 367 365 363 363 362 360 360
298 302 304 305 307 308 309 310 310 312 313 317 317 318 321 327 332 335 342 347 351 352 353 352 355 355 357 360 365 367 370 370 372 367 367 368 367 363 365 365 356 361 361 360
294 303 305 307 308 309 308 308 310 310 312 316 316 318 321 329 334 336 338 343 346 350 349 349 350 350 355 357 361 365 366 363 361 360 363 362 363 363 335 326 317 305 306 327
298 303 305 307 308 309 309 311 311 311 313 313 315 315 318 326 333 331 337 340 342 346 343 345 345 348 351 354 357 359 359 364 351 350 356 362 362 363 359 327 309 307 303 302
303 303 302 305 305 309 310 312 313 313 313 313 313 317 317 325 330 334 338 340 343 343 342 342 343 346 351 354 356 354 351 325 350 350 350 348 346 346 346 345 347 342 319 313
298 301 302 306 307 309 311 311 310 310 311 313 315 321 322 325 328 332 339 338 339 340 340 342 341 343 350 350 348 345 350 345 345 342 342 340 347 348 342 343 341 340 339 324
298 299 301 302 305 308 308 309 308 308 310 312 313 318 321 326 328 331 335 334 334 332 335 338 342 344 350 348 347 341 339 329 333 344 342 345 344 342 340 341 339 337 335 330
297 299 300 304 305 307 307 309 309 309 311 313 316 322 324 326 328 327 327 329 328 329 329 332 336 341 347 346 343 340 338 339 333 338 337 337 337 336 336 335 335 334 332 324
305 305 306 306 306 306 307 310 310 313 314 318 319 319 322 321 321 318 324 324 324 325 326 330 334 334 334 336 340 339 338 335 335 334 334 332 330 328 328 327 326 326 326 324
303 305 306 307 309 308 310 308 309 309 309 309 310 308 310 311 310 311 311 310 311 312 316 329 326 327 328 328 331 332 332 330 330 329 327 325 328 328 326 324 321 319 319 322
302 302 303 303 305 306 306 307 307 305 306 305 304 302 303 306 307 306 306 304 306 308 310 313 316 327 327 327 327 329 328 327 325 324 323 323 322 322 320 313 316 315 315 314
302 302 302 301 302 302 304 305 305 302 303 304 302 301 300 301 302 303 301 301 304 308 307 308 310 314 323 324 324 323 323 323 321 320 319 319 318 317 317 315 315 314 313 312
305 304 303 302 302 301 302 301 304 304 303 303 303 303 303 301 302 302 302 300 303 306 305 305 306 312 318 319 318 318 318 318 318 318 317 316 314 313 313 313 312 311 310 309
305 305 304 304 303 303 302 302 302 301 300 301 302 303 302 302 302 299 297 302 303 303 304 302 307 309 312 313 314 314 316 317 316 316 315 316 316 315 313 313 313 313 312 311
306 305 307 305 304 303 302 303 304 304 303 302 302 302 302 300 299 300 301 302 302 302 300 301 305 307 308 310 310 309 309 312 313 313 312 306 312 312 311 310 311 311 310 309
304 305 305 304 304 303 304 305 303 302 303 303 304 303 302 302 300 299 301 300 300 301 300 301 304 305 305 306 306 306 306 306 308 310 310 310 309 308 307 306 305 305 306 306
302 301 302 305 302 301 301 301 299 299 300 300 300 300 300 300 300 300 301 301 300 300 299 299 300 301 302 302 302 303 303 301 303 305 306 307 308 307 307 306 306 305 304 303
301 299 301 301 301 300 300 299 298 297 297 299 298 299 299 298 299 298 299 299 299 300 300 300 299 300 300 300 301 301 302 302 298 302 302 303 304 304 305 306 306 305 304 303

GFSNGP_sfc_thetae_033.txt.gz
Theta_e
301 303 305 305 304 304 301 300 298 299 301 305 309 313 317 319 320 322 323 329 334 337 340 342 342 342 343 345 347 350 355 356 357 358 358 359 358 359 358 353 356 357 359 356
298 304 304 303 305 306 304 304 303 303 301 310 314 317 316 317 318 316 321 327 330 335 339 342 343 343 344 345 346 349 352 355 358 358 358 358 358 358 359 358 354 357 357 357
292 302 304 298 305 305 305 306 305 300 304 312 313 314 314 315 316 315 316 318 322 327 331 338 344 346 346 346 348 348 349 352 355 357 357 358 358 358 357 358 359 356 355 358
293 298 291 302 309 311 307 307 308 307 313 313 315 319 318 316 315 316 318 321 321 320 321 326 336 348 348 349 349 348 348 350 352 356 357 357 358 357 358 358 358 359 358 357
291 293 298 304 307 305 304 306 314 315 315 317 323 326 325 330 331 329 330 331 332 332 333 329 328 333 350 350 351 351 349 351 352 355 355 356 356 358 359 359 359 359 360 360
292 291 292 297 305 312 311 301 313 316 317 315 322 315 318 327 331 333 334 334 333 334 333 337 336 335 337 346 348 348 350 354 358 356 357 355 357 358 360 361 360 361 360 362
291 292 297 303 307 313 300 301 311 311 314 317 317 320 322 327 329 335 336 336 334 334 331 333 336 334 332 337 343 351 351 351 354 357 358 359 358 359 360 360 360 360 360 362
292 291 290 304 304 301 306 307 308 309 310 315 317 321 325 327 330 334 339 338 339 337 337 332 336 333 333 340 345 347 351 351 353 355 357 359 358 360 361 361 360 360 359 360
293 295 301 305 303 306 307 306 306 306 308 314 314 315 319 325 326 329 337 341 344 342 341 353 354 351 345 349 353 351 355 351 354 356 358 356 358 359 360 360 360 359 359 358
294 298 299 302 306 306 307 306 306 306 308 313 311 313 313 315 326 328 331 334 340 344 345 347 348 349 348 350 352 355 351 357 356 359 357 357 361 361 360 359 358 357 356 356
292 298 300 302 305 306 306 308 309 308 308 311 312 311 311 311 325 327 327 330 335 337 342 343 346 345 348 349 350 349 353 358 358 358 357 358 356 356 358 351 351 357 357 355
288 295 296 298 302 305 305 306 308 309 310 310 312 309 310 308 322 326 327 329 330 335 339 341 341 341 342 347 347 347 353 354 353 353 356 356 356 340 312 313 310 307 310 321
293 297 298 299 302 305 306 307 308 309 309 309 310 309 309 308 319 325 328 330 331 335 337 338 338 339 341 344 345 344 345 347 346 343 351 351 354 347 325 316 304 303 304 308
297 296 294 298 298 305 306 307 310 310 309 310 310 311 314 317 322 325 327 331 334 338 339 337 337 337 344 345 342 339 340 327 338 339 336 337 339 345 333 331 331 322 307 310
301 299 297 298 300 302 305 306 307 307 307 307 309 310 311 316 317 323 328 331 335 338 337 337 335 336 342 342 336 333 333 333 333 333 335 335 337 334 335 333 331 328 324 316
300 301 299 297 298 301 303 304 304 304 306 306 306 308 315 317 318 324 328 332 331 331 333 332 333 337 341 337 335 334 333 327 331 335 333 333 333 332 331 330 327 325 322 321
300 295 296 297 298 301 302 306 306 306 306 306 306 310 314 316 317 323 327 326 323 320 325 328 328 329 334 337 334 333 331 332 328 329 327 327 326 325 324 324 324 324 321 316
303 304 303 305 304 304 305 307 309 309 309 311 311 313 313 315 314 309 310 313 312 309 308 314 323 324 328 334 331 329 328 328 329 328 325 324 323 323 320 318 317 318 318 317
301 301 301 301 305 308 307 307 307 306 305 307 308 307 307 306 306 306 306 305 304 304 305 309 316 326 328 329 328 325 326 325 325 324 324 320 319 319 317 315 314 313 313 313
299 300 301 301 301 302 303 304 304 302 302 302 302 301 301 303 305 305 304 302 303 304 307 309 315 320 326 328 326 324 321 320 319 319 319 318 316 315 313 308 311 311 310 310
300 300 299 299 300 301 301 303 302 301 302 303 301 300 299 300 300 301 300 299 302 304 306 310 312 315 316 318 321 319 316 316 316 315 314 314 312 310 309 309 308 308 307 307
302 301 300 300 299 299 300 300 300 300 301 299 300 300 299 298 299 299 300 299 300 302 303 306 309 313 313 316 315 314 314 313 312 312 311 310 309 308 307 307 307 306 304 303
303 303 302 300 300 299 300 300 300 300 299 299 299 299 298 298 298 296 295 301 300 300 300 302 308 310 311 309 308 309 312 312 311 310 311 311 309 307 307 306 305 305 305 304
301 303 302 303 302 299 298 301 301 300 300 300 300 301 299 298 298 299 299 300 301 300 299 302 305 307 306 306 305 303 303 308 310 309 307 303 305 304 303 302 301 301 300 298
302 302 301 300 300 300 299 299 298 299 299 300 297 297 298 299 296 297 298 298 300 298 297 302 304 303 301 301 300 298 299 300 303 305 305 303 303 303 302 301 300 300 299 298
301 300 300 299 298 298 297 296 294 294 296 295 296 296 296 297 296 297 298 299 297 298 296 296 298 298 298 299 299 298 298 298 300 300 301 300 300 301 301 300 300 299 298 297
299 298 298 297 299 297 297 295 294 293 295 295 295 296 296 297 297 297 298 296 297 297 297 296 297 297 297 298 298 298 298 298 296 299 299 299 298 298 299 300 298 297 297 294

GFSNGP_sfc_thetae_036.txt.gz
Theta_e
290 294 297 297 300 302 297 298 295 297 297 300 304 309 308 310 312 320 329 332 334 335 336 338 338 339 342 345 348 352 352 351 351 351 353 354 353 351 350 351 353 348 350 352
287 299 301 299 303 303 301 301 298 297 298 302 308 312 312 314 318 321 329 333 336 337 338 338 338 339 341 343 346 351 351 351 353 354 353 353 354 354 352 351 350 353 352 354
284 296 301 296 300 302 302 302 302 296 300 308 311 317 318 310 314 317 326 334 336 337 338 340 340 340 340 342 345 349 351 352 353 354 354 354 355 355 355 354 353 349 350 353
285 292 289 297 303 305 306 306 306 310 310 316 322 324 325 327 319 322 324 323 321 330 335 339 341 341 341 343 343 344 346 351 352 354 354 355 355 355 355 355 356 354 351 351
285 289 295 297 299 300 299 301 305 306 317 322 323 324 322 326 330 327 326 327 328 330 326 327 342 344 343 342 343 343 344 345 351 354 355 355 354 355 355 356 355 355 357 355
285 287 288 294 301 309 308 295 305 309 316 318 315 313 315 325 334 336 331 328 328 327 330 331 329 337 344 343 343 342 344 346 348 352 354 354 355 355 357 356 356 357 356 357
289 291 293 299 302 308 294 297 306 307 309 312 315 317 320 326 328 336 338 336 336 338 334 328 329 332 335 339 344 347 348 347 349 349 352 355 355 356 356 357 357 356 356 357
291 288 288 303 302 294 299 304 304 307 309 308 308 311 318 325 326 328 333 338 343 347 346 348 343 337 341 341 344 344 346 348 350 353 352 353 353 354 355 355 355 355 355 357
290 292 300 305 302 304 304 303 305 305 307 308 308 307 309 321 323 324 327 331 336 341 342 345 345 345 342 344 348 348 346 345 347 350 353 355 355 353 353 355 355 354 355 355
290 295 296 302 304 303 303 304 307 307 304 308 306 307 306 309 322 323 325 327 332 334 340 339 342 343 343 344 346 346 346 348 347 348 349 352 355 357 356 356 356 356 356 356
288 291 296 300 300 301 301 304 307 308 308 308 306 305 305 305 310 323 325 327 329 331 334 337 338 338 339 342 343 343 344 350 351 350 349 351 334 333 353 356 352 357 358 358
286 292 290 293 299 300 300 301 307 306 306 307 307 305 310 310 311 322 324 326 329 330 334 335 336 337 338 340 342 341 341 348 350 351 352 352 335 322 308 305 305 307 310 320
293 297 296 296 298 300 299 302 307 306 306 306 308 308 311 313 318 320 323 323 324 327 332 333 333 334 337 340 339 337 338 334 345 344 351 350 332 327 321 318 306 301 302 304
302 299 297 298 296 300 302 305 307 307 309 308 308 309 310 312 313 317 321 323 327 329 332 332 332 332 337 337 334 334 334 325 339 338 342 347 333 327 325 323 322 321 311 306
301 302 300 300 301 299 300 302 304 306 307 307 308 307 312 310 310 315 320 324 328 331 332 333 332 331 335 335 331 330 332 335 335 335 334 333 337 333 333 327 324 323 322 315
301 302 299 299 300 299 298 299 300 301 305 306 306 306 307 311 312 315 320 320 318 318 321 325 324 325 329 332 330 329 329 324 326 329 328 328 330 330 328 325 323 322 320 318
296 296 298 298 297 297 299 300 301 303 306 307 309 312 311 312 311 312 313 312 309 307 308 310 314 321 325 332 329 328 328 326 323 324 324 322 323 323 323 323 321 319 315 310
299 299 300 302 304 300 302 305 304 304 305 308 306 306 306 308 303 303 304 307 307 308 308 308 312 322 331 328 326 327 327 325 323 322 321 319 317 318 317 315 314 313 313 311
299 298 299 299 301 303 302 301 301 302 303 304 304 304 305 303 303 302 302 304 303 303 305 311 319 324 327 326 326 326 324 322 320 317 316 315 315 313 312 311 310 310 309 309
299 299 299 298 299 299 299 301 301 300 301 301 300 299 299 300 303 303 302 299 300 303 308 311 314 317 324 324 323 321 320 318 317 315 314 311 310 309 308 305 308 307 307 306
299 299 298 298 297 298 299 299 299 298 299 299 298 297 298 299 299 301 301 299 300 303 310 312 310 311 315 318 318 318 317 315 314 312 310 308 307 306 305 304 303 303 303 302
300 299 298 298 297 297 298 298 298 298 298 297 298 298 297 296 298 298 299 298 300 303 307 309 309 310 310 312 313 313 313 312 311 310 309 308 307 306 305 303 302 301 300 300
300 299 299 299 298 298 299 299 298 297 296 297 295 295 296 297 297 295 294 298 300 302 304 307 307 307 305 303 305 311 310 310 310 308 306 306 306 304 302 300 300 298 296 295
299 299 300 301 300 299 297 298 299 299 299 299 298 299 297 294 296 299 300 300 301 300 303 304 305 305 303 301 301 302 307 307 306 304 303 301 301 300 300 300 298 297 297 296
297 296 298 297 296 295 295 293 293 294 296 294 296 297 297 298 297 298 299 299 300 300 299 303 304 302 299 299 298 299 300 301 301 300 301 301 300 299 298 298 298 297 296 295
294 294 293 292 292 292 292 292 291 293 294 293 293 294 296 296 296 296 297 298 296 297 298 299 299 299 299 298 298 298 298 299 298 297 296 296 297 299 299 299 298 296 294 293
291 294 292 291 291 292 291 292 291 291 292 292 292 294 295 295 295 294 296 295 295 295 295 296 296 298 297 297 297 297 297 296 295 296 295 294 294 294 296 297 295 294 291 291

GFSNGP_sfc_thetae_039.txt.gz
Theta_e
286 288 288 289 290 294 293 296 294 294 293 299 301 301 307 310 308 309 322 329 331 331 331 334 336 337 340 345 347 347 347 348 348 350 350 349 347 347 350 351 347 347 347 350
283 290 289 289 296 299 299 297 295 295 296 299 305 315 319 311 308 314 323 327 329 332 333 334 335 336 339 343 348 349 348 347 349 348 350 350 349 348 346 349 351 349 345 347
279 291 295 292 295 299 300 300 298 294 298 306 314 319 321 323 312 313 321 326 328 332 334 335 336 337 338 342 346 349 348 348 349 349 348 349 350 350 348 346 347 349 350 348
279 288 289 294 300 301 302 301 303 305 309 315 320 322 325 326 327 320 321 327 331 334 335 336 338 338 338 342 343 347 348 348 349 350 349 349 350 350 351 350 348 347 347 348
279 286 294 296 298 297 295 297 303 304 311 320 324 325 324 326 332 327 322 323 328 335 336 337 338 339 338 340 341 344 346 348 350 351 350 351 350 350 352 352 352 352 351 348
281 288 286 294 300 302 304 292 302 306 305 316 321 315 319 323 328 334 338 333 326 329 333 336 337 338 338 338 339 339 344 347 350 352 352 351 353 353 353 354 353 354 354 355
284 290 292 298 301 303 289 292 302 305 306 305 309 316 322 322 323 330 336 343 343 335 328 326 332 340 338 339 338 341 342 343 346 351 352 354 353 354 354 353 354 353 353 354
291 289 287 301 300 292 295 302 303 305 307 306 307 309 316 321 321 325 329 334 341 341 341 343 342 339 337 342 345 342 341 341 343 345 351 352 353 354 353 353 352 352 352 352
289 290 299 304 302 301 301 299 301 305 306 308 307 309 310 313 320 324 327 330 336 339 339 341 342 341 340 340 345 343 343 343 343 345 346 348 351 351 352 352 352 351 352 351
289 292 294 300 302 300 300 300 301 305 307 307 306 309 312 313 320 322 326 328 332 335 335 334 336 338 339 340 342 343 343 344 343 345 347 348 350 350 350 351 350 351 350 351
289 292 296 299 298 299 300 301 302 302 306 307 310 313 316 316 318 319 320 324 328 330 333 333 334 335 337 340 341 340 341 344 347 345 341 341 321 324 344 348 344 353 353 354
287 293 293 294 298 300 299 300 301 301 305 307 309 310 314 314 315 317 317 319 323 325 328 331 332 333 335 337 338 337 337 337 340 346 345 335 322 319 305 302 302 305 312 326
294 298 298 299 299 301 300 301 303 303 306 306 308 309 313 309 309 313 313 317 321 325 326 330 330 330 335 335 334 332 333 334 332 340 348 334 325 326 322 316 305 300 300 301
301 301 299 300 298 301 302 302 303 304 307 308 307 307 312 309 308 310 314 318 323 327 330 330 330 330 332 332 330 329 328 317 334 337 347 334 327 324 326 325 322 319 307 304
299 300 300 301 299 299 301 301 300 304 307 307 308 307 307 309 310 310 316 318 320 322 322 328 327 325 326 330 329 329 329 329 330 332 337 328 329 326 324 324 323 322 322 314
298 299 299 299 300 301 301 300 299 299 303 306 307 307 310 310 310 314 314 311 312 313 311 313 317 318 321 328 327 325 324 321 324 329 332 334 330 326 324 322 321 319 318 318
295 294 295 298 302 297 298 298 298 299 305 307 308 311 311 311 310 310 309 310 308 307 306 307 310 313 318 328 326 323 322 322 321 323 324 326 325 324 322 319 316 314 312 308
298 298 297 297 298 300 301 302 303 303 304 307 306 306 306 306 306 303 305 303 306 308 307 307 310 315 325 326 325 323 322 321 320 319 320 319 318 317 316 314 313 312 310 308
297 297 298 297 298 298 298 298 299 300 301 302 302 301 303 304 304 304 304 302 303 305 308 307 314 322 322 325 324 322 320 318 316 315 315 312 313 312 311 310 308 308 307 306
297 298 297 297 298 297 296 298 298 297 299 299 298 298 298 299 300 302 302 300 300 301 304 310 313 316 316 321 322 321 319 316 314 312 311 310 309 308 307 304 306 305 304 303
296 297 296 295 295 296 297 297 296 295 296 296 296 296 296 297 298 299 297 299 300 304 307 312 312 314 314 318 317 316 314 313 311 310 308 306 306 305 303 302 301 300 299 298
296 296 296 297 296 294 296 296 296 295 295 295 295 294 294 295 296 297 299 297 299 304 307 307 310 314 315 315 313 312 311 310 309 307 304 303 302 300 299 298 297 296 295 295
296 295 296 296 295 296 297 296 296 296 295 295 295 294 293 294 294 294 294 299 300 302 304 303 305 307 311 312 311 310 309 308 308 308 307 306 304 302 299 296 294 293 292 291
296 296 296 298 297 296 296 297 298 298 298 296 296 297 295 294 294 297 299 300 301 301 301 302 302 304 305 307 308 307 306 305 303 303 302 300 301 299 298 296 295 295 294 293
292 293 294 294 294 293 291 291 291 295 296 295 296 297 298 299 296 298 299 299 300 300 300 301 303 302 300 300 300 299 300 300 301 302 302 301 300 299 299 297 296 294 292 291
288 288 288 290 291 289 289 289 289 291 291 291 293 295 297 296 298 298 299 299 299 300 300 300 300 299 298 297 297 297 296 296 296 297 298 299 298 297 296 295 292 290 289 289
288 290 287 288 288 288 289 290 289 289 290 290 291 292 294 294 294 297 298 298 297 296 297 297 297 298 298 297 297 296 296 295 294 295 295 295 295 295 295 294 293 291 289 289

GFSNGP_sfc_thetae_042.txt.gz
Theta_e
287 287 288 287 287 290 289 292 294 295 297 301 303 303 302 305 307 308 314 324 328 330 332 334 336 337 340 341 342 342 343 345 344 346 348 348 350 351 350 347 347 348 349 349
283 287 287 286 290 291 292 294 294 295 294 304 302 312 320 321 321 313 311 314 326 331 333 333 335 336 339 341 342 343 342 344 346 347 347 347 347 347 351 351 349 348 348 348
277 287 288 285 291 296 299 300 298 293 299 308 310 320 320 323 325 326 318 312 317 330 332 333 335 337 338 342 345 344 344 345 347 348 348 348 349 347 347 348 351 350 348 349
280 283 284 293 300 302 299 298 301 302 304 314 316 323 324 324 325 327 328 321 322 331 333 333 336 338 339 343 346 346 345 346 348 349 349 349 350 349 348 348 348 350 350 350
278 281 293 295 297 296 295 296 300 301 304 309 319 322 323 323 325 329 335 324 327 331 333 335 336 338 339 342 346 347 346 347 348 349 348 348 348 349 350 350 348 348 349 350
283 281 287 292 298 302 301 292 301 301 304 304 317 312 317 321 325 330 337 336 329 332 334 334 336 338 339 340 343 345 347 348 350 351 350 349 349 350 352 353 352 352 350 351
283 284 291 296 300 301 292 291 300 303 304 304 305 309 313 323 326 331 336 339 335 334 334 335 337 338 338 340 340 344 348 350 350 351 351 352 352 352 352 353 353 353 353 355
288 290 288 301 298 292 295 299 299 301 304 305 310 316 316 321 324 327 331 336 340 339 339 338 338 338 338 338 342 343 345 348 350 351 352 353 353 354 354 353 352 352 353 353
287 289 295 302 297 299 300 299 299 299 304 309 311 315 316 317 319 322 325 329 336 335 337 340 342 344 343 344 350 344 342 343 344 350 352 353 353 353 353 354 352 352 352 352
290 292 294 299 300 299 300 300 301 302 303 307 311 313 314 313 315 317 320 324 329 334 333 334 338 340 342 344 348 346 344 344 344 344 346 351 353 354 353 352 351 352 352 352
289 293 296 299 298 299 300 302 303 303 303 305 308 310 311 309 310 313 316 320 327 328 331 331 335 337 340 341 344 344 347 351 347 347 346 342 324 328 347 349 344 353 354 355
288 294 294 295 299 301 300 300 302 302 302 304 307 308 311 309 309 310 312 317 324 329 330 331 333 336 338 339 339 340 342 343 347 347 345 333 328 322 304 302 302 308 318 335
294 299 299 301 302 304 301 302 303 303 304 303 307 308 311 309 310 311 314 315 318 325 330 332 332 332 335 334 335 336 338 338 338 342 340 332 330 328 322 312 302 299 298 301
299 298 296 299 297 301 302 303 304 304 304 304 307 309 308 309 311 313 314 316 316 322 324 328 330 326 326 333 333 333 334 316 337 348 341 333 331 329 330 329 325 321 304 304
297 298 297 300 301 300 300 301 300 301 304 305 307 309 308 309 310 313 317 315 314 316 316 317 320 323 322 329 331 332 332 332 335 342 335 328 329 328 327 325 324 323 324 314
297 297 298 299 299 299 300 301 299 299 301 303 303 306 309 313 312 314 317 314 311 311 311 310 313 316 318 326 330 328 327 321 326 334 331 329 327 327 327 325 324 322 322 322
294 293 295 296 297 298 298 301 301 300 302 307 308 308 309 309 311 308 309 308 307 308 310 309 310 313 317 322 329 326 325 325 323 329 329 327 327 325 323 320 317 313 311 308
296 297 297 297 297 297 297 298 299 299 300 302 304 303 304 303 302 304 304 305 308 308 310 309 310 315 321 325 327 325 323 323 323 322 322 322 321 320 317 315 312 310 308 305
296 295 296 297 297 296 296 295 296 296 298 299 299 298 299 299 300 301 304 303 302 303 307 306 310 316 320 327 325 323 321 320 318 317 316 313 314 314 312 311 309 308 307 307
296 296 296 295 297 297 295 296 296 296 296 296 296 296 296 296 298 299 299 300 300 300 303 307 312 314 319 326 322 320 319 319 317 314 312 310 309 307 306 302 305 304 303 302
296 296 295 295 294 295 295 296 296 295 295 295 294 294 294 295 296 298 297 296 299 302 306 308 309 313 317 321 318 316 315 313 311 310 308 306 304 302 301 301 300 299 298 298
296 296 296 296 295 294 295 295 295 296 296 295 295 295 294 294 295 296 298 297 300 302 302 302 305 312 317 317 314 312 311 308 307 305 303 303 301 299 298 297 295 295 295 295
295 296 296 295 295 295 296 296 296 296 295 295 295 295 294 294 295 293 293 298 300 301 300 301 304 309 313 313 311 310 308 306 305 303 302 300 298 296 295 294 294 294 293 292
296 296 296 298 297 296 295 294 296 297 297 296 296 297 296 295 295 297 298 299 300 300 301 301 301 302 306 308 307 307 307 305 302 300 299 297 297 296 296 295 294 294 293 292
294 295 295 295 295 294 290 290 292 296 297 295 296 298 299 299 296 298 298 298 299 298 299 302 301 300 298 299 301 303 303 302 301 301 300 299 298 298 297 296 295 293 292 291
289 289 288 290 291 289 289 290 290 290 291 292 294 296 298 298 299 299 299 299 298 298 298 299 300 299 298 297 297 297 299 300 301 300 299 299 297 296 295 294 294 293 293 292
288 290 289 289 289 289 290 291 290 290 291 291 292 293 295 297 297 298 298 299 299 297 298 298 298 298 297 297 297 296 296 296 295 298 298 297 296 295 294 294 294 294 294 293

GFSNGP_sfc_thetae_045.txt.gz
Theta_e
288 289 289 289 289 291 291 297 299 303 305 309 313 315 317 318 318 317 318 326 335 337 339 343 346 347 349 349 350 350 351 350 351 354 356 357 358 359 358 358 359 359 358 358
285 288 289 288 291 292 293 295 299 302 305 314 316 317 315 318 325 326 328 325 329 337 340 341 344 346 347 348 349 352 352 351 354 355 356 357 358 359 359 358 359 359 357 358
281 287 288 286 291 293 295 300 300 299 307 313 315 323 324 326 328 329 331 335 335 329 340 342 344 347 346 348 351 351 352 354 355 356 356 357 359 359 360 359 358 359 357 357
282 284 279 294 304 299 302 302 305 308 310 314 320 328 328 326 325 328 332 334 338 336 333 344 343 344 348 349 350 351 352 353 356 356 356 358 358 358 360 360 360 359 358 359
280 282 287 297 300 301 303 298 304 305 310 316 324 330 329 325 323 327 331 334 341 342 329 344 345 348 349 350 351 351 351 353 355 356 356 357 357 357 357 356 357 358 359 359
283 280 282 294 300 304 305 297 301 305 307 315 323 319 320 319 321 330 336 343 341 337 333 343 346 347 348 349 350 350 352 354 357 359 358 358 359 360 360 359 356 356 356 359
282 281 284 297 302 304 296 295 300 302 305 315 313 315 317 321 322 328 333 341 342 341 343 345 348 348 348 350 351 353 354 356 359 360 360 361 362 362 360 358 360 358 357 359
284 281 280 297 301 296 299 301 302 303 304 313 312 311 313 314 316 322 330 336 344 342 344 347 349 349 349 351 357 359 360 359 360 361 358 357 361 360 360 360 358 359 359 358
286 286 291 298 299 303 303 301 301 301 303 309 309 309 310 309 311 315 324 335 340 344 345 348 348 351 349 351 357 358 359 360 360 361 359 362 360 360 356 359 356 356 356 356
288 292 294 298 301 303 302 301 303 304 304 306 307 309 309 310 310 311 316 328 337 341 342 344 350 352 353 356 354 355 357 358 360 359 358 361 358 358 357 356 356 356 356 356
290 293 295 298 300 302 303 303 303 304 305 304 306 308 310 311 311 313 314 317 331 336 339 340 346 346 348 351 357 353 353 354 355 355 355 358 360 350 358 362 351 357 358 359
287 294 295 296 302 304 302 301 302 302 303 305 305 307 310 311 314 315 315 316 320 329 337 338 340 341 343 343 348 353 357 354 350 350 351 354 343 332 304 304 302 308 316 342
294 297 298 299 301 303 302 303 302 303 303 303 306 309 310 311 314 315 318 318 317 319 325 336 337 336 338 342 344 346 346 343 350 344 349 347 345 343 334 314 302 298 299 305
298 298 296 300 299 303 302 303 304 304 305 307 306 308 310 312 314 315 316 317 319 319 320 324 330 332 332 339 342 345 345 317 348 350 348 344 344 347 344 339 337 326 306 304
298 298 298 301 303 302 304 304 302 302 303 303 306 308 311 313 314 315 316 316 317 317 317 318 320 323 327 332 340 340 342 346 350 345 342 340 346 345 345 339 332 323 322 313
297 297 297 297 297 298 299 301 301 302 303 305 308 308 310 312 313 314 313 313 313 313 314 315 317 318 323 328 337 339 340 325 332 335 335 338 340 340 339 337 334 332 329 327
294 292 294 294 295 296 296 297 298 299 301 302 303 304 304 305 306 307 310 312 313 315 316 315 311 315 318 323 331 337 337 335 327 335 332 331 331 330 329 325 321 317 315 312
299 298 297 297 296 296 296 297 297 297 298 300 301 301 299 299 300 300 304 308 310 311 315 311 312 313 318 321 328 335 334 334 332 332 331 329 326 323 319 316 314 311 310 308
299 298 298 298 298 298 297 297 297 298 298 299 299 297 298 298 299 300 301 302 300 302 305 309 311 316 318 321 323 333 333 331 327 325 323 317 320 319 315 313 311 310 310 310
299 299 299 298 299 298 297 299 299 297 298 298 299 297 296 296 298 299 300 298 299 300 304 305 309 312 318 321 323 327 328 328 323 320 319 317 315 313 309 304 307 305 305 305
300 300 300 300 300 300 299 299 298 297 298 297 297 296 296 297 298 298 296 296 300 303 304 304 305 306 310 318 321 324 323 321 317 314 312 308 307 306 304 304 302 302 300 300
302 301 301 301 301 301 302 302 300 299 299 299 298 296 296 295 296 297 298 297 300 302 302 302 304 308 311 316 319 320 320 315 314 310 307 306 304 301 300 298 297 296 296 296
304 303 303 302 302 303 304 303 302 300 299 299 299 298 297 296 296 295 294 299 300 300 302 301 303 308 312 315 314 313 310 309 307 305 303 300 299 298 297 295 294 294 294 294
303 305 304 305 305 303 298 300 300 302 301 300 300 301 299 298 298 299 299 299 299 299 300 301 301 302 304 308 308 305 302 301 300 298 298 295 295 296 295 294 294 293 293 292
302 300 300 301 300 297 298 298 298 300 301 301 300 301 301 301 299 300 301 299 299 299 298 301 301 300 299 302 302 301 300 300 299 299 298 297 296 295 295 294 293 292 292 292
300 298 298 299 297 298 298 299 297 297 298 298 299 301 302 301 301 302 302 300 298 298 297 297 299 300 298 298 298 299 300 299 298 297 297 296 296 295 294 295 295 294 293 292
298 295 298 298 298 298 298 297 297 297 298 298 298 301 301 303 301 300 299 301 299 298 300 299 299 299 299 298 298 298 298 297 296 297 297 296 297 296 295 294 295 295 295 294

GFSNGP_sfc_thetae_048.txt.gz
Theta_e
292 292 292 291 291 294 295 298 296 301 304 309 315 316 319 321 321 322 323 328 335 338 343 350 352 357 356 352 355 354 357 352 356 361 362 363 364 364 362 365 363 363 363 362
289 292 292 289 291 292 294 296 298 300 302 311 318 320 319 320 322 323 327 327 328 336 340 344 348 354 357 358 355 356 360 357 361 364 365 364 366 367 366 365 364 364 362 362
285 290 289 286 290 292 294 298 299 297 305 313 316 319 321 323 324 328 331 334 337 336 337 342 345 352 354 358 358 358 361 361 363 365 364 366 366 367 366 366 365 364 363 363
286 288 280 290 296 297 295 297 302 303 307 311 318 323 332 333 332 333 335 337 339 341 343 339 343 346 352 354 360 360 361 362 364 365 364 366 367 367 368 365 366 364 363 367
284 284 288 291 295 298 295 296 302 306 309 311 318 324 331 333 332 334 337 340 342 344 345 348 342 346 351 351 355 358 360 362 364 365 364 364 365 366 365 364 364 364 364 367
287 280 279 291 292 295 303 294 310 312 314 314 318 316 322 329 331 332 337 340 343 348 350 349 350 344 347 349 352 356 359 362 365 366 366 365 366 367 368 365 363 362 362 366
284 283 286 293 294 296 289 299 309 309 311 320 319 319 320 321 323 327 332 338 346 349 349 349 348 344 352 353 353 357 357 358 363 366 367 368 369 369 368 365 364 366 364 367
285 282 279 295 292 290 302 304 303 304 310 311 311 311 312 314 313 318 325 340 348 345 344 344 344 351 356 356 359 362 363 362 365 368 361 361 369 368 366 366 365 366 364 362
286 288 295 293 293 302 303 302 302 304 309 309 308 308 310 310 311 313 317 330 345 348 346 348 351 353 353 362 362 363 362 365 364 365 363 368 366 366 361 365 360 359 358 358
286 291 290 296 299 303 304 302 304 306 306 308 309 310 310 311 312 313 315 317 334 343 347 350 353 354 355 359 365 363 361 363 363 362 361 363 362 362 360 359 358 357 357 357
288 289 293 298 298 302 303 304 304 305 306 305 309 311 311 312 314 315 316 317 320 331 340 342 346 349 355 359 360 359 360 360 362 361 361 361 363 349 360 366 350 358 359 360
287 292 293 293 300 303 302 301 303 304 305 309 309 309 312 313 316 316 316 318 319 321 330 337 340 344 348 354 359 356 355 355 356 357 359 359 359 352 306 305 301 303 308 335
292 297 299 301 301 303 302 303 304 305 307 305 307 310 312 315 317 317 316 318 318 320 325 332 334 335 341 351 354 357 352 361 354 350 355 353 353 351 348 338 304 300 299 304
298 297 295 298 296 300 304 304 305 305 305 307 312 313 313 314 316 317 315 318 321 322 323 327 328 329 335 339 351 352 354 330 362 355 352 352 343 334 334 338 347 353 311 308
298 298 298 299 299 299 301 302 303 303 305 308 308 310 311 311 312 315 317 318 319 319 321 321 322 325 331 335 337 349 349 348 349 348 347 340 336 334 334 336 347 331 326 314
298 298 298 297 296 296 298 297 297 298 301 302 303 304 306 310 311 313 316 318 317 316 319 319 320 322 328 334 335 341 343 327 332 344 343 349 350 348 347 347 338 333 332 330
296 295 295 296 296 296 296 298 298 298 299 300 301 303 303 306 309 310 311 313 315 314 317 317 318 320 326 330 333 333 343 342 329 336 335 337 343 346 348 341 335 327 326 323
301 300 299 298 297 297 298 299 298 299 298 300 301 303 302 300 301 304 305 309 310 309 310 313 315 317 324 328 331 334 337 339 340 337 332 328 326 329 327 326 322 322 322 320
302 301 301 300 300 300 300 299 298 299 299 300 300 299 299 300 300 302 305 303 303 303 305 311 311 315 317 322 324 335 332 335 335 335 331 322 325 322 321 321 319 318 320 322
302 302 303 302 303 302 301 301 302 299 300 298 299 297 297 298 301 302 303 300 301 303 306 308 311 314 318 321 320 330 333 330 332 332 330 327 325 319 315 309 314 313 313 316
303 303 303 303 303 304 303 303 302 301 299 300 297 296 296 298 300 300 299 297 301 303 305 305 307 310 314 316 321 331 326 325 323 319 321 319 315 313 311 309 309 308 308 308
304 303 303 303 303 303 304 303 303 302 302 300 299 300 298 297 298 299 300 299 301 301 303 304 304 307 313 315 322 328 327 324 322 315 311 311 309 306 304 303 302 302 302 302
304 303 303 303 301 302 302 302 303 303 302 302 301 299 298 298 299 296 295 299 301 301 303 303 306 309 313 318 317 317 312 309 308 306 305 302 301 301 300 298 297 297 296 297
303 303 303 303 303 301 300 302 302 303 304 302 303 301 300 298 300 300 299 299 299 299 301 302 304 304 303 303 301 301 302 301 303 301 298 295 295 295 296 295 294 294 294 293
303 303 302 302 300 299 301 301 301 302 302 303 303 302 301 301 301 302 299 298 299 299 300 302 302 302 301 300 299 298 297 296 297 296 296 296 295 296 294 293 293 293 293 294
304 300 301 302 300 300 300 300 299 300 300 300 301 302 301 301 301 302 301 299 299 299 300 300 300 299 299 298 298 297 297 296 296 296 296 295 295 295 295 294 295 294 293 293
302 293 301 301 301 300 300 300 299 299 300 300 300 302 302 301 301 301 301 301 299 299 299 301 300 299 298 297 297 296 296 296 295 296 297 296 296 296 296 296 296 295 295 296

GFSNGP_sfc_thetae_051.txt.gz
Theta_e
295 295 295 294 295 297 297 299 297 302 304 311 315 317 319 322 323 324 325 330 334 339 346 353 354 358 359 354 356 354 356 355 358 363 363 364 363 367 368 369 370 371 371 370
292 295 295 292 295 295 295 296 299 302 303 312 314 316 318 320 323 323 325 328 331 336 341 347 354 358 360 358 358 357 358 356 359 362 364 363 364 367 369 369 370 371 370 370
288 294 293 289 293 294 296 297 296 294 302 308 309 312 315 320 323 323 325 328 331 331 337 341 346 356 357 360 360 360 361 360 362 364 364 365 366 368 368 369 371 371 370 370
289 291 282 294 299 298 296 297 299 300 301 305 308 312 315 324 333 334 335 333 337 338 339 340 343 346 354 357 363 362 361 364 363 366 365 367 368 367 368 369 369 369 371 371
286 287 290 293 295 295 294 293 301 302 304 304 307 310 312 320 336 337 339 340 342 344 344 347 343 345 354 354 363 362 363 364 365 366 366 368 367 368 369 369 369 369 371 372
290 284 281 293 297 301 299 291 302 304 305 305 306 302 310 331 337 337 340 341 343 346 347 348 349 347 345 351 356 361 364 364 368 368 368 368 369 370 372 371 370 366 368 372
289 285 290 297 298 299 286 292 304 308 309 306 306 311 318 328 331 333 338 341 345 348 347 350 353 350 351 351 354 361 364 367 369 369 370 371 372 372 372 371 366 370 368 371
288 285 282 299 298 290 298 298 296 306 311 312 319 323 321 321 323 327 330 334 341 351 352 354 355 357 357 354 359 366 366 366 369 371 367 366 372 372 372 371 370 370 370 368
291 291 299 299 297 299 297 297 298 309 317 321 319 318 317 316 320 322 322 329 334 348 353 350 356 359 359 357 368 366 367 367 368 371 370 370 370 371 366 370 361 361 360 358
287 293 295 296 296 298 299 300 305 306 310 314 313 313 313 314 314 317 319 320 325 337 353 354 358 357 359 372 369 369 367 366 368 368 368 369 365 365 361 359 359 357 356 355
288 291 291 295 298 298 301 305 305 306 308 309 312 313 313 314 314 314 316 318 320 326 334 339 347 353 358 364 367 363 366 366 364 363 362 365 368 359 361 348 345 357 353 352
286 291 293 293 297 302 302 302 305 307 306 307 310 312 315 314 315 315 315 317 317 321 325 326 330 332 336 342 365 362 361 359 359 358 360 361 352 348 309 316 305 304 305 326
291 296 295 297 297 301 303 304 305 305 306 308 312 314 315 315 315 315 315 317 318 319 322 324 325 328 334 337 349 360 358 364 359 353 358 360 359 355 350 329 304 302 305 306
299 298 294 296 294 299 300 302 305 306 307 307 309 311 312 313 316 315 315 317 318 319 319 321 321 323 330 339 339 359 362 329 359 358 359 361 360 360 356 353 348 347 310 313
298 300 298 298 298 298 300 300 299 300 301 303 307 307 309 310 310 313 317 318 319 318 317 319 318 321 326 333 336 345 360 358 358 360 359 353 355 350 346 347 346 340 334 319
299 299 298 298 298 298 298 298 296 298 300 301 302 303 305 309 310 312 313 315 313 311 314 319 317 320 326 331 337 339 347 330 337 346 345 345 345 345 342 341 339 339 335 333
299 297 298 296 297 298 297 298 298 298 299 300 300 302 303 303 304 306 308 311 312 312 311 313 313 317 325 326 329 338 343 342 333 349 348 346 341 342 345 345 339 336 333 328
302 302 301 300 298 298 299 299 299 299 299 300 301 300 300 301 301 302 303 306 307 310 311 312 312 315 320 322 323 336 339 339 337 335 335 337 337 341 339 334 330 327 325 319
303 301 302 301 302 302 300 300 299 300 299 299 298 298 299 300 301 301 304 302 303 302 304 308 309 312 316 321 320 331 339 339 335 331 327 323 331 331 328 328 326 324 326 324
304 303 303 302 303 302 301 303 301 301 301 300 299 298 298 299 301 301 301 300 300 301 305 308 310 310 313 320 320 320 332 335 335 333 333 329 321 318 318 312 320 318 320 323
305 304 303 303 302 303 302 302 301 300 302 301 299 298 298 299 300 300 298 297 300 302 304 307 308 311 312 316 319 329 330 333 330 330 327 324 321 314 312 313 313 311 311 313
303 302 303 303 302 302 304 304 302 302 302 302 301 301 299 298 298 299 299 298 300 302 303 305 309 311 312 316 318 325 327 323 322 320 317 315 314 311 306 304 303 304 305 307
304 304 303 303 302 302 303 304 303 303 301 302 302 302 301 301 300 295 294 299 301 302 303 304 305 305 305 305 308 309 306 308 310 309 307 305 303 303 300 300 298 297 296 296
304 304 303 304 304 303 301 303 303 305 305 304 304 305 304 301 301 300 299 300 301 301 301 301 301 301 300 298 297 297 299 300 299 299 297 296 298 297 296 295 294 294 294 295
305 304 305 303 302 301 303 304 303 303 304 305 305 304 306 303 301 300 299 300 300 299 299 300 300 299 297 297 296 295 295 295 296 297 296 296 295 295 295 294 293 293 293 293
305 302 302 304 302 302 302 302 301 301 302 302 302 303 305 304 302 304 301 300 300 300 299 299 298 298 298 297 297 297 297 297 296 296 295 296 296 296 295 295 295 294 295 295
304 295 303 302 303 302 301 301 301 301 301 302 302 303 304 305 303 302 301 302 301 302 302 303 301 300 300 300 300 299 298 298 296 297 297 296 296 296 295 295 296 296 296 296

GFSNGP_sfc_thetae_054.txt.gz
Theta_e
295 296 296 296 296 297 296 297 296 300 302 309 309 312 316 321 323 325 327 328 332 335 340 349 350 351 352 353 352 353 354 354 356 359 357 357 356 359 356 360 362 364 363 365
292 295 296 294 296 296 297 298 298 299 300 308 311 314 315 318 320 319 321 328 332 330 349 347 352 352 353 353 353 354 353 353 356 358 358 358 356 358 360 359 362 363 364 364
287 293 293 290 295 296 296 299 298 294 301 306 306 308 311 313 313 315 320 321 333 337 339 344 350 355 353 354 355 354 354 355 355 358 359 357 360 357 359 359 361 362 363 365
288 291 282 294 301 300 297 298 300 300 301 304 305 307 309 311 312 315 320 322 342 334 341 346 343 348 357 357 356 356 355 357 356 358 358 359 358 359 358 360 360 361 363 365
286 286 290 293 297 297 296 295 300 300 302 303 305 306 306 311 313 315 319 325 341 342 344 349 349 350 356 358 356 356 356 357 357 357 358 358 357 358 359 360 361 361 363 365
290 284 281 292 298 300 300 290 301 301 300 301 303 298 304 311 311 318 337 340 340 342 344 345 349 350 350 353 358 354 355 357 361 357 360 358 359 359 360 362 361 362 362 365
288 287 289 297 299 301 287 290 302 304 304 303 301 307 313 316 314 331 334 337 341 343 345 349 351 352 350 351 352 360 358 361 362 361 360 362 363 363 362 363 363 363 362 364
289 286 283 301 300 293 299 302 302 302 302 303 304 308 313 316 323 329 331 333 337 340 343 353 356 352 350 352 357 361 363 360 365 365 362 364 364 365 365 364 363 362 363 363
288 290 298 300 299 302 302 300 301 301 302 304 304 308 309 321 325 326 324 327 331 337 345 359 357 360 352 356 360 367 365 361 364 365 366 364 365 364 363 364 362 361 361 360
288 294 295 297 297 298 299 299 299 301 302 304 305 308 317 318 317 318 320 320 323 330 336 336 340 347 361 360 363 363 362 363 363 365 363 364 366 365 364 363 362 361 359 360
288 291 292 295 296 297 298 300 300 303 306 306 308 314 314 313 313 316 317 319 321 324 326 326 332 340 346 349 362 358 363 362 362 363 361 364 363 364 364 365 358 361 360 359
286 292 290 291 296 296 296 300 303 305 306 308 310 313 313 312 314 315 317 319 318 318 319 320 324 331 338 343 347 365 361 361 360 361 362 363 360 352 308 314 306 311 317 342
292 297 296 295 297 297 298 301 304 305 305 304 308 313 315 314 315 316 317 317 316 316 317 318 319 324 328 334 342 353 362 361 360 355 360 360 359 350 340 321 302 300 301 308
299 297 293 295 293 297 297 298 302 303 304 303 304 307 310 311 313 314 314 316 317 317 316 318 316 318 321 329 333 342 360 337 360 358 357 360 358 355 350 344 343 339 312 311
299 300 298 299 299 297 298 297 297 298 300 301 303 303 306 306 308 309 312 313 315 312 312 314 312 314 318 324 328 341 345 347 351 358 357 355 360 358 357 355 355 347 336 321
300 300 299 297 298 297 296 296 295 296 297 299 300 301 303 304 305 307 307 308 308 307 309 311 311 312 316 321 325 336 339 331 335 348 351 356 356 353 355 351 347 342 342 339
298 296 297 297 297 298 297 297 297 297 296 297 298 300 301 302 302 304 303 305 307 307 306 308 309 312 315 319 322 327 339 338 331 341 344 347 350 347 346 344 343 342 340 336
302 301 301 300 299 299 298 299 299 297 296 297 299 300 299 299 299 299 301 302 303 303 303 306 308 310 316 318 319 327 336 334 334 332 338 339 338 342 338 338 334 330 329 324
303 302 302 302 302 301 300 300 300 300 300 299 298 298 299 299 299 299 300 299 299 298 300 305 309 312 316 318 318 326 337 333 330 328 326 321 324 326 328 330 330 331 333 332
305 304 304 303 304 302 301 302 302 300 300 300 299 298 297 298 299 298 298 298 299 299 304 306 309 309 312 316 317 322 333 332 331 327 320 318 317 316 314 309 314 315 318 317
305 305 304 302 303 304 304 303 302 301 301 302 300 299 299 297 299 299 297 296 299 302 304 306 307 308 313 316 318 319 326 324 321 326 321 317 315 313 312 313 311 313 313 313
305 303 304 303 303 303 304 304 304 303 303 303 303 302 299 297 297 297 299 298 301 302 301 301 303 305 307 309 308 308 314 315 313 310 308 311 309 306 305 306 305 307 306 304
305 305 303 303 303 303 304 304 304 305 303 305 303 301 299 298 297 295 295 299 300 300 299 299 301 301 301 300 300 300 300 300 300 301 300 300 299 298 299 297 296 296 297 297
304 304 305 305 305 303 302 304 305 306 306 306 304 304 302 298 297 299 299 299 299 299 298 298 299 299 298 296 297 297 297 296 296 295 294 294 295 295 295 296 296 296 295 295
306 305 305 304 302 301 305 305 304 305 304 304 302 304 303 302 298 299 300 300 300 300 299 300 299 299 296 296 295 295 295 296 296 296 295 294 294 293 293 293 292 292 293 294
306 303 303 305 303 302 301 302 301 301 303 302 303 302 303 303 303 302 302 301 301 301 300 300 300 300 299 298 297 297 296 296 295 295 295 295 295 295 295 295 295 295 295 295
306 299 303 303 302 302 301 302 301 300 301 302 302 303 302 303 302 301 301 302 303 302 302 302 302 301 301 301 300 299 298 298 296 297 297 295 295 294 295 295 295 296 296 296

GFSNGP_sfc_thetae_057.txt.gz
Theta_e
290 292 293 292 292 293 291 290 285 290 293 298 302 304 308 310 311 312 315 328 329 328 329 338 336 339 342 345 346 350 351 351 350 350 349 349 346 345 340 353 349 354 353 356
288 292 292 290 293 294 294 294 293 293 293 297 300 302 302 302 304 305 307 313 316 321 324 337 336 334 334 342 346 347 350 351 352 351 350 349 349 350 345 343 354 352 352 354
283 290 290 286 291 293 294 296 293 289 293 298 298 300 300 301 304 305 306 309 316 319 333 334 332 333 333 333 348 347 347 351 351 351 350 349 350 348 350 345 347 353 355 355
283 286 277 290 297 297 295 296 297 297 297 299 299 301 302 303 304 307 310 313 328 326 340 342 342 337 336 337 339 347 346 348 350 351 351 352 351 349 350 352 348 349 353 356
279 281 286 290 293 293 291 291 298 296 298 300 303 302 300 308 309 310 311 314 326 321 333 341 338 335 336 336 335 334 346 347 349 351 350 352 349 350 349 351 352 351 354 355
286 279 277 287 295 298 296 285 297 299 299 299 299 293 297 305 306 309 311 313 323 324 332 336 341 336 333 334 332 337 340 349 350 351 352 351 351 351 353 350 350 354 352 355
286 285 288 293 296 301 287 286 298 299 298 298 295 296 301 305 306 309 311 313 327 331 332 337 342 344 341 339 334 346 348 351 352 351 351 352 353 353 352 352 351 351 353 354
286 284 280 295 295 289 293 295 296 297 298 298 298 300 301 304 306 309 310 316 328 328 329 335 343 343 343 343 346 350 351 351 351 352 352 354 353 353 353 352 351 351 352 353
285 286 294 296 294 296 296 294 294 296 298 299 298 299 300 302 306 309 318 321 324 323 325 332 336 337 340 342 348 349 353 351 353 355 352 354 353 352 352 353 352 352 352 353
286 292 292 294 295 297 296 296 296 296 298 299 297 300 300 303 306 315 317 317 320 320 326 327 326 329 336 341 344 348 351 354 352 355 353 352 357 355 355 354 354 353 353 353
288 291 293 294 294 295 295 295 297 299 298 298 299 301 303 306 311 314 316 318 318 319 319 319 321 324 329 331 336 340 350 355 354 355 353 355 357 357 357 358 354 356 355 356
285 293 292 292 295 296 294 295 297 297 301 303 305 305 305 307 314 315 315 316 316 316 317 318 318 319 321 323 328 335 343 352 355 354 355 356 355 337 307 310 309 316 326 347
293 297 297 297 297 298 296 296 297 298 300 302 303 303 303 311 315 315 316 316 315 314 314 315 314 315 317 319 324 329 339 350 356 349 355 355 355 350 340 319 303 300 301 314
299 298 295 297 295 297 297 297 298 298 299 300 301 303 303 306 309 309 308 311 312 311 311 312 313 312 314 315 321 325 335 329 352 354 354 356 356 353 348 337 338 334 309 308
298 299 298 299 299 298 298 298 295 296 296 296 299 300 301 302 303 303 305 305 307 309 307 308 309 309 311 313 318 322 334 339 346 348 353 351 356 352 343 342 342 338 327 315
300 299 299 298 297 298 297 295 294 294 294 295 296 298 300 301 301 302 301 302 301 302 302 303 305 307 311 312 316 321 329 331 332 347 349 348 353 352 344 344 344 336 336 332
295 295 296 296 298 297 297 297 296 295 295 294 296 298 299 299 299 298 300 300 301 301 302 302 303 308 311 314 315 316 328 334 330 340 340 342 342 340 344 347 340 337 333 327
300 299 300 300 298 297 298 299 298 298 297 297 297 297 297 297 296 297 298 300 299 300 302 304 306 310 311 313 315 316 329 329 328 328 328 330 334 335 333 332 330 329 328 324
304 302 302 303 301 300 299 298 298 299 299 298 297 296 297 298 297 297 298 298 298 298 301 305 309 310 311 314 318 317 330 325 323 322 322 321 324 328 329 330 329 326 327 324
304 304 303 302 303 300 300 301 300 299 299 300 299 298 296 296 297 298 298 297 298 300 301 303 305 306 310 316 319 324 327 322 319 317 315 315 316 315 316 314 320 317 317 317
304 304 303 301 301 302 302 301 300 299 300 300 298 297 296 297 297 297 295 294 297 300 300 302 302 303 307 306 311 312 311 309 314 313 312 310 308 308 309 310 311 312 312 312
303 302 302 302 301 302 302 302 301 301 301 300 298 297 296 295 296 297 297 295 298 300 299 299 300 303 302 303 301 300 301 301 300 300 300 302 301 300 298 299 300 300 300 300
303 302 302 300 300 302 303 301 302 302 301 300 297 296 295 295 296 294 293 297 298 299 298 298 300 301 300 298 297 297 296 295 295 296 297 297 297 296 295 295 296 296 296 297
302 304 302 304 301 300 299 302 303 303 301 301 299 298 296 295 296 298 298 300 300 299 298 298 298 299 298 296 295 296 295 294 294 294 293 293 293 294 294 295 295 296 295 295
304 303 303 302 301 298 301 302 301 302 300 300 299 298 298 298 297 298 299 299 301 300 299 301 300 299 296 295 294 294 294 294 294 294 294 293 293 293 293 293 293 293 293 294
303 302 300 302 300 299 300 301 299 300 300 298 299 300 299 299 299 300 300 300 300 300 298 299 299 298 297 296 296 295 294 294 294 293 294 294 294 294 294 294 295 295 295 295
304 300 302 300 302 299 300 300 298 298 300 300 298 300 300 299 299 300 300 300 299 298 298 297 298 299 297 297 295 295 296 295 294 295 294 294 294 294 294 294 295 295 295 295

GFSNGP_sfc_thetae_060.txt.gz
Theta_e
285 289 290 290 290 291 287 286 283 286 287 290 294 297 299 302 306 319 327 330 321 322 321 324 331 333 336 339 343 346 345 345 344 347 348 344 341 344 342 344 342 345 349 352
285 291 291 289 291 292 291 292 291 291 288 293 295 299 299 303 304 306 309 314 316 321 328 332 331 325 336 338 341 347 346 346 347 345 347 347 344 341 341 340 346 344 350 352
279 288 288 283 288 290 291 292 291 287 291 294 295 298 299 303 307 308 309 311 312 319 333 336 335 335 332 334 338 340 347 348 348 349 347 346 346 343 341 340 338 346 344 350
280 284 275 286 293 294 292 294 294 294 296 298 298 300 303 304 303 304 307 308 309 311 323 334 336 338 336 337 337 336 337 347 350 350 348 348 346 346 345 345 339 338 348 347
281 277 284 289 291 291 290 289 297 295 297 298 299 299 298 303 304 305 306 307 309 312 320 334 333 336 338 338 338 336 335 335 345 351 350 348 346 346 347 348 346 341 345 352
284 278 276 286 292 296 296 283 294 295 294 294 296 289 293 300 303 305 307 307 308 312 324 332 340 337 333 336 338 333 335 335 337 345 350 349 349 348 348 348 348 349 346 346
284 282 286 290 294 297 282 284 293 294 293 293 291 294 297 300 301 304 306 307 310 314 328 332 335 334 331 332 331 334 337 336 337 339 347 351 350 351 349 348 348 349 348 348
282 282 279 294 293 287 290 293 294 293 293 293 294 296 298 299 299 301 304 306 318 319 323 329 335 337 340 337 339 335 334 334 336 340 346 350 350 351 350 349 347 346 348 349
285 282 291 292 291 294 295 293 293 293 293 295 295 295 297 297 298 301 304 307 318 320 319 326 332 331 330 336 343 344 344 345 344 349 350 350 349 349 349 349 349 347 346 346
286 288 289 293 296 296 296 294 294 294 296 297 296 298 297 297 298 301 304 307 316 317 320 322 322 325 325 331 333 333 336 340 349 350 350 349 350 351 350 349 348 348 348 347
288 290 292 293 295 296 296 297 295 296 297 297 300 298 297 298 299 303 305 310 315 317 315 317 318 320 320 323 324 326 328 334 344 350 346 349 350 350 350 352 348 349 349 350
283 289 290 291 295 298 296 295 296 295 296 298 299 301 303 302 302 303 306 312 314 313 316 316 315 315 316 316 318 320 324 330 341 351 350 352 349 338 309 312 316 317 320 340
290 294 294 296 297 299 296 296 297 296 297 296 298 300 301 301 303 309 309 315 313 310 310 312 311 312 313 313 314 315 319 325 333 338 353 351 352 347 343 321 303 302 307 311
297 295 294 295 293 298 298 298 298 298 297 296 297 299 300 300 301 303 303 306 308 308 309 310 310 311 312 312 312 313 317 316 325 335 349 352 353 353 349 346 343 338 307 313
296 297 296 296 297 297 298 298 296 295 295 295 296 297 298 298 299 300 301 302 304 304 303 302 303 305 308 310 311 312 315 320 331 337 346 349 354 354 350 344 346 346 323 312
295 295 295 295 296 297 297 297 295 295 295 295 295 296 298 299 299 299 301 301 299 299 300 299 302 303 307 310 311 312 315 317 320 333 342 345 346 347 341 341 342 337 336 337
293 291 292 293 294 295 295 297 296 297 296 295 296 297 297 297 298 298 298 300 300 298 301 302 302 305 311 312 311 311 314 316 328 333 335 341 343 345 341 341 340 337 335 328
297 297 296 296 296 296 296 297 298 297 296 297 298 297 296 296 295 296 298 299 300 301 301 302 305 307 308 311 312 312 316 319 327 327 329 334 337 336 336 333 330 328 327 326
301 299 299 299 298 297 297 296 297 298 298 299 298 296 296 296 296 296 297 297 296 296 298 301 307 306 308 309 313 318 319 323 321 320 322 322 328 331 332 331 329 327 328 327
301 301 301 300 300 298 297 299 298 297 298 298 298 296 295 295 297 295 295 295 296 297 300 301 302 303 305 306 311 309 318 317 314 311 313 315 317 318 317 315 322 322 322 320
301 301 301 300 299 299 299 299 300 299 299 298 295 295 294 295 296 295 293 293 296 299 300 301 301 301 302 302 302 304 304 303 304 305 304 302 304 307 308 309 309 310 311 311
298 298 298 298 297 298 297 298 300 301 298 296 296 295 295 294 295 295 296 295 297 300 298 298 299 302 300 300 298 300 298 298 300 299 299 300 300 298 299 300 299 300 301 302
298 298 298 296 295 295 297 297 299 298 298 296 295 294 294 295 295 294 294 298 299 299 297 298 300 300 299 296 296 295 295 294 294 293 295 296 296 296 295 295 297 297 297 297
295 297 299 297 294 293 295 295 297 297 297 297 296 296 295 294 296 298 299 300 301 299 298 298 298 298 297 295 294 294 294 294 294 294 294 293 293 294 294 294 294 295 296 295
298 298 301 298 296 292 295 296 296 295 295 295 295 296 296 297 296 297 299 299 301 299 299 300 299 298 296 294 294 293 293 294 294 294 294 293 293 293 293 293 293 294 294 294
296 295 296 298 299 296 295 295 294 294 294 294 295 296 297 297 297 297 299 300 298 298 297 298 297 296 296 296 295 294 293 293 293 294 293 294 294 294 294 294 294 294 294 294
298 296 295 296 299 298 295 294 293 293 295 294 295 298 297 296 297 297 298 298 297 296 296 295 296 297 295 295 295 296 295 295 293 294 294 294 294 294 294 294 294 294 294 293

GFSNGP_sfc_thetae_063.txt.gz
Theta_e
284 287 289 288 289 290 285 285 282 285 286 290 292 293 296 303 307 310 314 311 314 321 324 331 332 329 331 335 339 341 340 341 342 343 342 340 339 340 341 341 339 338 343 350
284 289 289 287 290 290 290 290 289 289 287 292 295 297 301 302 304 303 305 308 312 312 314 321 332 335 331 331 337 342 340 339 342 343 344 342 339 338 339 340 341 338 339 342
278 286 286 282 287 289 289 291 289 286 289 296 295 297 298 298 300 301 302 303 305 310 314 314 327 335 334 334 336 341 342 342 342 343 343 344 343 339 338 339 339 340 341 343
278 281 273 284 292 293 291 294 294 294 295 296 296 297 299 299 299 300 302 302 304 305 310 312 321 330 336 337 334 336 342 343 344 344 342 344 345 342 340 339 339 337 338 341
277 274 282 287 289 288 287 288 293 292 293 294 296 297 297 300 300 300 302 303 304 307 307 311 323 336 336 335 337 336 336 340 346 346 346 344 344 344 344 341 340 339 338 338
281 276 275 285 291 294 293 284 292 292 291 292 293 288 293 298 299 300 302 303 305 306 310 317 325 332 334 333 336 337 336 335 336 343 348 347 346 345 346 345 343 343 340 338
283 283 284 290 292 295 282 283 291 293 291 291 289 294 295 297 298 300 301 303 305 306 311 319 324 329 331 333 332 336 337 335 335 336 337 348 349 348 347 346 346 345 345 343
281 279 274 292 291 284 287 291 293 293 293 292 293 294 296 297 297 299 300 301 303 304 307 317 323 325 328 330 335 342 342 334 334 334 339 342 343 348 347 346 344 344 344 345
281 280 288 291 290 295 296 293 293 293 294 294 293 294 297 298 298 299 299 300 302 304 306 315 322 327 326 326 329 333 332 334 339 342 337 338 341 344 347 348 346 345 344 344
283 285 288 290 292 294 297 295 296 296 296 295 293 295 297 300 299 299 300 300 302 304 306 312 321 326 325 324 326 325 326 330 332 334 340 348 348 346 346 347 347 346 345 344
287 288 289 292 293 294 295 298 296 297 297 296 296 296 297 300 302 302 304 304 304 305 306 312 320 321 322 322 319 318 321 325 327 332 339 346 348 346 347 349 346 347 347 347
282 287 287 288 293 296 296 297 297 296 295 297 297 296 298 298 301 301 303 303 304 304 306 312 317 318 318 316 315 314 317 322 324 327 331 339 346 344 310 316 314 315 316 336
288 290 291 293 295 297 296 297 298 297 297 295 297 296 297 297 300 301 302 302 303 305 308 314 311 311 312 312 311 311 312 316 320 322 327 333 342 347 343 323 304 306 305 309
293 291 292 294 293 295 297 298 300 297 298 297 297 297 297 297 299 299 299 301 302 303 310 308 307 308 309 310 309 309 311 311 316 319 323 330 338 347 350 345 343 341 314 312
294 295 295 295 294 295 296 298 297 294 296 296 297 296 297 296 296 297 300 301 301 301 302 300 302 301 305 306 307 308 309 313 317 320 323 328 335 342 351 348 347 345 332 312
295 295 294 293 294 294 295 295 295 293 294 294 296 297 297 297 297 298 299 300 298 298 300 300 301 302 303 305 307 308 310 313 315 316 318 326 331 339 348 349 347 346 342 341
291 291 291 291 292 292 294 295 296 294 295 295 296 298 297 296 296 296 297 299 299 299 301 302 301 304 306 308 308 309 310 312 314 316 318 327 332 339 347 346 344 345 343 334
297 296 294 293 294 294 295 296 296 296 297 296 298 299 296 295 294 295 295 297 297 297 299 300 301 303 307 306 308 310 312 312 314 316 322 330 333 340 343 343 343 340 331 322
298 298 298 297 297 296 296 296 295 296 298 296 296 295 295 295 295 294 295 295 295 294 296 299 303 304 304 306 310 310 310 314 316 320 322 321 331 336 338 340 336 333 332 328
299 299 299 299 299 298 297 296 296 298 296 295 294 294 294 294 294 294 294 293 294 296 299 299 301 301 301 303 307 305 305 309 313 310 309 311 315 317 320 316 329 330 330 327
300 300 300 299 299 299 298 297 297 297 295 294 293 293 294 295 296 296 294 292 295 298 299 301 300 300 301 299 299 300 300 301 301 303 302 301 302 303 304 304 307 313 314 312
297 297 299 298 296 295 296 296 297 298 295 293 293 294 294 295 296 296 297 295 296 299 298 298 299 301 299 299 296 296 297 296 296 298 298 299 297 297 299 299 301 302 303 305
296 296 296 296 295 293 295 295 297 297 295 293 293 293 293 295 296 295 294 297 297 298 297 297 299 299 298 295 295 295 294 294 294 294 295 296 298 297 295 296 296 297 299 299
295 295 294 295 294 292 293 294 295 296 296 295 295 295 294 294 296 299 300 300 299 298 297 298 297 298 296 294 294 294 293 294 294 294 295 295 296 295 295 296 296 296 297 296
300 300 298 295 292 291 292 294 294 293 293 293 294 295 295 295 295 297 298 298 299 298 297 298 298 297 294 294 293 293 293 293 293 294 294 294 294 294 293 294 294 294 295 296
298 297 297 295 292 293 293 293 292 292 293 293 294 296 296 296 296 296 297 299 296 297 297 297 296 295 295 294 294 293 293 294 294 294 294 294 293 293 293 293 294 294 294 294
296 297 296 295 297 295 294 293 292 293 294 293 294 295 295 296 296 296 298 296 295 294 294 295 296 296 295 295 295 295 295 294 293 294 294 294 294 293 293 292 292 292 292 292

GFSNGP_sfc_thetae_066.txt.gz
Theta_e
284 288 288 287 288 289 285 285 283 285 287 290 293 295 298 300 302 303 303 306 308 310 313 314 324 336 337 335 339 340 341 341 341 341 341 341 341 343 344 342 342 343 344 349
282 288 288 286 289 290 289 289 288 288 288 294 296 299 298 298 300 300 301 302 305 307 310 311 317 321 334 335 334 340 339 340 343 344 343 341 341 341 342 344 343 341 342 345
276 285 284 281 286 288 289 290 289 285 290 295 294 295 296 297 298 299 300 302 302 304 307 309 313 320 328 335 338 336 339 341 342 344 344 344 343 341 340 341 343 342 341 342
277 278 272 282 291 291 291 292 292 293 292 293 293 295 296 299 297 297 298 300 301 303 305 307 311 320 331 337 337 337 339 342 342 342 343 344 345 342 340 340 340 341 342 342
275 272 281 286 288 287 286 287 291 290 291 292 293 294 296 299 298 297 298 300 301 303 305 307 311 321 330 334 336 338 338 340 345 344 343 343 344 344 343 341 340 341 341 342
276 276 275 284 290 293 292 284 290 291 291 291 291 285 292 296 297 298 299 300 301 303 304 305 308 318 325 327 334 334 338 339 340 342 346 344 343 345 346 346 343 342 342 341
280 279 283 289 291 294 281 282 291 292 292 291 289 292 294 296 297 298 299 301 303 303 302 304 307 312 319 323 327 337 341 340 338 338 339 348 348 347 347 347 347 344 343 344
281 278 273 292 290 284 287 290 292 292 292 292 293 294 295 296 296 297 299 302 303 302 302 304 306 309 315 320 328 336 335 336 337 338 337 341 344 349 348 346 345 345 345 345
278 278 287 291 289 292 293 292 293 294 294 294 294 294 295 295 296 298 301 303 302 301 302 304 306 308 311 319 331 331 331 331 331 335 340 340 339 340 347 348 346 345 345 344
281 284 287 289 292 294 294 293 295 296 296 296 294 295 295 296 296 299 301 302 303 302 302 303 306 308 311 317 327 327 326 327 330 330 331 336 343 340 340 346 346 346 345 345
287 287 288 290 292 294 294 295 296 298 297 295 295 296 296 297 297 299 300 302 303 302 302 304 307 308 310 314 323 322 321 323 327 329 330 332 339 344 345 343 343 347 348 348
281 287 287 288 293 295 294 295 297 297 295 297 297 296 296 296 297 298 299 301 302 302 302 303 305 307 310 314 320 318 317 319 322 326 327 330 331 336 320 317 310 310 317 337
288 290 291 293 294 296 295 297 298 298 297 296 297 297 297 296 297 298 299 300 300 301 302 303 304 309 311 316 316 313 312 314 317 318 322 325 328 330 333 335 310 306 304 305
292 293 291 293 293 296 296 298 299 299 299 297 297 298 297 297 297 297 298 299 300 301 301 302 303 304 309 312 311 311 311 309 313 315 318 323 327 329 334 337 343 344 314 312
293 294 294 294 295 295 296 296 296 296 296 295 296 297 298 297 296 296 299 299 299 300 300 301 302 302 305 306 306 306 308 310 312 313 317 320 325 327 329 331 337 346 344 314
295 294 294 293 294 294 294 295 294 295 295 295 296 297 298 298 297 297 297 298 296 296 299 299 300 303 305 306 305 306 307 309 310 312 314 317 321 325 327 331 335 344 349 347
292 291 292 292 292 293 293 295 295 295 295 296 298 297 297 297 296 295 296 296 296 297 298 299 299 302 303 304 304 305 307 308 310 311 312 315 319 324 326 329 333 342 346 346
296 295 295 295 294 294 294 296 296 296 297 299 296 294 295 294 293 293 294 295 295 296 297 299 300 301 303 304 306 306 306 308 309 309 312 315 318 324 327 329 333 339 345 343
297 297 297 297 296 296 296 296 296 296 298 295 294 294 295 295 295 295 295 294 293 292 295 299 302 303 302 304 306 307 308 308 308 309 311 313 316 321 328 329 332 338 344 336
299 299 299 298 300 298 298 299 297 296 295 294 294 293 294 295 296 296 295 294 294 295 297 298 299 299 301 302 305 304 305 306 306 310 313 313 316 321 324 319 328 336 336 331
299 300 300 300 299 300 299 298 297 296 295 295 294 293 294 296 297 297 294 292 294 297 296 298 297 298 300 301 299 299 299 299 301 301 302 301 302 304 306 308 312 316 314 309
298 298 300 300 298 297 297 297 297 297 295 294 294 294 295 295 296 296 297 295 296 298 296 295 296 299 298 299 297 296 297 296 296 296 296 298 298 297 299 301 303 304 301 299
299 299 299 297 297 297 296 296 298 297 295 294 294 294 295 296 297 296 293 298 297 297 296 296 298 298 297 295 295 295 295 295 295 294 294 295 296 296 296 296 298 299 297 295
296 296 298 298 297 296 295 295 298 297 296 296 296 296 295 294 296 299 300 300 299 297 296 297 297 297 295 294 294 294 294 294 294 294 294 294 294 294 296 297 296 295 294 293
299 300 300 299 297 295 296 298 296 296 296 295 295 296 297 298 296 298 298 299 299 298 296 298 298 297 294 293 293 293 294 293 294 293 292 292 292 292 293 294 295 295 295 295
295 297 299 298 296 295 296 298 295 295 295 295 297 297 297 298 298 298 298 298 297 298 297 297 297 295 295 294 293 291 291 293 293 292 292 292 291 290 291 292 292 293 294 295
294 296 297 297 299 298 298 297 296 295 296 295 296 297 298 297 297 297 297 296 295 295 296 297 297 297 296 296 295 294 292 291 290 291 291 290 290 289 289 289 290 291 292 292

GFSNGP_sfc_thetae_069.txt.gz
Theta_e
293 293 293 293 292 293 293 293 292 293 294 298 302 303 303 305 306 305 303 304 305 305 308 310 314 323 334 340 341 345 347 347 347 350 350 347 349 356 354 353 354 356 355 356
290 292 292 291 292 292 292 293 293 294 294 300 302 304 304 304 304 304 304 304 304 304 306 307 310 315 325 334 339 342 342 346 351 353 354 353 353 352 356 354 354 355 353 354
287 290 290 287 291 292 293 296 295 293 296 300 300 300 301 302 304 303 303 304 305 304 304 306 308 310 320 331 339 341 342 342 348 351 352 353 352 353 353 353 355 353 353 354
288 288 281 290 295 294 295 295 297 298 297 297 298 299 301 304 303 303 303 303 305 306 306 307 307 309 315 325 330 336 344 342 346 349 350 353 352 352 352 352 353 353 352 355
287 285 287 290 292 292 292 291 294 294 296 297 298 300 302 303 303 302 303 304 305 307 309 310 310 309 309 316 324 328 337 344 347 349 349 350 350 353 352 350 350 352 352 353
289 284 282 291 293 296 296 289 294 295 295 295 296 294 299 302 302 302 303 304 305 307 310 310 311 310 309 311 317 323 329 339 343 347 346 351 351 352 353 353 351 350 349 352
289 287 290 295 295 298 288 290 295 295 295 295 293 295 298 301 301 303 303 304 306 307 309 310 311 311 309 309 310 319 326 338 339 341 346 346 348 355 353 353 353 353 351 352
287 284 283 297 294 291 294 296 296 296 296 295 297 298 299 300 301 302 302 303 305 307 308 310 311 311 311 310 311 317 323 333 334 337 340 344 348 347 354 355 354 353 353 351
290 291 295 298 297 299 298 296 297 297 296 297 297 297 299 299 300 301 302 303 305 305 308 309 311 311 311 313 314 314 322 330 330 333 337 340 345 347 346 347 351 352 350 349
289 294 294 297 299 299 300 298 299 299 298 298 298 298 298 299 298 299 299 300 302 304 305 306 309 310 311 312 315 313 316 325 328 328 331 336 338 342 344 344 346 348 350 349
292 295 295 297 299 300 300 301 300 301 301 301 299 298 299 299 298 298 298 298 299 301 303 305 308 308 310 310 312 314 312 320 324 325 328 332 335 337 343 348 344 345 349 351
293 298 298 297 300 301 300 300 302 302 302 303 302 301 300 299 299 298 299 300 300 301 302 303 305 306 308 311 312 314 313 316 320 321 324 328 332 332 318 315 313 312 313 326
298 300 300 301 302 303 301 302 303 303 304 302 303 303 302 301 302 302 300 301 300 300 301 301 302 304 307 309 310 313 314 317 318 317 320 322 327 331 329 327 311 308 305 307
300 299 298 300 300 303 303 304 303 304 304 304 304 304 303 302 302 301 300 300 301 300 300 300 301 304 306 308 309 308 311 310 315 316 317 319 322 328 331 330 332 335 315 311
299 301 302 303 303 303 303 304 303 302 303 303 304 303 302 302 300 300 300 299 299 299 299 299 299 301 304 306 306 306 308 309 312 313 314 316 318 321 328 329 330 331 336 326
301 300 300 300 302 303 303 303 301 302 303 303 303 302 302 301 299 299 299 298 295 294 296 297 298 300 304 305 304 304 306 308 309 311 313 315 316 317 321 325 328 330 332 337
299 298 300 300 301 302 302 303 303 303 304 303 302 301 300 299 298 297 298 298 297 296 297 297 297 300 302 303 302 303 304 306 308 311 312 313 313 314 319 324 327 329 332 335
304 305 305 304 303 301 302 303 304 304 304 304 301 300 299 298 296 296 298 299 297 296 296 297 299 300 302 303 304 304 305 305 306 306 309 310 313 315 317 320 327 330 331 331
305 305 305 304 304 304 304 304 304 305 304 303 301 300 300 300 299 300 301 297 295 293 294 297 299 300 300 303 304 304 305 305 306 307 308 309 311 313 315 317 322 330 333 333
306 307 306 306 306 305 305 307 306 305 304 302 301 300 299 300 301 301 299 296 296 295 298 297 298 297 298 301 303 303 303 304 305 306 308 309 311 313 315 312 319 327 333 335
305 306 306 306 306 307 307 307 305 304 303 302 301 300 301 302 300 301 297 294 298 298 298 298 296 297 298 300 299 299 299 300 301 303 304 306 308 307 309 311 313 316 323 325
304 304 304 305 305 306 307 306 305 306 303 302 302 301 301 301 302 302 300 297 299 299 297 296 296 298 296 297 295 296 297 297 297 297 298 300 301 301 302 302 305 304 303 302
304 303 303 301 301 302 303 304 305 305 304 302 301 301 301 302 302 301 299 300 301 299 297 297 298 298 296 293 292 292 294 295 295 295 296 297 298 299 298 298 298 297 296 295
303 304 302 303 302 301 300 302 304 306 304 303 303 303 302 301 302 304 305 302 299 298 298 298 298 297 295 291 290 289 289 290 292 292 294 294 296 298 297 295 294 295 295 294
302 302 301 298 295 298 297 300 303 303 303 303 303 304 304 305 302 302 302 304 299 300 298 299 298 297 295 293 291 288 288 289 288 290 290 292 293 294 294 294 295 295 295 295
302 302 302 301 299 297 298 302 301 302 302 302 303 305 304 304 303 303 302 301 301 300 300 299 299 298 297 295 294 292 289 288 288 286 286 288 292 292 292 293 293 293 293 294
301 298 302 302 303 300 300 300 300 301 302 303 302 302 302 301 301 301 299 300 300 300 300 301 300 299 299 297 296 294 293 290 288 288 286 286 288 290 290 291 291 291 292 292

GFSNGP_sfc_thetae_072.txt.gz
Theta_e
297 297 298 298 297 298 300 301 300 302 302 306 308 309 310 311 311 305 305 306 307 307 308 312 313 314 321 332 340 348 349 351 352 355 356 356 357 359 359 359 359 359 359 360
296 297 297 296 297 297 297 298 301 303 301 307 309 310 309 310 310 310 308 307 308 309 309 308 310 312 315 319 331 338 347 348 351 356 357 357 358 356 359 359 359 359 358 356
294 296 295 292 297 297 298 300 301 299 303 305 305 305 306 307 309 309 309 310 311 308 308 311 312 314 312 316 325 329 333 347 350 351 354 357 358 358 357 356 359 361 358 358
297 294 286 296 300 300 299 300 303 303 303 303 304 306 307 310 308 308 308 309 310 311 312 312 313 312 316 316 319 322 328 336 345 349 351 354 358 356 358 358 357 359 360 362
292 291 293 294 297 297 298 297 301 301 301 302 303 305 308 308 308 307 308 309 310 311 313 316 317 315 315 313 313 315 321 327 336 338 349 351 352 356 356 356 357 356 357 360
293 289 287 297 298 301 301 294 301 301 301 301 303 298 304 307 307 307 309 310 310 311 312 314 317 318 317 317 314 313 315 320 327 339 339 344 352 357 362 359 357 356 356 358
293 292 295 299 299 302 291 295 302 301 301 301 300 302 304 306 307 308 309 309 310 311 311 314 316 317 316 318 318 318 317 318 323 332 337 336 344 356 356 360 361 359 356 359
295 291 288 302 299 296 301 302 301 301 302 301 302 302 303 304 305 307 307 308 309 309 310 313 315 315 315 316 319 320 320 316 317 322 332 331 340 339 351 359 359 358 361 357
296 298 301 305 302 304 302 302 301 302 301 302 300 302 303 303 304 305 306 306 306 306 307 309 313 314 313 316 318 318 318 320 317 321 327 333 336 339 337 349 351 357 359 353
295 299 300 303 304 304 303 303 303 303 302 302 301 303 303 303 304 304 305 305 306 304 305 306 310 312 313 315 316 316 316 318 320 316 320 328 329 332 335 335 343 346 350 355
298 300 300 302 304 305 304 304 304 303 303 303 303 303 303 304 304 305 306 305 305 303 303 305 307 308 309 311 313 312 314 315 318 320 321 324 328 329 333 336 334 343 349 353
298 303 303 301 306 306 304 304 304 304 304 305 304 304 305 305 306 305 305 304 303 305 303 304 305 306 309 309 308 309 311 313 315 318 320 322 323 325 317 315 314 311 309 318
303 305 305 305 306 307 305 306 306 306 306 305 305 306 306 304 304 305 303 303 304 303 302 303 303 303 305 309 306 307 306 310 313 313 320 321 322 322 322 324 309 307 306 306
307 305 303 304 303 306 306 307 306 307 307 307 307 307 306 306 306 305 303 302 304 303 302 302 301 301 304 306 306 306 306 305 309 312 314 317 320 321 322 324 326 330 315 311
306 306 305 307 306 307 308 307 306 305 306 306 308 307 306 306 305 304 303 302 303 303 300 300 300 299 302 303 305 305 306 306 307 311 314 314 317 318 319 321 324 328 332 323
307 306 305 305 305 306 306 306 305 305 305 306 306 306 306 306 305 304 302 302 300 301 301 299 298 299 300 301 302 302 303 305 307 309 310 312 315 317 319 319 321 324 327 330
304 303 304 303 304 305 306 307 307 306 306 306 307 307 306 305 304 303 302 302 303 303 301 299 298 299 301 300 300 301 302 304 305 306 310 310 312 314 317 318 318 322 325 328
306 307 307 306 306 306 307 307 307 307 306 308 308 307 306 304 302 302 302 303 303 303 301 300 300 301 301 301 300 301 302 303 305 305 306 308 309 311 312 316 319 320 324 326
309 308 308 309 309 308 308 308 308 308 308 309 308 306 305 304 304 302 303 302 301 301 301 301 302 300 298 299 301 301 301 302 304 305 305 306 308 309 310 312 316 320 324 326
310 310 310 310 311 310 309 310 310 309 309 309 308 306 305 304 304 304 303 301 298 302 302 300 299 298 298 299 301 300 301 302 302 304 305 306 307 307 309 307 313 319 322 325
309 309 309 309 309 310 310 311 310 309 309 309 308 306 305 305 306 306 303 300 300 303 302 300 298 297 298 299 297 296 296 298 299 300 301 302 304 306 308 310 313 316 318 322
308 307 308 309 309 308 310 311 310 310 309 308 308 306 304 305 305 304 306 304 303 300 302 299 298 299 297 297 293 292 292 294 296 297 297 298 300 302 304 307 309 312 316 319
305 305 306 306 306 305 305 306 310 310 308 308 307 305 304 304 304 302 300 306 305 301 302 302 300 299 298 294 292 292 291 290 290 293 292 294 296 298 301 302 304 306 304 302
305 303 304 305 305 304 305 304 306 307 308 308 306 307 305 304 303 302 305 303 300 301 302 302 300 299 298 296 294 292 291 291 290 289 290 290 293 295 299 298 298 298 297 296
305 305 305 304 301 300 298 303 307 304 305 306 306 306 307 306 304 304 305 305 299 301 303 300 300 300 299 297 295 294 292 290 290 290 289 288 288 290 295 296 296 296 296 296
304 303 304 305 303 298 298 301 303 301 304 303 304 305 305 304 303 302 302 302 303 302 303 303 303 300 302 299 298 295 294 293 289 288 290 289 288 287 289 292 294 295 295 295
305 299 302 304 303 302 301 301 302 302 302 302 302 305 306 303 302 301 300 301 301 300 302 303 303 302 302 300 299 298 296 295 292 290 287 287 288 287 286 288 288 290 291 292

GFSNGP_sfc_thetae_075.txt.gz
Theta_e
301 301 303 304 303 303 303 305 303 306 308 311 313 315 312 309 308 308 308 309 310 310 311 313 317 317 318 326 334 340 344 349 354 357 360 358 361 365 364 365 365 365 364 364
297 300 300 299 301 301 303 304 305 307 307 313 314 315 314 315 313 309 308 310 310 310 312 313 314 318 319 320 325 332 334 343 353 355 358 361 362 362 365 365 367 367 363 363
295 299 297 294 299 301 302 304 306 304 308 312 311 311 311 313 313 312 312 311 312 313 314 315 315 317 318 321 322 324 328 331 338 347 354 355 360 361 362 362 365 367 365 363
297 300 289 298 303 303 301 304 308 308 309 311 311 311 312 314 312 311 312 312 314 314 315 315 317 318 320 321 322 321 323 322 327 332 342 349 356 357 360 360 360 363 363 367
295 296 298 299 300 299 300 300 305 307 307 308 308 310 310 311 311 311 311 313 314 315 315 318 319 322 323 321 321 322 320 321 323 326 333 339 340 352 362 360 358 358 361 365
297 292 291 299 303 305 305 297 305 307 305 305 306 301 307 310 310 310 312 313 313 314 316 316 319 320 320 320 322 322 320 322 323 323 328 338 339 337 349 360 358 357 358 362
297 295 299 304 303 305 293 298 306 306 305 305 305 307 308 309 309 311 312 312 313 314 314 316 318 318 319 320 320 322 324 324 325 326 325 329 338 339 341 348 357 358 356 361
298 295 292 306 303 298 306 308 307 306 306 305 306 306 306 307 307 308 309 310 311 311 311 313 315 315 316 318 321 322 322 322 324 325 326 322 331 338 338 342 344 354 359 359
300 300 307 308 306 310 309 308 305 306 305 304 303 305 305 306 307 307 308 309 310 310 310 312 313 314 313 316 319 320 320 320 321 323 324 327 325 332 331 341 338 340 350 352
299 303 304 307 307 307 306 306 306 306 305 305 305 306 306 306 306 307 308 309 310 309 309 310 312 313 313 314 316 315 315 316 318 319 320 323 324 322 324 326 331 333 341 350
301 303 304 306 307 307 306 307 306 306 306 306 306 306 307 308 308 307 308 309 308 308 308 309 311 311 312 313 313 312 312 312 314 316 318 322 326 324 323 327 326 331 335 340
300 306 306 306 309 309 307 306 307 306 306 307 307 306 307 308 308 308 308 308 307 308 307 309 309 309 310 310 310 309 309 309 311 312 315 317 320 323 313 311 309 306 306 316
306 310 309 309 308 310 308 308 308 308 308 307 308 308 307 309 308 308 309 308 307 305 307 307 307 307 308 307 306 307 304 307 308 308 311 314 316 319 321 321 306 305 303 305
311 309 306 307 305 308 309 309 309 309 309 309 308 309 308 308 308 308 308 307 307 306 306 305 305 305 306 306 305 304 303 304 306 306 308 310 313 316 318 320 321 323 314 307
308 310 309 310 309 309 309 309 308 307 307 308 309 307 307 305 305 308 308 308 307 305 303 303 303 303 305 303 302 301 302 304 304 306 308 308 311 314 317 317 320 321 323 318
307 307 309 307 308 308 308 308 307 307 308 308 308 307 307 307 306 307 307 307 304 302 303 303 302 303 303 304 303 301 301 303 304 304 304 305 309 311 313 316 317 319 320 321
303 303 306 305 306 307 307 308 309 307 308 307 307 309 308 307 308 306 306 306 306 305 305 303 302 305 305 303 302 302 301 301 303 303 304 305 307 308 311 313 315 319 320 321
310 309 309 307 307 307 307 307 308 308 308 309 309 308 308 306 306 305 305 305 304 305 306 305 303 304 303 301 300 300 300 301 301 301 302 303 305 307 307 311 313 316 318 321
310 310 310 310 309 308 308 307 308 309 309 310 310 308 309 308 307 305 305 304 303 303 303 305 303 302 301 301 302 302 301 300 300 300 302 302 304 305 305 306 309 312 315 317
311 311 311 310 310 309 308 310 311 310 310 310 310 310 308 308 306 306 307 305 305 303 305 304 303 302 302 301 301 300 299 297 297 297 299 301 303 304 305 303 306 309 313 315
310 310 311 311 310 312 311 311 311 310 310 310 309 309 309 309 308 306 305 302 305 307 304 303 303 302 300 301 297 295 295 293 293 294 296 297 298 300 301 302 306 309 310 312
307 306 306 307 308 309 311 311 313 312 307 312 310 310 309 307 307 306 307 306 306 299 303 303 303 302 302 300 297 295 293 294 293 292 292 293 294 296 297 299 300 305 308 310
307 306 306 306 306 307 308 309 310 311 308 308 310 309 307 306 305 302 301 308 306 301 303 304 301 301 300 302 300 296 294 292 292 291 291 291 291 292 294 296 298 300 303 306
306 306 306 307 306 306 304 306 308 310 308 306 310 309 307 304 305 306 307 303 301 301 304 304 302 300 300 301 300 297 294 293 291 291 291 290 291 290 291 293 297 299 301 301
306 306 306 306 304 304 304 304 304 305 306 306 307 306 307 307 307 306 306 306 303 303 305 302 301 301 304 303 301 298 295 294 292 291 290 290 289 290 289 289 293 296 297 298
304 303 303 307 306 303 302 301 300 303 306 301 303 305 305 306 306 306 306 304 304 303 304 307 306 305 305 304 302 299 297 295 293 291 290 290 288 288 289 289 287 289 294 295
304 300 303 306 306 303 300 300 299 301 303 303 303 303 303 304 303 302 302 302 302 303 303 304 303 303 303 302 301 302 301 298 294 293 291 290 289 289 289 289 288 287 287 289

GFSNGP_sfc_thetae_078.txt.gz
Theta_e
303 303 302 304 303 305 303 305 303 306 309 312 313 312 311 312 312 311 310 311 313 313 316 317 318 319 318 320 328 333 335 341 342 343 360 368 367 365 366 364 364 365 364 363
299 303 301 300 304 303 304 304 305 308 308 316 315 314 312 312 312 311 312 311 312 314 315 316 317 320 322 320 320 327 329 333 336 345 351 355 362 363 367 364 365 364 363 362
296 301 300 295 300 301 302 305 308 304 309 313 312 313 314 314 313 312 312 313 313 314 315 318 317 320 320 324 325 323 323 325 329 335 340 345 355 361 364 363 365 363 362 362
297 298 289 300 306 304 302 305 310 312 311 313 312 313 315 314 312 312 312 313 314 314 315 318 319 319 323 323 326 325 326 324 325 326 331 340 346 343 349 362 362 362 361 363
295 291 297 300 302 302 300 301 310 310 311 312 312 312 310 311 312 312 312 313 314 314 315 320 321 323 324 323 326 325 325 327 326 324 323 329 339 341 343 348 356 358 359 361
298 293 290 299 303 306 305 297 308 310 309 309 309 304 306 311 311 312 313 313 313 315 316 317 319 319 319 322 324 323 324 326 328 329 327 326 327 337 341 345 347 354 356 359
296 295 298 305 304 306 294 297 308 309 309 307 305 308 310 311 311 312 312 312 313 313 313 314 316 316 317 319 319 322 323 324 326 327 327 330 332 330 337 338 342 347 347 356
297 295 293 307 304 298 306 309 307 308 306 306 308 308 308 309 309 309 309 310 311 311 311 313 314 314 314 317 320 321 322 322 324 325 324 323 327 330 330 333 335 340 343 348
300 302 310 309 308 312 311 309 308 308 307 307 305 306 307 307 308 308 308 310 310 310 311 312 314 313 312 316 317 318 318 318 319 321 322 324 325 328 327 328 332 333 336 336
302 305 306 309 309 310 309 310 309 309 307 306 305 306 306 307 307 308 309 309 309 308 308 310 313 313 312 315 317 315 315 315 316 316 316 318 320 322 322 324 322 325 329 334
301 304 305 306 308 308 307 308 308 307 307 306 307 306 307 307 308 308 308 309 309 307 308 308 311 311 311 313 313 309 311 311 312 313 314 316 319 320 321 325 324 325 325 327
301 307 307 307 309 310 308 306 307 307 306 308 308 307 308 307 309 308 308 309 308 308 307 308 308 309 311 312 310 306 305 306 307 308 310 311 312 314 312 309 306 304 303 310
306 310 310 311 313 311 309 309 308 308 309 308 309 309 309 309 309 309 309 309 308 307 308 308 307 307 308 309 307 305 303 304 304 305 306 308 309 309 310 314 309 304 301 302
311 310 307 310 308 310 310 310 310 310 310 310 309 310 309 309 309 310 310 308 308 307 307 306 305 305 308 306 307 303 302 302 302 304 305 306 308 309 311 312 314 317 313 306
310 311 308 311 311 309 310 310 308 307 308 308 309 309 309 308 307 308 310 308 307 306 305 304 304 304 307 306 305 303 301 301 301 302 304 304 305 306 307 308 310 312 318 315
310 309 308 306 308 308 308 308 307 307 308 308 308 310 309 310 309 308 308 308 305 304 304 305 304 305 305 305 304 303 302 303 303 302 302 303 303 304 306 306 308 312 313 316
307 305 307 307 306 308 307 308 309 308 309 308 311 311 311 309 309 308 309 307 307 306 308 306 305 306 304 303 302 301 301 301 301 300 300 301 302 303 304 305 307 308 311 314
311 310 310 308 306 306 305 309 309 310 310 310 312 311 311 310 308 309 309 308 307 305 306 308 305 304 304 302 301 300 301 301 300 300 300 300 300 301 303 303 305 306 308 310
310 310 309 309 310 311 310 310 310 312 313 313 312 311 312 312 309 309 309 307 305 305 306 306 303 304 303 302 302 299 297 297 297 297 297 297 297 299 301 302 303 304 306 308
310 311 311 311 312 311 309 311 312 308 310 309 313 311 311 311 311 308 309 306 308 307 307 305 304 303 303 303 302 299 297 295 294 294 294 294 294 295 298 298 300 302 305 306
310 310 308 308 310 312 312 311 311 307 309 307 305 308 312 312 312 308 308 304 310 308 307 305 304 303 303 302 301 299 297 295 294 293 293 292 291 292 293 295 297 299 301 303
307 306 307 307 307 308 310 309 309 310 311 313 314 309 307 308 309 307 311 307 308 306 305 304 304 303 302 302 301 300 298 296 294 292 291 292 291 290 291 292 293 294 297 299
306 306 306 306 305 306 307 307 306 308 307 310 310 310 308 305 307 304 304 311 308 305 305 305 304 302 301 302 303 301 300 298 294 292 292 291 291 291 291 291 291 292 294 296
305 305 307 306 306 305 304 306 306 307 309 309 310 311 309 304 305 308 307 307 304 303 305 305 305 302 301 303 303 299 299 299 295 294 293 291 290 290 290 290 290 290 292 294
305 305 305 305 305 305 304 304 304 303 305 307 307 310 307 307 305 305 306 306 305 305 305 305 305 304 304 306 305 303 300 299 296 294 292 290 290 289 289 289 289 289 288 291
305 303 304 306 305 302 302 303 301 302 302 302 302 305 306 306 308 305 306 304 305 305 305 305 307 306 305 305 303 304 302 300 298 294 292 290 290 289 288 288 288 288 287 287
305 302 303 305 304 303 302 301 300 302 304 304 302 305 305 305 304 302 302 303 303 303 304 304 303 303 303 302 302 302 301 302 297 296 293 291 290 289 288 288 287 287 288 287

GFSNGP_sfc_thetae_081.txt.gz
Theta_e
299 302 300 298 299 301 297 297 299 304 305 306 307 306 308 309 309 309 310 310 311 313 315 319 319 318 319 322 324 329 332 332 335 341 337 339 343 350 354 356 356 355 353 354
294 300 300 297 300 302 301 306 307 308 305 311 309 309 309 309 309 307 306 310 312 313 314 316 318 318 319 318 323 324 323 325 330 334 340 343 344 346 349 351 354 356 352 354
289 299 299 292 297 298 305 308 306 302 305 309 307 308 308 308 309 308 308 308 309 310 311 312 313 317 318 321 322 322 322 322 324 328 329 335 341 340 338 347 350 352 354 354
289 294 285 296 303 302 300 308 309 308 308 310 311 310 309 309 307 308 309 309 308 309 312 313 314 316 318 322 323 322 322 323 324 325 324 327 335 336 335 340 344 350 350 352
288 287 293 298 301 298 297 302 310 308 308 308 308 306 304 308 308 308 308 308 308 309 313 313 313 316 317 318 320 319 320 322 325 326 325 324 325 327 335 337 339 343 350 350
293 289 285 295 301 305 303 295 309 309 307 306 306 297 299 306 308 308 308 308 308 310 311 310 310 311 312 314 316 315 317 319 321 322 321 321 325 326 327 334 335 337 342 344
291 289 295 301 302 304 292 295 305 307 306 305 300 301 304 307 307 307 307 306 308 308 307 308 309 310 310 311 310 313 315 316 317 319 319 318 319 321 324 324 328 333 335 339
291 287 286 305 302 297 302 303 304 304 305 304 304 305 305 305 305 305 305 306 307 306 306 308 309 308 307 307 310 311 312 313 314 314 315 316 316 318 320 323 323 324 329 333
294 294 303 305 304 306 306 303 304 303 304 304 303 303 303 303 303 304 304 305 305 304 304 307 308 307 305 307 309 309 308 309 309 311 312 312 310 311 313 314 318 318 319 321
296 300 303 304 306 306 307 304 306 305 303 304 303 303 302 302 302 303 303 303 303 302 303 304 306 306 305 307 307 305 303 304 305 305 306 307 309 311 312 313 315 317 318 320
297 299 301 304 306 305 304 306 306 305 304 303 304 303 303 302 303 302 303 303 303 302 302 302 304 304 305 305 303 301 301 301 301 302 302 304 305 307 308 309 309 308 309 312
295 304 303 304 307 307 304 303 305 303 303 305 305 303 304 304 303 302 302 304 303 302 301 302 302 302 303 302 302 300 299 299 300 300 300 301 302 303 305 304 303 301 300 302
302 306 308 308 309 311 306 305 306 305 305 304 304 305 304 304 303 307 303 305 301 302 302 301 301 300 302 302 301 299 296 297 298 299 299 300 301 301 301 304 304 302 300 301
306 305 304 307 306 308 310 308 309 306 307 307 306 306 305 305 304 304 304 303 303 303 301 300 300 300 301 301 300 299 299 302 299 298 298 298 299 300 300 300 300 302 303 302
308 308 306 307 308 308 310 310 305 304 305 305 306 305 305 303 303 303 303 303 302 301 300 300 299 299 300 300 299 298 298 298 298 299 301 300 300 300 300 300 300 301 303 303
306 306 308 307 305 307 306 307 304 303 304 305 306 305 306 305 304 304 303 302 299 298 298 299 298 300 300 299 297 296 296 301 300 297 298 298 298 299 299 299 299 300 301 302
302 304 305 305 305 306 307 306 305 305 306 305 304 306 308 307 304 303 302 302 302 300 300 299 299 299 299 297 296 295 295 295 300 296 297 297 299 299 299 299 299 300 301 302
307 307 306 306 306 306 305 306 306 306 307 309 308 308 305 305 303 302 303 303 301 300 301 301 300 299 299 297 296 295 293 293 293 293 294 293 294 294 294 296 297 298 300 302
310 309 309 309 308 307 306 305 306 308 308 309 308 306 306 306 305 305 304 302 300 299 300 301 305 301 298 299 298 295 293 293 293 292 292 293 292 294 293 294 294 295 298 299
308 308 309 310 310 309 308 309 309 309 309 309 307 306 305 307 308 307 304 302 301 301 303 301 300 298 298 299 301 295 294 293 292 293 294 293 291 292 292 292 292 293 294 295
307 308 308 307 306 308 309 307 308 308 309 308 304 304 305 306 306 307 303 301 302 305 302 307 299 298 299 299 297 296 297 295 293 292 292 292 291 290 290 291 291 291 291 292
305 305 305 305 304 304 305 306 306 306 307 306 308 306 305 304 306 305 305 304 306 306 303 300 299 303 300 304 296 296 296 295 293 292 291 292 291 290 289 290 290 290 290 290
303 303 303 303 302 303 304 304 303 303 304 304 303 304 305 306 307 302 300 306 306 305 302 300 304 307 306 298 297 297 296 294 294 291 291 292 290 290 289 289 289 289 289 289
302 302 302 304 304 303 301 301 301 302 302 302 304 305 304 303 302 304 304 306 306 305 301 301 303 306 305 297 297 298 296 295 293 291 290 292 290 289 289 289 288 289 288 288
303 304 304 303 300 299 299 300 299 300 301 300 303 304 307 305 302 304 305 305 304 304 301 304 307 306 300 298 299 299 298 295 294 292 293 291 289 289 289 289 288 288 288 288
302 303 303 302 300 299 300 300 300 301 301 300 302 305 305 306 306 305 304 304 303 303 301 301 301 301 300 300 300 299 297 297 294 292 293 292 291 290 289 288 288 288 287 287
301 301 302 301 300 299 300 300 301 301 301 301 301 302 303 304 304 304 303 301 300 302 301 302 302 302 300 298 298 298 300 299 297 294 293 291 291 291 290 289 288 288 287 286

GFSNGP_sfc_thetae_084.txt.gz
Theta_e
298 297 297 296 296 298 292 295 297 300 301 302 304 304 305 306 309 308 308 309 311 314 316 318 318 322 323 325 328 332 333 334 335 338 338 341 340 338 339 345 350 344 344 345
293 301 299 295 298 301 304 308 305 304 300 306 306 307 305 306 307 308 309 310 312 313 315 317 317 317 323 322 323 324 324 325 329 332 334 336 340 339 339 340 346 349 348 349
287 297 298 291 295 297 304 309 306 300 303 306 304 306 307 306 307 308 309 310 312 313 314 314 317 319 317 320 322 322 322 323 324 324 325 326 333 337 335 337 341 345 347 348
286 290 285 295 301 300 303 306 307 305 305 306 306 307 307 308 307 307 307 309 310 313 313 314 317 317 319 321 321 322 322 324 324 323 324 326 327 327 330 336 337 339 343 345
285 284 291 298 299 297 295 299 308 306 307 307 306 306 302 307 307 306 304 305 308 310 308 308 309 312 315 315 316 316 317 319 320 322 321 322 324 325 327 330 329 332 335 340
287 284 282 292 300 303 304 294 306 307 305 303 304 296 299 305 306 305 306 307 306 307 307 308 308 311 309 308 309 310 312 314 316 317 317 317 318 320 324 326 328 330 331 334
286 285 292 299 301 303 290 292 305 306 305 304 299 300 301 305 304 304 305 306 306 306 305 305 306 307 305 305 305 308 310 311 312 313 313 313 314 315 317 320 323 326 328 332
286 282 283 302 302 294 297 299 302 303 302 301 302 303 303 303 302 303 304 305 305 304 304 305 305 304 303 304 306 306 306 306 307 308 310 311 310 310 312 312 313 316 319 322
290 289 298 301 301 302 303 301 300 303 305 303 303 302 302 301 301 301 302 301 302 302 303 304 304 303 302 303 303 303 301 301 302 304 304 305 305 307 308 309 309 310 311 311
292 297 298 300 303 304 303 303 303 303 302 303 300 301 301 299 301 301 300 300 301 301 301 300 302 302 301 301 301 300 298 298 299 299 300 300 303 305 305 306 306 305 305 305
291 295 297 302 302 303 302 304 304 302 302 303 301 300 300 300 300 300 300 300 301 300 299 299 300 300 300 300 299 297 297 297 296 297 296 297 299 300 302 303 303 303 304 305
291 298 297 297 301 303 301 302 302 301 300 302 301 301 302 300 300 300 300 300 299 298 299 298 299 299 299 299 298 296 295 295 295 295 295 296 296 298 301 301 300 299 298 299
298 301 302 305 308 308 302 301 303 301 302 302 302 302 302 300 299 303 301 299 299 299 299 298 297 297 298 298 297 296 294 295 295 296 295 295 295 295 296 299 300 298 297 298
303 302 299 303 301 307 307 305 307 303 303 303 303 303 303 301 301 301 301 300 300 299 298 298 297 297 298 298 297 296 295 300 295 295 295 295 295 297 297 297 296 297 299 299
303 303 302 302 303 304 306 306 303 302 303 302 302 302 303 301 300 300 301 301 302 299 298 297 297 297 297 297 296 294 294 294 294 294 294 296 296 296 297 296 296 297 298 298
304 303 302 302 302 303 304 304 302 300 302 302 302 301 302 303 302 302 301 300 298 297 297 296 296 298 298 296 294 293 293 299 298 293 294 295 295 296 296 296 296 296 297 297
298 298 298 299 301 302 302 307 306 305 303 303 303 303 303 302 301 300 300 300 299 299 298 298 298 297 297 296 294 294 293 292 297 291 291 291 292 292 292 292 292 292 293 295
302 303 303 302 302 303 303 307 307 306 306 307 307 302 301 302 301 301 301 300 297 297 298 298 299 297 297 296 295 294 292 291 291 290 290 290 291 293 291 291 292 292 292 294
305 305 305 306 306 304 304 303 307 307 308 307 307 305 304 304 303 303 302 299 298 297 297 298 305 301 296 297 297 293 292 292 291 290 290 292 290 292 292 291 291 292 292 291
304 305 305 305 309 307 306 306 306 305 306 308 307 305 305 306 307 306 302 299 300 301 300 300 303 296 296 297 304 294 293 292 292 291 290 289 289 290 292 291 291 291 291 291
304 305 303 304 305 307 307 307 308 306 308 308 306 305 305 306 306 307 304 300 302 302 301 304 299 296 295 297 300 294 293 292 292 291 290 289 289 290 291 289 290 290 290 290
299 299 300 300 300 301 302 301 300 301 302 305 306 306 303 304 305 305 306 304 306 306 304 304 300 300 297 306 294 294 293 293 292 291 290 289 288 289 290 288 288 289 289 289
297 297 298 298 298 298 298 297 297 298 298 298 299 300 300 301 302 301 300 305 306 306 305 304 303 305 307 301 294 294 293 293 292 291 290 288 288 289 289 288 289 289 288 288
296 296 297 298 297 295 293 294 295 296 296 297 298 299 299 298 302 302 303 305 305 305 305 305 303 306 307 296 294 293 294 293 292 291 290 291 288 290 289 289 288 288 288 288
297 297 297 295 293 293 293 294 295 296 298 298 298 298 300 301 300 299 302 305 305 305 303 305 306 307 301 295 294 294 295 294 294 292 289 288 287 288 290 289 288 288 288 288
296 296 295 294 293 293 295 295 294 297 298 298 299 303 302 303 303 303 304 304 303 303 303 299 300 302 298 296 296 296 295 295 294 293 290 289 288 291 291 290 289 289 288 287
296 296 294 293 293 293 293 295 294 294 296 296 299 303 303 303 301 302 302 302 301 300 299 299 299 300 297 297 297 296 295 294 294 293 289 288 288 291 291 291 291 290 288 288

GFSNGP_sfc_thetae_087.txt.gz
Theta_e
296 296 296 294 295 298 291 292 294 298 300 305 304 303 304 306 308 308 309 312 314 315 317 319 321 323 326 329 332 336 336 336 335 337 337 339 339 338 338 339 343 347 343 340
292 301 297 294 297 297 304 304 302 300 297 304 304 304 304 306 307 306 308 309 312 314 315 316 318 321 324 323 325 326 327 329 332 333 332 333 338 337 336 337 339 339 344 345
287 293 299 293 294 295 301 305 303 298 300 304 302 303 303 304 306 307 310 310 312 313 315 316 317 317 318 320 322 322 322 324 325 326 325 325 327 328 333 334 334 335 338 343
286 289 284 296 301 302 303 304 304 303 303 305 304 304 304 306 308 309 310 311 312 312 312 314 317 319 319 320 319 320 320 321 323 324 324 325 326 325 326 328 328 329 330 333
284 283 289 295 298 297 298 298 305 304 305 305 305 304 302 306 307 307 306 309 308 309 310 312 313 314 312 312 312 312 313 314 316 317 317 317 317 319 322 323 325 327 330 331
285 284 282 291 299 301 300 293 306 306 305 303 304 296 298 303 305 305 306 306 306 306 307 307 306 307 307 306 307 307 309 310 312 312 314 314 313 315 317 319 323 326 327 329
285 283 290 298 301 303 292 290 304 308 306 305 302 299 302 303 303 304 305 305 305 305 305 304 304 306 304 303 303 305 306 306 306 307 308 309 311 311 312 313 315 317 321 325
283 281 282 300 300 291 296 298 301 306 306 305 300 302 303 303 302 303 303 304 304 303 302 302 303 304 301 301 301 302 302 302 302 302 304 304 304 307 309 309 309 310 309 313
289 287 295 299 299 300 299 299 299 301 302 302 303 303 302 301 301 302 303 303 303 303 301 301 302 301 299 299 300 300 299 298 298 299 300 300 300 302 304 305 305 304 305 305
291 295 297 299 300 300 300 301 303 304 306 307 305 304 301 300 300 300 301 301 301 300 299 299 300 300 299 299 299 298 297 296 297 296 296 296 299 300 300 301 302 302 303 302
290 293 296 300 300 300 302 303 302 304 304 304 304 301 300 299 300 300 299 299 300 298 298 298 298 298 298 298 297 295 295 295 295 295 294 295 296 297 298 299 299 299 300 300
290 294 295 295 299 303 301 302 302 301 300 302 303 301 302 300 300 299 298 298 298 297 298 297 298 297 297 297 296 294 293 294 294 293 293 294 294 294 299 299 299 297 296 297
297 299 300 301 304 305 302 301 302 301 301 300 300 302 301 299 299 301 299 298 298 298 297 297 296 296 297 296 296 294 292 292 293 294 293 293 293 293 293 296 299 298 296 296
301 301 298 302 301 306 307 306 305 302 301 303 302 302 301 300 300 300 299 300 299 298 297 296 296 295 297 296 295 293 292 298 292 292 292 293 293 293 294 293 294 295 297 296
301 301 300 300 302 303 304 305 303 301 301 300 302 302 301 299 300 300 301 299 300 298 296 296 296 296 296 296 293 292 292 292 292 291 292 293 292 293 293 293 292 292 293 295
302 302 302 300 301 301 302 301 301 300 300 301 301 302 302 302 301 301 300 299 297 296 297 296 295 296 296 294 293 292 292 298 294 290 290 290 290 290 290 289 289 290 291 291
297 296 296 297 300 300 301 303 302 302 302 302 302 304 304 304 302 300 300 300 301 299 298 297 297 297 296 294 293 293 292 291 296 290 289 289 289 289 289 290 289 290 290 292
300 299 301 301 300 301 302 303 304 304 306 308 308 306 303 301 300 300 300 300 299 297 298 298 297 297 296 294 293 293 292 290 290 290 290 289 289 289 289 289 289 289 290 291
303 303 303 304 303 303 303 302 304 304 304 306 307 306 306 303 302 302 302 300 298 298 298 297 304 301 295 296 296 292 292 291 290 290 290 292 289 289 288 288 289 289 290 290
304 304 304 303 305 306 306 306 303 303 303 305 307 306 305 306 305 304 302 300 300 302 303 300 304 298 296 297 305 293 292 291 291 290 290 289 288 288 288 290 289 289 289 289
302 302 302 302 302 305 307 306 305 303 303 303 304 305 305 306 306 305 303 299 302 304 301 304 304 301 299 298 303 294 292 291 291 290 290 290 289 288 287 289 289 289 288 288
300 300 298 298 300 301 300 299 298 300 299 298 301 303 302 303 303 303 306 305 305 306 303 303 304 304 300 305 296 293 293 292 291 290 289 289 288 287 287 287 288 289 289 289
295 296 297 296 295 293 294 294 294 295 295 295 295 296 298 300 300 301 302 304 305 305 304 303 305 306 305 303 296 293 292 292 292 290 290 289 288 287 286 287 287 289 289 288
294 295 295 294 294 293 292 293 294 295 295 295 295 296 295 296 297 300 299 304 306 305 305 305 306 308 308 301 296 294 293 292 292 291 290 292 288 286 286 286 287 290 289 288
296 295 294 293 291 291 291 293 293 294 294 294 300 299 297 297 298 298 300 302 305 305 304 307 308 307 304 299 297 295 294 292 292 292 290 290 289 287 286 286 287 289 289 288
294 293 293 292 291 291 292 292 291 293 294 299 301 303 302 297 297 298 301 304 305 305 301 299 301 301 299 297 296 295 294 293 292 291 292 291 289 288 287 287 288 290 290 290
293 293 291 291 291 291 292 293 291 293 294 296 299 301 302 302 300 299 300 300 301 301 301 302 300 300 298 297 296 295 294 293 293 293 290 289 287 287 287 287 290 291 291 290

GFSNGP_sfc_thetae_090.txt.gz
Theta_e
295 295 295 294 294 296 296 290 293 295 300 303 305 304 304 306 310 311 312 314 317 318 320 322 325 327 331 331 334 338 338 339 337 337 338 340 340 340 340 341 342 346 348 346
292 297 298 296 297 299 303 303 301 300 300 305 305 305 304 306 306 308 310 312 314 316 318 320 322 324 326 327 328 330 330 332 335 333 331 333 336 337 337 338 339 342 342 346
287 292 298 293 295 299 302 304 302 297 299 303 302 304 304 305 306 307 309 311 313 314 315 316 317 320 321 322 325 325 325 326 327 327 326 327 328 329 332 331 333 333 334 336
287 288 284 295 301 304 303 304 304 302 303 304 303 304 305 307 307 308 309 311 311 312 314 317 318 317 317 317 317 318 317 318 320 321 321 324 324 323 325 327 329 330 331 333
284 283 288 294 296 296 296 299 304 302 303 303 304 304 304 307 308 307 310 310 310 313 314 313 312 313 311 311 312 311 311 312 314 317 315 316 316 318 320 321 325 325 329 330
284 282 281 289 299 304 301 291 305 305 304 303 303 297 299 305 306 308 308 309 309 309 311 309 309 310 309 308 308 306 307 308 310 311 312 312 313 315 317 318 321 325 326 325
285 283 289 296 300 303 291 291 305 308 306 304 302 303 303 304 305 306 306 306 307 306 305 306 306 306 304 304 303 304 305 305 305 306 307 307 311 311 312 314 314 315 316 318
283 282 282 299 299 292 296 300 304 307 306 305 302 303 304 304 304 304 304 305 305 303 303 304 305 304 301 301 302 303 303 303 302 302 303 303 305 306 308 308 309 307 310 310
287 287 294 297 297 300 300 301 303 305 305 304 303 303 303 303 303 304 304 303 303 302 301 302 303 302 300 301 302 301 300 300 300 301 301 302 302 302 303 304 304 304 305 303
291 295 297 299 301 302 302 302 304 304 305 306 305 304 303 303 303 304 304 302 303 302 301 301 301 301 301 301 301 300 299 298 299 299 299 299 300 301 300 300 300 300 301 300
290 293 296 300 302 302 303 304 304 305 306 306 305 304 304 303 302 303 303 303 302 301 300 300 300 300 300 300 299 298 298 297 297 298 297 298 299 298 299 300 299 299 300 300
289 295 296 297 300 303 302 303 303 303 303 305 305 304 304 303 302 302 302 302 300 300 300 299 299 299 299 299 298 297 297 297 297 297 297 297 297 297 299 298 298 296 296 297
296 297 298 302 305 306 302 302 303 302 303 302 302 303 303 302 301 302 301 301 300 300 300 299 299 299 299 299 298 297 296 296 296 296 297 296 296 295 295 297 298 296 295 296
300 301 299 303 301 306 307 307 307 304 302 303 304 303 303 301 301 300 300 301 301 301 299 299 298 298 299 298 297 296 297 297 296 295 296 295 295 295 295 294 293 294 295 295
301 301 300 301 302 303 305 305 304 303 302 301 304 303 302 300 301 301 302 301 301 300 299 298 297 297 299 298 296 295 295 295 294 294 295 294 294 294 293 293 292 292 293 294
301 301 302 302 301 302 303 303 302 301 302 302 301 302 302 303 303 303 302 300 299 298 299 298 298 299 298 297 296 295 296 297 294 293 293 293 293 293 292 292 292 292 292 292
298 297 297 297 300 301 302 303 303 302 302 301 301 302 302 303 303 303 301 301 302 302 301 299 299 299 299 297 296 295 295 298 296 294 294 293 293 293 292 292 292 292 292 293
301 300 300 301 301 301 302 303 303 304 304 305 306 303 302 302 301 302 302 302 302 301 300 301 300 299 299 297 296 296 295 294 294 294 294 294 294 294 293 293 292 291 292 292
302 302 303 304 303 303 303 303 305 306 306 306 305 305 305 305 303 302 304 302 301 299 300 300 304 303 299 299 298 296 295 294 294 294 294 294 295 294 294 293 293 292 292 291
304 304 305 304 306 305 304 305 305 305 305 305 305 305 305 306 306 304 304 302 301 302 305 301 304 301 299 299 304 296 296 295 295 294 294 294 294 294 294 292 292 292 291 291
302 302 303 304 302 301 299 300 302 302 301 304 304 304 305 306 307 306 302 300 303 305 305 304 303 302 300 299 304 297 296 295 295 295 295 295 295 294 294 293 293 292 291 291
299 298 298 299 298 296 297 296 297 297 297 297 298 299 302 304 305 306 304 303 306 306 305 304 304 305 301 306 301 299 297 296 296 295 294 295 294 294 294 294 293 292 291 291
296 297 296 295 295 294 294 295 296 296 296 296 296 296 296 298 301 302 302 307 308 306 304 303 305 307 305 303 300 299 298 297 296 296 296 295 295 295 294 294 293 292 291 291
295 295 294 294 294 294 293 294 295 295 295 295 296 297 296 296 298 301 303 304 305 305 305 305 306 307 306 303 301 300 300 298 297 297 297 294 296 295 294 294 293 293 292 291
296 295 294 293 293 293 294 294 294 295 295 301 301 301 303 300 298 301 302 303 304 305 305 306 307 307 304 302 300 301 300 299 298 298 298 297 296 295 294 294 293 293 292 292
294 294 293 294 294 294 295 294 294 295 297 297 299 301 304 302 300 301 303 304 306 305 305 306 306 306 304 303 302 302 301 299 298 297 297 298 297 296 295 294 293 293 293 293
293 293 293 293 294 294 294 294 294 295 296 296 297 300 301 301 302 303 303 304 305 305 304 305 305 304 303 303 302 301 300 299 297 299 298 297 297 297 295 295 294 294 294 294

GFSNGP_sfc_thetae_093.txt.gz
Theta_e
301 302 303 303 305 307 301 301 302 304 306 312 316 317 317 319 316 317 319 320 322 322 324 327 330 334 337 340 341 340 339 338 339 341 345 346 348 348 349 350 352 357 358 358
298 301 303 300 305 309 308 307 307 307 307 312 318 316 314 317 315 316 318 318 319 320 322 323 325 328 329 331 333 340 340 339 339 341 335 335 344 345 345 345 346 349 351 352
296 299 302 298 301 304 306 309 309 305 310 314 312 313 315 317 318 316 317 317 317 318 317 319 321 323 324 326 328 328 329 330 331 332 333 331 332 335 337 338 339 339 340 344
296 299 291 300 306 307 306 308 310 310 310 314 315 316 316 317 318 317 318 319 319 320 318 317 318 318 318 320 321 321 320 320 322 324 325 329 330 328 329 332 334 335 336 338
295 295 296 299 300 301 302 303 310 309 311 312 312 313 312 316 318 318 318 319 320 322 319 315 314 315 314 312 313 314 314 315 317 318 318 319 320 323 325 328 330 332 333 338
296 291 289 298 303 307 306 299 312 312 312 311 312 310 313 315 316 316 317 316 317 315 314 314 313 312 310 309 308 307 309 310 312 312 313 314 316 320 323 326 328 328 326 324
296 294 296 302 305 307 297 300 310 313 314 313 312 314 315 316 316 317 315 315 314 316 313 310 311 313 310 310 307 308 309 311 312 312 309 312 315 317 317 318 320 321 320 321
295 293 291 305 305 300 305 309 309 314 315 313 311 312 313 314 314 314 315 315 316 315 315 315 315 312 309 307 308 309 309 309 310 310 310 309 312 313 313 313 313 315 316 314
299 299 304 307 307 309 309 308 311 312 316 315 311 311 312 313 313 314 314 313 314 313 312 312 312 313 311 309 310 310 309 308 309 309 308 309 309 309 310 310 308 306 308 309
301 305 306 308 309 309 310 310 311 312 314 314 312 312 311 312 312 312 312 311 312 311 311 310 311 311 310 309 309 309 308 307 307 307 307 307 307 307 307 306 306 307 306 304
301 303 305 308 310 310 309 311 311 312 313 314 313 312 312 311 311 311 311 311 312 311 311 310 310 309 308 308 308 306 306 306 306 306 306 305 305 305 306 305 304 305 304 305
302 308 309 308 311 311 310 310 312 312 312 314 315 314 314 311 310 310 310 311 311 311 311 309 309 308 307 307 307 306 305 305 305 305 305 305 304 303 298 299 297 295 296 299
306 308 309 310 311 311 310 310 310 311 312 313 313 314 314 314 313 311 311 311 309 309 311 309 309 308 308 307 306 306 304 304 303 304 303 302 302 302 301 299 297 295 294 295
308 309 307 310 310 313 313 312 310 311 312 311 312 313 313 313 312 311 311 312 312 312 310 310 309 308 308 307 306 305 304 301 303 302 301 301 301 301 301 301 300 300 296 295
309 309 310 312 311 312 312 311 310 310 310 310 311 311 311 311 311 311 313 313 312 311 310 309 308 308 308 307 305 304 303 302 301 301 300 299 300 300 300 300 300 299 301 298
310 309 308 309 310 309 309 309 309 309 310 310 310 311 311 312 312 312 313 310 309 308 309 309 309 309 308 307 304 303 303 300 300 301 299 300 300 300 299 299 299 299 299 298
306 306 308 307 307 308 309 310 311 310 310 310 310 311 311 310 310 311 311 311 310 312 311 310 309 310 308 307 304 302 302 301 300 301 301 301 300 300 299 299 298 298 298 297
310 311 311 311 309 309 310 310 311 311 311 312 312 311 310 309 309 310 310 310 308 310 312 311 312 309 308 307 304 303 303 302 302 301 301 301 301 302 301 301 300 299 298 298
309 309 310 311 311 311 310 311 311 312 312 312 312 311 312 312 311 311 311 309 308 307 310 311 310 309 308 307 305 303 302 302 302 302 301 300 301 302 302 303 302 301 299 298
309 311 311 311 312 311 311 311 311 311 310 311 312 311 311 313 313 312 310 308 309 308 309 309 307 308 307 307 306 304 302 302 302 302 302 302 302 302 303 297 300 301 301 299
310 310 309 308 306 306 305 306 305 305 305 305 306 308 310 312 313 313 310 304 306 307 306 307 305 306 303 304 305 302 302 301 302 302 302 302 302 302 302 302 302 302 301 300
307 306 306 306 305 303 304 304 304 303 304 304 304 304 304 305 308 309 312 311 310 307 308 306 305 306 303 306 305 300 300 302 303 303 303 303 303 303 302 303 302 302 302 301
305 305 305 304 303 302 303 303 303 304 303 304 303 303 302 303 304 303 303 312 312 309 310 308 306 306 306 305 303 302 301 301 302 303 304 304 304 304 303 303 303 303 303 302
304 304 304 303 303 302 302 302 303 303 304 305 305 305 303 300 303 307 307 307 305 308 311 312 308 307 308 305 301 301 301 303 304 305 305 298 304 304 304 303 303 304 303 301
305 304 303 302 302 301 302 304 304 303 304 304 305 307 307 305 301 304 308 309 305 307 310 308 306 307 306 304 302 301 302 303 305 305 307 306 306 305 305 305 304 304 303 303
304 303 303 303 303 303 304 305 303 305 304 303 304 306 306 308 306 305 308 306 310 308 308 308 307 306 303 302 302 302 303 305 305 305 306 308 307 307 306 306 305 304 303 303
303 299 302 302 303 304 304 303 303 303 304 304 304 306 306 306 306 307 305 309 308 309 307 307 307 306 305 305 305 305 305 307 304 309 309 307 308 308 308 307 306 306 305 304

GFSNGP_sfc_thetae_096.txt.gz
Theta_e
306 307 307 306 306 306 306 307 304 308 309 319 324 326 327 326 327 326 328 331 328 326 329 331 338 347 348 347 348 350 345 342 344 346 348 350 353 355 358 359 358 361 361 361
303 306 306 306 308 308 307 307 308 309 309 319 327 329 328 326 322 325 327 328 327 325 327 327 328 334 342 345 346 350 345 344 344 347 346 345 347 350 351 352 355 357 357 359
299 304 305 301 306 307 310 311 311 307 316 321 322 323 325 326 326 326 327 328 326 324 324 325 325 327 328 330 334 335 336 337 337 339 341 339 335 337 344 347 349 348 351 353
299 302 293 305 310 310 309 311 313 315 317 320 322 325 327 329 328 326 326 323 325 322 321 320 319 319 324 323 324 325 326 325 328 331 333 335 333 334 337 340 347 348 346 346
299 298 302 303 306 306 306 307 313 315 317 321 324 323 322 325 328 329 329 329 326 325 320 318 317 317 316 317 319 318 320 322 321 321 323 329 331 335 339 341 342 342 344 337
300 296 294 304 306 310 310 303 314 317 318 319 321 316 320 325 327 326 327 329 329 324 317 315 314 315 312 311 311 311 314 316 318 320 320 321 324 324 329 331 336 337 337 331
299 297 300 307 308 311 300 304 315 319 320 320 319 318 323 325 324 325 326 325 325 323 319 317 315 312 310 309 308 308 311 312 314 315 316 318 320 321 324 330 331 331 330 329
301 297 294 309 308 304 310 314 315 319 320 320 320 320 322 323 322 322 322 322 320 317 314 313 316 317 312 309 310 312 313 312 313 315 314 317 319 319 323 323 323 326 325 322
302 304 311 313 313 314 315 314 315 317 320 321 319 319 321 321 321 321 321 320 321 320 320 320 317 315 311 312 314 314 312 312 312 314 319 319 318 315 314 319 317 315 316 317
304 308 309 312 314 314 315 314 315 318 320 321 319 320 320 321 321 321 322 321 321 320 319 318 319 318 318 317 316 315 313 313 313 314 316 318 317 317 317 314 314 315 315 312
305 309 311 313 314 314 313 314 314 317 319 320 321 320 320 320 321 321 321 320 320 320 319 318 318 317 316 316 315 314 312 313 313 312 314 313 313 311 313 309 306 312 313 314
303 308 310 308 314 316 314 313 314 314 315 319 320 320 321 321 322 321 321 321 320 320 319 318 317 316 315 314 313 312 311 310 311 311 311 312 310 307 298 299 297 295 295 299
309 314 313 315 315 316 314 315 315 315 317 316 318 320 321 321 322 318 320 319 317 317 318 318 316 315 315 314 313 311 310 311 309 306 309 309 309 308 304 298 297 295 295 295
314 314 312 313 312 316 316 316 312 316 317 318 318 318 319 320 321 320 320 321 321 320 319 318 316 315 315 313 312 311 310 302 308 308 307 307 308 309 309 307 306 305 296 298
314 315 314 316 317 316 316 314 312 312 314 315 317 316 317 318 319 320 322 322 321 320 318 317 315 315 316 313 311 310 308 306 307 307 307 306 307 307 307 307 307 307 306 297
314 314 314 314 314 314 313 311 310 312 313 314 313 315 316 317 318 319 321 322 319 317 318 318 317 317 316 313 311 309 309 305 306 306 304 305 305 305 305 306 305 306 306 304
312 311 312 311 311 311 310 313 313 313 313 313 313 314 315 315 316 317 318 319 320 320 320 319 317 318 316 313 311 308 307 305 306 306 305 305 305 305 305 305 305 306 305 299
315 315 316 315 312 311 311 312 313 313 314 314 315 314 314 314 315 316 317 318 318 318 319 320 320 318 316 313 311 308 307 306 305 306 306 305 305 306 305 305 305 305 306 301
315 315 315 314 313 313 312 313 314 315 316 315 314 314 314 314 315 316 317 316 316 315 316 319 317 317 316 314 311 309 307 307 306 306 306 304 304 306 305 305 305 306 306 306
314 315 315 315 316 314 315 315 315 315 315 314 314 314 313 313 314 314 315 315 315 315 317 317 317 313 315 314 311 310 308 308 307 306 306 305 305 306 306 300 304 305 305 305
315 315 315 315 313 313 312 311 311 310 309 310 309 309 310 311 313 314 312 310 315 318 316 314 315 311 311 312 311 309 308 307 307 307 306 305 306 305 305 306 305 305 305 305
314 312 311 310 310 309 309 309 308 308 308 308 309 309 308 308 309 310 312 311 314 310 314 314 315 313 309 310 307 306 304 306 305 307 307 306 306 306 305 305 305 305 306 306
311 310 309 308 307 308 308 308 307 307 307 308 307 307 306 305 306 305 305 312 312 312 314 314 312 310 309 307 306 304 301 301 303 304 306 307 306 306 306 306 306 306 306 306
309 308 309 309 308 307 305 307 307 308 308 308 308 307 308 305 304 305 308 308 306 309 314 314 311 307 308 308 304 303 301 301 302 305 306 300 305 305 306 306 306 306 307 305
309 309 309 307 306 305 306 307 306 308 309 309 308 308 309 309 305 307 308 310 306 307 313 310 309 308 310 307 306 306 303 302 302 302 304 305 305 306 307 306 307 307 307 307
309 307 307 307 306 306 306 306 307 308 306 305 306 307 308 308 310 309 310 308 310 309 312 311 312 312 310 307 304 303 302 303 302 303 303 304 308 308 306 307 307 307 308 307
309 304 306 305 306 306 307 308 306 307 306 306 305 308 306 306 306 310 307 310 310 311 309 308 305 304 304 304 304 303 303 304 303 305 307 309 310 310 309 309 309 309 309 308

GFSNGP_sfc_thetae_099.txt.gz
Theta_e
307 309 309 307 306 307 306 309 306 307 310 322 328 329 331 331 330 330 332 333 331 333 336 342 347 348 349 348 348 350 349 350 349 346 348 349 349 353 355 359 358 359 359 360
305 308 308 306 308 308 308 308 309 308 313 326 331 333 332 331 332 332 331 332 332 329 331 331 336 347 350 351 348 350 351 350 350 351 353 351 353 351 353 355 356 358 358 359
300 307 307 302 308 308 309 311 310 308 315 323 327 329 331 331 331 330 331 330 330 330 329 329 328 333 338 344 351 349 347 346 348 348 348 348 349 349 345 348 355 353 354 350
304 305 296 306 312 313 311 313 314 317 320 323 326 330 332 334 333 332 330 330 332 329 325 323 321 324 327 327 333 338 337 336 337 338 339 341 343 343 338 343 348 351 350 345
298 296 303 307 309 309 309 310 315 317 319 323 327 329 328 332 334 332 332 332 332 330 325 321 318 317 319 320 320 321 327 327 329 332 335 336 336 342 342 345 346 347 347 342
304 296 296 302 310 313 312 305 316 318 319 322 324 318 324 331 332 332 331 330 329 326 321 318 316 317 314 313 317 314 314 317 327 325 326 329 333 335 339 341 342 342 336 336
302 299 300 310 311 313 301 304 317 319 320 322 322 325 329 331 330 331 330 329 327 324 318 315 315 315 313 312 309 312 313 316 317 320 321 323 325 325 327 334 338 338 336 333
302 298 297 312 310 305 315 317 318 321 322 322 324 325 328 328 328 329 328 327 327 326 323 318 317 313 310 310 314 313 314 314 316 317 317 319 323 323 327 328 329 331 332 329
305 306 315 315 316 318 318 317 317 319 322 324 322 324 326 327 327 327 327 326 325 322 320 320 321 323 312 312 314 314 314 313 314 317 318 319 323 321 319 323 322 323 322 321
307 310 310 312 315 316 317 316 317 319 321 322 321 324 325 326 326 325 326 325 325 324 322 321 319 318 317 320 320 318 317 315 315 315 317 320 318 318 318 317 317 318 316 317
308 311 312 313 315 315 315 315 314 317 319 321 322 323 325 325 326 326 326 325 325 322 322 322 323 322 321 318 317 315 316 315 315 314 314 316 316 310 311 309 305 307 316 315
306 312 313 312 316 316 314 314 315 315 317 320 323 323 324 325 326 327 326 325 324 324 323 322 322 321 320 320 319 317 315 314 314 314 314 314 313 309 298 298 297 296 295 299
311 315 316 316 317 318 315 316 316 316 317 317 320 324 324 323 325 322 326 325 325 324 324 324 322 320 320 319 318 317 314 316 313 308 312 312 312 311 307 299 297 296 295 295
317 317 313 315 314 317 316 317 316 317 318 319 319 319 320 322 325 325 324 326 326 325 323 324 322 320 320 319 318 316 315 305 312 310 311 311 311 311 311 309 308 306 296 299
316 317 316 319 317 317 318 317 315 314 316 317 318 318 319 319 320 323 325 325 326 324 324 323 322 320 321 319 317 315 313 310 309 310 310 308 310 310 309 310 310 309 307 297
317 316 316 316 317 317 316 314 313 314 315 314 314 315 317 319 320 321 323 324 322 321 323 324 322 321 321 319 317 313 313 306 309 309 308 308 308 307 307 308 308 308 308 308
315 313 314 315 314 315 314 315 314 314 314 314 314 315 316 316 317 318 320 321 323 324 325 325 323 324 322 319 316 313 311 309 309 308 307 307 307 307 307 307 306 307 307 300
317 317 317 316 314 313 313 313 314 314 315 315 316 315 315 314 315 316 318 320 320 321 323 326 325 325 322 319 316 313 311 309 306 307 308 308 307 308 307 306 306 306 306 302
318 317 316 317 316 315 315 314 315 316 316 315 315 314 315 315 315 315 316 316 317 316 318 322 322 321 320 320 317 313 311 310 308 307 308 307 307 308 307 307 307 307 307 306
317 318 316 315 316 315 315 317 315 315 315 315 314 313 313 313 314 315 316 312 315 315 321 319 321 320 321 319 317 313 312 310 310 309 309 308 307 307 308 302 307 307 307 306
316 316 316 318 317 317 316 316 315 314 313 312 311 311 311 312 313 313 311 309 314 316 318 317 318 319 320 318 315 310 309 310 310 310 309 308 308 308 308 309 308 306 307 307
316 316 317 317 315 314 313 313 311 311 310 310 311 311 311 310 311 311 313 311 312 312 316 317 317 316 317 317 315 311 308 306 308 310 310 309 308 309 309 309 308 308 308 308
316 316 315 314 312 311 310 311 310 310 310 310 310 310 309 309 308 307 305 311 311 309 313 314 314 313 312 315 315 314 312 306 304 304 307 309 309 309 309 308 308 308 308 307
315 315 313 312 311 309 307 309 309 310 311 311 310 311 310 308 308 310 310 307 306 309 311 315 313 310 310 312 314 313 310 304 303 304 304 301 306 307 307 308 307 308 308 305
314 312 311 310 308 307 309 309 308 309 309 309 309 309 309 311 308 309 311 312 309 309 312 311 310 308 312 312 313 310 306 304 302 302 304 304 304 305 306 307 307 306 307 308
311 309 310 310 308 308 308 307 307 309 307 305 306 307 306 310 310 310 313 309 314 311 313 314 314 313 313 312 310 308 307 306 302 302 302 302 303 304 305 306 306 308 308 307
311 306 309 308 308 308 309 308 306 306 305 306 305 307 307 307 309 306 305 311 311 309 309 309 310 307 308 308 307 306 305 304 302 302 302 302 303 303 305 307 308 309 309 309

GFSNGP_sfc_thetae_102.txt.gz
Theta_e
306 307 308 308 305 306 306 306 304 307 313 319 325 329 331 332 333 334 334 335 340 338 341 346 349 350 351 350 349 347 346 347 348 350 346 347 349 348 351 350 352 353 355 359
305 308 308 306 308 307 307 307 308 310 316 322 324 328 331 330 329 330 332 333 334 335 338 336 342 347 348 348 347 350 349 347 349 351 350 350 349 348 347 347 349 350 350 352
303 307 307 302 307 308 308 309 309 311 318 319 315 318 330 331 331 331 331 331 332 332 332 330 331 338 339 350 351 351 351 351 350 350 351 350 350 350 349 346 345 345 346 340
302 304 296 307 314 312 312 311 318 319 319 323 324 331 332 334 333 331 330 330 331 329 327 324 324 327 327 330 339 340 339 345 346 347 345 345 345 344 344 346 342 343 343 337
297 296 301 306 309 309 310 310 316 318 321 325 328 330 329 334 335 332 331 331 330 328 324 321 319 321 322 321 321 326 327 329 334 338 338 338 340 343 344 343 339 344 345 339
302 297 294 305 311 315 314 302 315 318 320 322 324 317 324 331 333 332 329 328 326 323 321 318 317 318 317 318 317 314 315 318 326 329 332 333 334 335 340 344 346 340 336 333
296 297 301 309 312 314 300 305 317 319 321 324 323 326 329 330 329 331 330 327 325 321 317 315 316 315 313 312 312 314 316 317 318 320 325 328 330 332 334 334 342 339 335 329
304 299 296 313 311 304 315 318 320 321 323 324 325 329 329 328 328 328 326 326 325 320 317 317 317 316 313 312 314 315 315 316 319 320 321 319 326 328 330 330 332 333 335 334
306 307 316 317 319 321 320 318 318 320 322 324 323 325 328 327 328 326 327 326 327 323 320 318 318 316 313 312 317 316 315 315 314 317 319 321 322 322 323 325 322 326 326 327
308 313 313 314 315 317 318 317 317 320 321 322 322 324 326 327 326 326 326 325 324 322 320 320 323 323 317 316 316 316 316 316 315 315 315 319 319 320 319 321 320 322 323 322
307 312 313 313 314 316 316 315 314 318 320 321 323 323 325 326 327 326 327 326 326 326 323 321 322 319 320 323 323 319 319 317 318 317 316 316 303 301 307 297 298 303 305 313
304 315 317 313 317 317 315 313 315 315 316 321 322 322 325 325 326 325 325 327 327 327 326 325 325 325 324 323 323 320 317 315 315 315 315 317 312 305 298 298 297 295 295 300
311 315 316 315 318 318 316 316 317 316 319 316 320 322 322 325 326 322 326 326 328 328 328 327 326 324 324 324 323 322 321 326 318 315 317 317 317 314 305 297 298 296 295 296
316 317 314 316 315 317 316 317 318 317 319 318 319 319 320 325 324 325 326 324 327 328 327 327 326 324 325 323 324 322 320 307 316 316 313 318 317 315 314 306 303 300 296 300
316 317 317 318 318 318 318 318 316 315 316 317 318 318 318 318 323 325 327 327 326 324 326 325 325 325 326 323 322 319 317 314 313 313 316 313 315 314 311 313 315 308 303 297
317 317 316 316 317 318 317 316 314 314 315 315 315 316 318 319 320 321 324 327 325 323 324 323 324 323 326 323 322 317 317 313 312 312 312 311 310 310 310 311 312 312 310 308
315 314 315 315 315 317 317 317 315 314 315 314 314 317 317 316 317 318 322 320 325 322 326 323 323 325 327 323 320 317 315 314 311 310 310 308 309 309 309 309 308 309 308 302
319 318 319 320 315 315 315 315 314 314 314 316 317 316 315 314 316 318 320 321 322 322 324 324 323 322 321 321 320 318 316 314 310 308 310 310 309 310 309 309 308 308 304 299
319 319 318 319 317 316 315 315 315 316 316 315 314 314 314 314 317 317 317 316 315 316 317 322 321 324 323 318 320 316 316 313 311 308 309 309 309 309 308 308 308 308 307 303
318 318 319 318 317 315 316 318 316 316 317 315 314 313 312 312 316 315 316 315 316 315 318 318 320 321 325 324 321 318 314 312 311 309 309 309 308 308 309 304 307 308 308 308
318 317 317 317 318 319 318 317 315 314 314 313 311 310 311 312 312 314 313 308 315 318 316 316 318 318 319 319 318 317 315 313 309 311 308 308 310 308 308 309 308 308 308 308
318 317 317 317 316 316 316 315 313 311 310 310 311 311 310 310 310 310 313 311 311 309 312 314 316 316 314 318 321 316 313 313 307 306 308 309 309 308 309 310 310 309 308 309
317 317 316 316 315 315 313 311 310 309 310 310 309 309 308 308 308 306 304 312 310 309 309 311 312 313 313 317 318 317 312 313 307 306 307 306 304 305 306 308 310 311 311 311
317 317 317 316 315 313 309 310 310 311 311 310 310 310 309 306 307 308 310 309 308 309 310 310 312 311 310 318 316 314 313 314 313 309 306 303 305 306 306 306 306 308 311 308
317 316 315 313 310 308 310 311 310 310 310 311 311 312 310 310 307 308 310 310 310 310 312 311 310 310 313 316 315 312 311 311 310 309 307 304 304 304 304 305 305 304 306 307
315 312 311 313 310 309 309 309 307 308 307 305 307 308 307 307 309 307 311 309 311 309 310 312 312 312 314 314 314 314 312 310 308 306 306 303 303 302 303 304 305 305 306 306
312 306 311 310 309 309 309 308 308 306 306 306 305 306 307 307 307 306 306 309 309 308 308 308 308 308 309 309 309 310 310 308 304 306 303 303 303 302 302 303 305 306 308 308

GFSNGP_sfc_thetae_105.txt.gz
Theta_e
302 305 305 304 304 303 297 298 294 307 310 313 318 324 326 328 331 332 334 335 334 334 338 339 342 342 342 342 341 342 340 341 341 342 341 342 341 341 342 343 345 349 350 342
301 307 307 304 306 307 305 302 311 315 310 319 322 323 325 326 327 329 330 332 333 334 335 335 337 341 343 343 342 342 342 341 344 344 342 342 343 341 342 342 342 346 342 337
294 303 303 300 303 306 308 309 309 308 312 315 315 317 322 326 327 328 330 328 330 330 327 328 330 332 333 340 344 343 343 343 343 343 342 344 345 343 340 338 341 343 331 321
294 299 290 303 309 309 309 310 310 314 315 314 314 315 316 329 329 328 328 329 326 325 323 324 325 326 327 336 340 339 341 341 342 342 340 339 338 338 337 338 339 334 330 324
293 291 300 305 308 306 303 304 313 312 320 322 324 329 327 331 329 328 327 327 325 323 321 320 322 323 325 323 326 326 326 330 335 336 333 334 332 336 337 337 337 336 331 322
294 291 290 302 310 313 310 301 313 317 318 322 323 315 321 327 327 325 324 322 320 320 318 317 318 320 319 318 318 317 317 323 327 328 328 325 326 328 329 332 336 329 327 322
296 296 300 309 312 313 299 303 314 317 314 318 311 320 323 325 324 324 322 319 319 318 316 315 316 316 314 315 315 317 318 319 320 321 324 323 323 325 325 328 332 329 322 317
294 291 292 312 310 302 309 313 315 322 321 323 323 325 325 324 323 323 320 318 316 315 314 315 315 314 312 311 314 315 316 317 318 319 319 320 320 322 323 323 325 328 327 318
301 298 305 312 312 315 316 312 313 314 323 323 323 323 324 322 321 321 320 319 317 315 314 314 315 313 311 310 311 312 311 312 313 314 316 318 317 316 316 320 318 320 324 323
305 307 311 313 313 315 315 311 313 314 316 320 320 323 323 321 320 322 322 319 317 315 312 311 312 312 310 311 313 311 310 309 309 309 310 312 307 310 306 307 310 311 309 313
306 310 310 311 313 312 312 313 312 314 317 318 321 322 322 322 321 321 321 320 318 316 314 313 314 311 311 311 311 310 312 311 310 311 311 302 297 301 299 297 297 303 300 301
300 310 308 309 313 316 312 312 312 313 315 316 319 323 324 320 321 321 321 322 321 319 316 315 314 312 313 314 314 312 309 310 310 310 307 303 298 294 298 297 296 295 296 301
310 313 312 314 316 315 313 314 314 315 314 313 315 321 322 320 322 319 321 321 321 318 319 318 317 316 316 314 314 314 311 311 309 308 307 308 305 301 295 293 297 295 294 295
315 314 310 313 312 315 316 316 317 316 314 316 314 315 322 320 321 321 320 321 322 323 320 318 317 315 315 315 312 312 310 307 305 306 305 305 309 307 303 297 294 292 295 295
313 313 313 313 315 314 315 316 313 311 313 313 314 313 316 318 319 320 323 323 320 319 321 320 320 317 316 315 313 311 311 308 305 304 304 304 304 304 304 301 299 297 294 294
315 315 314 313 315 314 315 314 311 312 313 313 313 313 313 313 312 314 317 317 319 317 318 318 317 320 318 316 313 311 311 314 308 303 303 301 301 301 301 300 303 299 296 295
312 310 311 312 314 314 313 313 312 312 312 312 312 312 312 311 310 311 311 314 315 317 317 318 317 320 318 316 314 311 310 308 310 302 302 301 301 301 300 300 300 302 302 301
318 316 317 315 313 312 312 312 313 314 313 314 312 311 310 310 309 310 311 311 310 310 313 315 314 318 318 319 318 312 312 309 303 301 302 302 300 301 301 300 300 299 294 293
318 317 317 316 314 312 311 312 313 313 313 313 312 310 309 310 309 309 310 309 307 307 308 311 317 317 316 317 318 316 314 313 311 304 301 303 302 301 301 300 300 300 297 294
319 319 317 316 316 315 313 314 313 313 312 311 309 308 307 307 307 307 307 305 305 306 309 310 309 311 313 319 322 315 314 312 312 306 303 300 300 301 300 301 300 301 299 298
316 316 316 315 314 315 316 314 313 311 310 309 306 305 306 307 307 306 302 300 304 305 307 310 309 310 314 314 313 312 311 311 307 306 304 301 301 301 300 301 301 301 301 301
314 315 316 315 313 313 313 311 310 308 307 307 307 306 304 303 305 304 305 303 305 309 305 303 304 310 310 317 310 309 308 309 306 305 305 304 302 302 303 301 301 302 301 301
315 315 315 313 312 310 310 308 307 308 307 305 306 304 303 304 303 301 300 304 305 306 305 305 309 311 312 308 308 306 307 306 304 304 305 306 305 303 302 302 304 305 304 303
315 314 313 313 311 310 307 306 307 308 307 307 306 306 305 304 301 303 304 307 308 306 306 308 309 310 310 306 306 305 306 305 305 303 303 303 305 304 304 304 303 304 305 304
314 314 312 311 310 308 308 307 306 306 307 307 307 308 307 306 303 303 306 306 307 306 306 310 310 309 306 306 305 305 305 304 304 306 304 300 301 303 304 304 304 304 304 304
314 312 311 309 307 307 308 307 304 305 307 305 306 307 303 305 305 307 307 307 306 305 304 305 305 304 306 305 305 305 306 305 304 303 303 303 299 299 302 303 303 304 304 304
312 309 309 308 308 308 308 306 305 303 303 302 301 301 301 303 304 303 305 306 304 303 302 302 302 302 303 302 303 306 306 305 303 304 301 302 301 301 302 303 303 303 304 304

GFSNGP_sfc_thetae_108.txt.gz
Theta_e
299 305 305 304 304 305 299 295 293 297 306 312 314 323 326 330 332 331 326 330 332 333 333 333 335 341 341 342 342 342 341 340 340 341 342 342 342 343 343 343 342 343 341 338
299 304 304 303 305 307 307 306 313 312 310 319 325 326 326 328 330 331 328 331 332 333 335 335 338 337 341 341 340 340 339 338 340 339 338 337 340 342 342 341 340 342 337 331
292 300 303 297 302 305 306 308 307 306 311 317 317 323 322 325 329 330 331 332 331 331 333 335 335 340 335 341 341 339 339 340 342 340 340 340 342 341 338 337 340 331 321 315
291 295 289 299 308 308 307 308 312 315 315 316 314 316 324 328 328 327 328 327 327 324 325 325 328 329 335 341 341 339 339 340 340 339 339 338 336 335 333 335 334 325 320 315
289 289 296 303 306 306 303 303 313 316 318 321 322 325 323 328 328 327 326 324 324 324 323 323 326 327 328 331 332 334 336 339 339 338 337 334 333 333 333 333 331 327 321 315
290 288 288 299 308 313 311 298 313 316 314 317 322 313 318 324 323 320 320 319 319 321 321 322 321 324 324 321 323 322 324 326 331 332 331 328 328 327 327 334 333 328 320 314
292 289 295 305 309 312 299 299 314 316 315 319 316 319 322 324 321 320 318 317 317 318 316 316 321 320 319 319 317 319 320 321 323 326 325 324 323 323 325 330 326 322 320 314
290 286 286 308 309 302 307 313 317 316 317 315 316 318 323 323 320 317 316 315 317 315 314 315 317 317 315 315 317 319 318 320 320 320 322 322 322 322 321 327 325 322 314 311
299 295 302 307 307 313 312 317 318 314 322 319 316 319 323 321 319 318 316 315 317 314 314 314 314 313 311 311 312 313 314 313 315 315 316 316 316 315 314 319 323 324 323 315
299 303 308 311 311 313 313 309 311 317 320 325 322 323 321 320 319 318 316 313 312 311 310 308 310 310 309 309 310 308 307 307 308 309 306 304 309 308 305 306 308 309 308 313
300 304 308 309 309 309 310 312 313 315 318 323 324 322 321 320 320 320 317 315 314 313 311 310 310 307 308 308 308 307 307 306 306 305 301 297 297 298 298 297 299 302 302 303
297 304 301 304 308 310 309 309 312 311 312 317 323 321 321 319 318 317 316 315 314 313 311 311 310 308 308 308 309 308 306 306 307 307 304 298 296 294 297 296 296 295 296 297
306 308 306 310 312 312 309 311 312 310 311 315 320 320 321 318 316 317 317 317 316 313 313 312 310 309 310 310 310 308 305 305 305 306 304 302 299 296 294 292 296 294 294 294
309 308 307 309 307 311 313 314 314 313 312 312 318 318 319 319 318 317 319 320 320 316 314 314 313 311 312 311 311 310 308 307 302 305 304 304 305 302 299 295 293 292 294 294
309 309 308 309 309 310 311 310 309 310 311 311 314 313 313 313 314 315 319 320 320 318 314 315 316 312 312 312 310 308 308 307 305 302 301 302 303 305 303 299 296 293 292 293
309 309 309 308 309 310 310 309 308 308 309 309 308 308 309 309 309 310 312 314 313 312 317 316 314 316 313 311 309 308 308 311 308 303 299 299 298 299 299 299 298 296 293 292
306 304 306 307 308 308 307 310 309 309 309 308 307 308 307 308 308 307 307 308 307 308 311 312 311 314 316 313 310 310 309 308 312 304 300 300 298 298 298 297 300 298 296 295
309 309 309 310 308 307 307 308 310 309 308 308 308 307 307 305 303 304 304 304 304 305 311 313 311 312 312 314 312 310 309 309 310 308 301 299 299 298 298 297 297 299 298 298
313 313 311 310 308 307 309 310 309 309 309 308 307 305 305 304 303 303 302 302 301 300 302 304 313 308 307 311 316 311 309 308 309 307 305 303 301 299 298 298 297 297 296 295
313 313 311 309 310 310 309 309 309 308 307 306 304 303 302 302 302 302 301 299 301 301 302 303 302 304 304 308 316 311 310 310 309 307 307 304 300 299 301 298 298 297 296 294
312 311 310 310 309 310 309 309 307 305 304 303 303 302 301 301 302 300 298 296 299 302 303 306 302 301 302 307 309 307 308 308 307 307 309 308 303 300 300 299 299 298 298 296
311 310 310 310 308 307 307 305 305 304 303 303 302 301 299 299 300 299 300 299 300 307 303 301 301 306 307 312 304 304 304 305 304 302 302 305 305 302 300 299 299 300 299 298
310 310 310 308 306 305 306 306 306 305 302 301 300 299 299 299 299 297 295 300 302 304 302 302 308 311 311 304 302 303 303 302 301 300 300 301 304 304 304 302 302 303 301 298
309 309 306 305 306 304 300 300 302 302 301 302 301 300 299 299 298 299 299 304 305 305 304 305 307 309 308 301 301 301 301 300 300 300 302 302 304 304 303 304 304 304 303 302
310 307 306 305 303 301 300 300 301 301 300 300 301 301 301 300 299 299 302 303 306 303 301 306 308 307 303 302 301 301 300 300 300 300 300 299 297 300 302 301 303 304 304 304
307 307 306 305 305 303 303 301 300 299 300 300 301 301 302 301 301 301 302 304 302 302 300 301 300 300 300 299 298 300 300 301 301 301 300 302 301 297 298 300 302 304 304 304
305 305 302 300 301 301 303 301 299 299 301 300 299 299 299 297 300 302 302 302 301 299 299 299 299 300 298 297 297 298 299 301 300 303 301 298 299 297 297 299 300 300 302 305

GFSNGP_sfc_thetae_111.txt.gz
Theta_e
294 303 303 302 304 305 299 298 289 293 295 308 317 321 322 324 325 325 328 330 332 332 332 332 334 335 337 340 342 343 344 341 343 345 346 344 344 342 343 342 342 342 341 338
296 304 304 300 304 306 305 306 304 308 308 319 323 326 326 326 327 324 327 328 330 332 333 333 335 338 338 340 341 341 341 342 342 343 343 341 340 340 341 341 341 343 337 332
291 298 301 295 300 303 304 309 307 302 308 317 316 319 320 325 327 328 328 330 330 330 333 334 335 337 338 339 340 338 338 339 340 338 337 338 339 340 340 339 339 331 324 318
291 293 289 297 306 308 305 307 312 314 314 316 320 323 324 326 327 327 326 326 327 326 327 327 330 333 336 338 339 339 337 337 338 338 339 339 339 337 335 336 329 320 314 312
289 288 295 304 305 303 299 300 313 314 316 321 324 324 321 325 325 324 325 324 324 324 323 325 327 327 334 333 336 338 337 339 338 339 336 335 333 332 333 331 323 318 314 310
290 287 287 299 307 311 308 296 313 316 319 319 318 312 317 322 321 319 318 319 321 323 323 323 324 327 327 331 334 333 335 337 336 336 334 332 331 331 331 330 326 320 315 309
291 288 293 302 308 309 295 297 314 316 319 318 316 318 320 322 318 317 316 316 318 317 317 320 324 323 321 321 320 325 328 328 329 329 329 329 328 329 331 329 322 318 314 309
288 285 286 305 306 299 303 310 315 314 317 316 319 321 320 318 316 315 314 316 317 315 314 316 318 319 318 317 320 323 326 325 323 323 325 322 323 324 327 325 322 319 314 308
296 294 300 304 305 308 312 314 315 318 316 315 317 320 320 318 317 316 315 315 316 314 313 313 314 315 313 312 315 316 316 316 317 316 316 317 317 316 318 325 325 319 314 310
297 299 304 307 309 311 314 313 316 319 317 316 318 322 319 317 316 315 314 313 313 313 312 311 310 309 310 309 310 308 309 309 311 311 307 307 309 310 310 311 312 312 312 317
298 301 306 309 307 308 311 314 317 320 322 323 322 319 317 316 315 315 313 311 311 309 308 307 306 307 308 308 306 305 304 304 304 304 300 298 296 299 300 295 299 303 302 308
296 302 302 304 306 310 310 311 313 315 315 321 322 320 319 316 315 315 312 313 312 311 310 309 306 305 306 306 306 306 304 305 305 304 299 297 296 294 297 296 295 294 295 298
303 305 304 307 308 310 310 310 311 315 319 318 320 319 318 315 314 314 313 313 312 312 310 309 308 306 306 306 308 307 305 304 305 306 304 299 297 297 296 295 296 294 293 294
307 308 305 306 305 309 311 312 312 312 316 319 318 318 317 315 315 314 313 314 315 313 311 310 309 308 308 308 307 307 306 308 302 303 303 303 302 300 298 296 295 293 293 293
306 306 306 306 307 308 310 311 310 311 314 313 315 315 315 313 312 313 315 317 317 314 311 311 311 313 312 310 308 307 306 306 304 301 301 301 300 302 302 299 296 294 291 293
306 307 307 306 307 307 308 309 308 307 308 308 308 308 308 308 308 308 309 311 311 309 311 312 313 312 313 311 309 307 307 310 307 303 301 299 297 298 300 300 299 297 293 292
304 302 304 304 305 305 307 309 308 307 306 307 306 307 307 306 305 305 305 305 306 307 307 307 306 308 311 312 309 308 308 307 311 305 302 299 298 297 296 296 297 297 296 294
309 308 308 308 306 305 306 309 310 308 308 307 307 307 305 304 302 301 301 301 301 301 302 304 307 306 305 307 309 308 307 307 307 306 306 302 299 298 297 296 296 298 298 296
309 309 309 309 308 307 307 308 309 307 307 307 307 305 303 301 300 300 300 300 299 298 300 301 310 304 302 305 311 308 307 306 306 305 304 304 301 301 300 298 297 296 297 298
311 310 309 307 308 309 307 307 308 306 307 305 305 304 301 300 300 299 298 298 298 299 299 299 300 299 300 301 310 305 306 307 307 306 305 304 303 301 299 299 300 298 297 296
310 308 307 308 307 308 309 308 306 305 302 303 302 301 300 300 298 297 296 295 298 299 300 304 300 299 300 305 305 301 302 304 305 304 304 305 303 300 299 300 301 300 297 296
308 307 307 308 307 305 305 304 304 303 302 301 301 300 298 298 299 298 297 297 298 306 301 299 300 307 306 311 301 299 300 301 302 302 301 302 301 301 300 300 303 302 300 298
307 308 307 307 306 304 303 303 303 303 302 301 299 297 298 297 297 296 295 298 300 303 300 300 306 310 310 300 299 299 299 299 299 299 299 299 299 299 299 299 301 303 299 299
307 306 306 305 304 303 301 301 302 302 301 300 298 298 298 297 297 298 296 301 304 303 301 302 305 308 305 299 298 298 298 298 298 298 297 298 299 300 299 300 301 303 303 303
308 305 304 303 302 301 300 300 299 299 299 298 298 298 298 298 298 298 299 301 304 301 299 305 307 305 298 297 296 297 298 297 298 298 297 297 297 297 299 302 303 304 304 304
305 305 305 304 304 301 302 300 300 298 298 297 298 299 299 299 299 297 298 301 301 301 299 299 298 298 297 296 296 297 297 302 302 302 301 297 298 297 296 297 299 303 303 304
306 303 303 300 299 300 301 300 298 298 298 299 299 300 301 301 300 298 300 300 301 299 298 298 297 298 297 296 296 296 296 295 294 297 297 299 301 300 296 296 296 297 299 303

GFSNGP_sfc_thetae_114.txt.gz
Theta_e
296 301 304 303 302 304 297 297 289 296 303 312 317 320 319 321 323 325 327 330 331 332 333 335 335 336 337 338 340 342 342 344 343 344 345 345 343 343 344 345 344 343 344 344
298 302 302 300 302 305 305 307 305 305 305 320 323 326 325 324 323 325 327 329 331 332 333 333 335 335 337 339 340 342 343 340 341 344 342 343 343 342 343 342 342 343 340 337
292 298 299 296 299 302 304 309 308 303 307 317 317 320 323 326 326 324 328 329 330 331 332 333 335 336 335 338 341 340 339 340 340 341 341 341 341 340 340 339 340 340 334 328
292 294 287 298 307 306 304 307 311 314 315 319 319 321 323 326 326 327 328 328 328 329 330 329 332 337 339 339 338 337 337 338 340 339 339 338 339 340 339 339 336 329 321 316
290 289 293 303 306 304 300 301 311 314 317 322 323 321 320 323 323 323 323 324 324 325 325 326 328 332 335 337 337 338 336 336 338 339 339 339 339 338 336 334 326 321 318 315
290 286 286 297 307 311 307 297 311 315 319 321 318 311 318 322 321 319 320 321 321 323 323 323 325 331 334 333 335 335 335 335 338 340 339 335 334 335 336 330 324 318 314 312
289 288 293 301 309 312 296 298 313 319 319 317 314 316 322 320 317 317 318 318 318 318 317 319 323 325 324 323 322 327 328 329 330 332 333 333 332 334 334 327 322 318 314 310
288 286 286 306 307 302 305 313 315 316 318 317 319 319 318 316 315 316 316 317 318 316 316 318 322 319 317 316 321 324 326 323 322 323 326 328 328 330 332 327 321 320 312 308
293 292 300 303 305 310 312 314 314 316 316 321 319 318 317 314 314 315 315 315 316 315 313 314 316 317 315 316 317 319 319 318 320 319 320 321 320 323 327 325 321 316 313 310
296 300 303 307 309 313 317 316 318 318 317 317 319 319 316 315 315 314 315 314 314 314 312 310 310 311 311 311 312 311 311 313 314 315 312 311 312 312 318 318 321 321 320 316
296 301 306 308 310 310 313 317 320 318 318 320 320 318 316 315 315 314 313 312 311 310 309 309 310 310 310 309 309 307 307 307 307 304 304 302 298 300 302 299 303 309 309 314
295 303 302 304 309 314 315 316 319 319 321 322 320 318 317 315 314 312 311 312 311 312 311 309 309 309 309 309 309 307 306 307 307 304 302 302 301 299 297 297 295 294 295 303
302 305 304 307 309 314 313 314 317 318 320 320 321 320 319 316 315 314 313 314 313 313 312 311 307 307 308 309 312 310 309 309 309 307 306 303 302 303 304 301 296 294 293 294
306 307 305 306 305 310 313 314 316 320 321 321 319 319 318 315 314 314 313 315 314 313 312 311 311 311 312 311 312 310 309 307 308 308 308 308 306 305 303 303 303 303 295 295
306 306 306 306 308 309 311 313 315 316 317 316 318 317 317 315 314 315 316 317 317 315 313 313 313 314 313 312 311 310 310 310 308 306 306 307 306 306 307 305 303 302 299 296
306 306 306 306 307 308 310 312 311 310 311 312 312 311 311 311 310 309 311 314 313 311 313 313 312 312 316 314 313 312 311 310 310 308 307 305 303 302 304 305 304 304 302 300
304 303 303 304 306 306 309 311 311 309 308 309 308 308 308 306 306 306 307 308 307 306 307 308 308 309 311 311 313 313 313 311 311 310 307 306 304 303 302 302 304 304 304 302
309 308 308 308 305 306 307 309 309 309 308 308 308 307 306 306 303 302 302 303 303 302 303 305 309 306 306 307 311 311 311 311 311 310 310 309 307 306 304 302 302 301 303 303
309 308 308 308 308 308 308 307 308 308 308 308 307 305 304 303 302 302 302 302 301 301 302 303 309 304 304 306 310 309 309 310 311 310 310 308 309 307 305 304 303 303 302 302
309 309 309 308 308 308 307 308 307 307 308 306 305 303 302 302 302 302 302 300 301 302 304 303 304 303 304 305 310 307 306 307 308 309 310 310 309 309 308 302 304 304 303 302
310 309 308 307 307 308 309 308 308 307 307 306 305 303 302 301 300 299 299 299 302 303 304 305 305 304 306 309 309 306 304 305 306 307 308 309 309 309 308 307 306 306 305 305
307 307 307 307 307 306 306 307 308 306 304 303 303 302 300 299 299 299 300 299 302 304 304 304 304 308 309 307 304 303 304 304 305 305 306 306 306 306 305 305 305 306 306 306
307 307 307 307 306 305 304 304 305 305 304 304 302 301 301 301 300 299 299 302 303 305 304 304 307 309 307 304 303 303 303 303 303 303 303 303 303 304 304 305 305 306 305 305
305 306 306 305 304 304 301 302 303 304 304 303 302 301 300 298 299 300 299 302 303 304 303 305 307 306 302 302 302 302 302 303 303 303 303 298 304 304 304 305 304 306 306 305
306 304 304 304 304 304 304 302 301 301 301 300 300 300 301 301 302 302 301 304 304 303 303 306 307 304 302 302 302 302 303 303 305 304 304 304 303 303 302 303 304 305 305 306
303 304 305 306 306 303 303 303 302 301 300 299 300 300 301 301 301 300 302 303 305 303 302 303 303 304 303 302 302 302 302 303 304 304 303 303 302 302 301 301 302 303 306 305
303 301 301 300 300 303 304 304 302 300 300 301 301 302 302 303 302 302 300 302 304 304 302 302 302 302 302 302 302 301 302 302 297 299 301 301 301 302 301 301 303 304 304 305

GFSNGP_sfc_thetae_117.txt.gz
Theta_e
302 306 307 305 306 308 304 307 298 303 309 317 321 324 327 327 329 330 331 333 336 338 339 338 338 344 348 345 345 351 349 351 353 357 354 356 353 353 352 352 353 354 353 353
302 306 305 304 304 308 310 310 311 311 312 321 324 328 327 327 328 329 331 333 336 337 337 335 336 340 342 347 346 347 351 351 354 351 348 351 349 351 351 349 347 351 350 342
297 303 302 298 302 304 309 312 312 309 315 319 320 323 326 327 328 330 331 333 336 336 335 335 335 338 338 341 345 346 347 348 347 345 347 345 345 347 347 344 343 346 343 337
299 301 291 303 310 310 308 310 315 317 317 320 320 322 324 328 328 328 328 330 333 336 335 337 340 341 338 339 340 340 339 340 342 341 341 343 343 342 343 342 341 339 333 327
298 297 299 304 307 306 305 306 315 317 319 321 322 322 321 324 325 325 325 325 326 328 330 333 336 343 342 341 341 341 338 341 340 341 340 339 338 341 341 342 338 330 324 321
298 294 291 303 309 312 311 303 315 321 320 322 323 314 317 322 323 323 324 324 323 324 325 326 327 332 337 338 339 339 336 337 340 340 341 340 340 339 337 336 331 325 322 320
299 298 300 306 310 313 300 304 318 323 322 324 322 324 323 322 321 322 323 322 322 322 320 322 325 329 329 331 329 333 333 334 333 330 335 337 336 336 332 327 325 324 321 319
299 298 294 309 310 306 311 317 321 324 323 322 320 321 322 321 321 321 321 321 322 321 319 320 321 321 320 321 325 328 328 329 330 328 326 327 331 334 329 325 322 320 318 315
304 304 309 312 312 316 317 319 321 324 323 321 321 322 322 321 323 324 323 321 320 319 317 317 318 319 314 315 319 321 322 321 320 324 322 320 324 328 329 328 324 322 317 312
305 308 311 313 316 316 321 321 325 327 325 325 322 322 323 322 323 323 323 321 322 320 315 314 314 314 314 315 316 316 314 315 317 313 314 316 314 319 323 325 324 320 319 318
306 310 313 314 316 316 320 324 323 325 326 325 324 322 323 323 324 323 322 320 319 319 317 316 316 315 315 315 316 314 314 311 308 308 307 307 306 308 311 305 305 317 314 320
305 315 316 316 317 320 323 324 324 323 324 326 325 323 323 321 322 320 319 319 319 317 316 315 314 314 316 316 317 314 312 312 311 309 307 307 306 303 298 298 298 295 296 306
313 316 314 318 318 318 322 325 325 325 326 326 326 324 324 322 322 318 322 322 320 318 316 315 314 314 318 321 319 318 317 317 314 313 312 312 312 312 312 304 296 295 294 296
313 316 312 316 316 319 320 324 323 327 329 329 327 326 325 323 322 323 323 323 322 321 320 320 319 319 320 320 320 318 318 309 316 316 316 315 315 315 314 314 313 313 297 297
314 316 316 319 319 318 320 324 325 324 326 326 327 325 325 323 323 323 325 324 322 322 321 322 323 322 321 320 320 320 320 318 317 317 316 315 317 317 314 313 313 313 313 301
316 314 315 316 317 317 319 321 323 324 325 325 325 324 323 323 323 323 325 325 323 322 322 320 318 319 323 323 323 322 321 312 313 319 318 317 315 314 313 312 311 312 313 314
312 310 313 314 315 317 318 320 322 323 323 324 323 321 320 319 319 318 318 318 318 317 317 315 314 316 318 318 318 318 319 320 315 320 319 318 317 316 315 313 313 313 312 312
319 318 317 318 316 317 318 320 321 322 321 320 319 318 317 318 316 314 313 313 313 312 312 314 313 314 314 315 314 314 314 315 317 316 318 318 318 319 317 317 316 314 314 312
318 318 318 318 318 318 319 319 320 322 319 318 317 316 316 315 314 313 313 312 311 310 309 312 309 312 313 314 314 314 312 312 312 313 316 314 316 317 316 315 314 315 315 314
317 318 317 318 319 319 319 320 319 317 317 317 316 314 312 312 313 312 312 309 309 308 311 310 311 312 312 313 313 314 313 312 312 312 313 314 315 316 315 308 313 313 313 313
317 317 316 316 316 318 319 318 317 316 315 316 314 313 312 312 312 311 309 305 310 311 311 310 311 311 313 312 313 313 312 312 312 312 313 313 313 313 313 313 313 312 312 312
318 317 317 317 316 316 317 317 318 316 314 313 313 312 311 309 310 310 310 307 309 305 309 310 311 311 310 308 311 311 311 312 311 311 311 311 311 311 311 312 311 311 312 312
318 318 317 316 316 316 316 317 316 314 311 311 311 311 309 308 308 305 303 310 310 307 310 310 309 307 306 310 311 311 311 312 312 312 312 312 311 311 310 310 310 310 311 311
318 318 318 317 316 314 313 314 315 315 313 311 310 312 310 307 308 309 309 306 305 306 308 309 307 304 307 310 311 311 311 312 312 311 311 301 309 308 307 306 308 309 311 310
318 317 315 313 313 313 314 314 313 313 313 313 312 312 311 311 307 309 309 310 305 306 308 306 307 304 311 311 310 312 312 312 311 311 309 308 307 307 307 304 304 307 308 310
315 314 314 315 315 314 313 312 312 312 312 310 309 309 310 310 310 310 311 309 312 307 309 310 310 310 312 312 312 312 311 311 311 311 307 309 308 308 306 305 304 308 309 309
314 309 314 313 313 312 312 313 312 310 310 311 309 309 309 309 309 308 307 311 311 311 310 310 309 308 310 310 310 311 311 311 304 309 310 310 310 309 309 308 308 306 307 307